GFSFLT1_sfc_wetblb_000.txt.gz
Wetbulb
64.94 64.56 65.70 66.36 66.60 67.79 70.04 71.33 71.62 72.18 70.32 69.00 65.84 64.12 63.13 63.16 63.68 62.41 62.11 62.72 62.91 59.69 60.89 62.99 63.34 62.98 63.08 63.31 63.44 64.65 64.75 63.82 62.88
62.27 64.03 65.19 65.69 66.78 67.94 69.40 70.72 71.46 71.86 69.76 68.43 66.68 64.93 63.93 63.33 63.47 63.97 64.70 64.42 62.34 60.84 62.48 63.43 63.05 63.55 63.28 63.56 64.67 63.86 63.97 63.86 63.82
59.84 63.53 65.08 65.84 66.54 67.46 69.77 70.48 71.57 72.35 70.29 68.74 67.31 66.51 64.87 64.46 64.58 64.35 64.05 63.16 62.45 62.99 62.39 62.93 62.91 63.15 63.46 63.57 63.87 63.66 63.07 62.37 62.35
58.71 61.76 63.84 65.54 66.36 67.48 69.71 70.48 71.24 71.77 70.35 69.40 67.81 67.28 65.99 65.77 65.74 64.93 63.80 63.33 62.93 63.10 62.89 63.71 64.61 64.55 64.15 63.33 62.89 63.56 63.42 63.07 62.85
59.86 60.88 63.43 64.99 65.98 66.61 68.46 69.20 70.61 71.01 70.77 69.76 69.02 68.44 66.84 66.51 66.40 65.15 64.04 63.58 63.36 63.39 63.36 62.94 62.61 62.74 62.61 62.77 63.36 63.69 63.02 62.78 62.86
58.27 60.38 60.80 64.32 64.72 65.33 67.20 68.62 69.91 70.40 70.84 70.29 69.79 68.79 67.02 64.38 63.41 63.11 63.36 63.42 63.13 63.11 62.61 62.14 62.23 61.29 60.71 61.89 62.31 62.27 62.90 62.76 62.96
58.80 60.40 60.90 63.34 64.21 64.81 66.80 68.35 69.40 70.16 70.44 70.74 69.48 68.36 67.30 63.76 62.36 62.27 62.91 63.35 62.96 62.82 62.74 62.00 61.61 61.56 62.41 62.64 62.28 62.32 62.46 62.77 62.61
58.92 58.98 61.17 62.29 64.08 65.03 66.70 67.71 68.70 69.78 70.19 69.83 68.66 67.74 66.72 64.81 64.32 63.12 62.67 63.19 63.12 62.91 62.83 62.46 62.13 62.66 62.70 62.48 62.43 63.69 62.92 62.89 61.95
57.80 59.38 63.32 62.19 64.24 66.10 67.23 67.91 68.37 68.66 69.06 68.88 68.25 67.01 66.39 65.69 64.97 63.92 63.60 64.29 63.71 62.92 62.64 62.07 62.18 62.53 62.42 61.19 62.95 62.30 62.29 61.13 58.91
56.20 57.72 59.74 63.70 64.74 65.46 68.13 69.00 68.80 67.47 67.73 67.78 66.63 66.02 65.54 65.14 65.14 64.43 64.59 64.65 63.33 62.99 62.74 61.78 61.98 62.31 60.92 61.50 61.65 60.64 59.88 62.75 58.22
56.66 57.39 57.44 58.66 62.99 65.55 68.57 70.33 69.10 67.17 65.63 66.13 65.79 65.08 64.99 65.70 65.63 64.92 64.84 63.78 63.24 63.16 62.91 62.76 62.38 61.07 61.98 61.85 61.22 60.23 59.03 60.85 57.62
57.10 57.01 57.83 59.47 60.47 63.73 66.31 69.11 68.66 65.73 65.14 65.48 65.08 64.41 64.54 65.28 65.57 64.99 63.91 63.02 62.89 63.71 62.85 62.01 62.06 62.67 62.46 60.63 61.06 58.78 57.61 58.08 57.12
58.68 60.39 60.96 61.62 62.43 66.86 66.06 67.00 66.05 65.31 64.37 64.16 64.00 64.54 64.99 65.57 65.40 64.59 63.73 63.67 63.93 64.74 63.49 62.63 63.93 62.97 62.35 59.69 60.51 57.22 55.78 56.50 56.32
59.53 61.62 62.89 63.42 67.23 67.67 65.95 65.51 65.85 63.98 63.59 63.78 64.69 65.21 64.79 64.61 65.64 65.08 64.71 64.89 64.90 64.06 62.94 60.47 59.98 60.76 60.60 59.83 58.77 57.91 54.95 54.33 53.99
57.59 57.42 60.97 63.05 66.12 66.51 65.97 65.70 65.85 63.86 62.85 63.56 64.10 63.20 62.65 61.83 59.80 64.50 66.54 65.28 64.02 62.37 61.18 60.06 59.17 59.49 58.32 58.27 56.48 54.33 54.17 54.24 52.60
57.76 58.81 60.12 62.25 64.14 65.49 64.88 65.32 63.59 60.73 60.44 62.46 62.77 61.61 61.87 59.92 60.90 60.47 61.31 64.17 63.14 61.39 59.75 58.26 57.94 57.95 56.36 54.78 54.90 52.41 51.73 51.72 51.89
62.67 62.51 60.83 64.36 62.90 61.61 60.39 62.27 62.08 62.11 63.97 62.80 61.15 60.59 60.67 60.30 59.39 59.32 61.98 62.90 62.03 60.53 58.95 57.16 56.72 55.72 54.04 52.53 49.82 49.09 49.57 50.00 49.19
61.32 60.65 60.63 61.46 62.24 61.05 59.96 61.48 61.76 62.50 61.93 61.08 60.35 60.47 60.97 60.53 61.20 61.98 59.32 55.23 54.47 55.82 49.97 52.30 53.41 52.01 52.48 53.00 48.85 48.08 45.14 45.59 47.57
59.99 59.55 60.01 60.82 61.71 61.56 59.78 59.76 59.50 59.87 61.07 60.05 58.24 56.98 59.70 59.68 61.44 58.75 54.47 51.97 49.62 45.86 44.63 43.29 43.08 45.84 46.67 45.74 45.93 43.75 42.41 41.18 40.83
59.41 59.76 59.79 60.74 60.96 60.69 60.72 60.30 59.81 61.25 61.16 60.52 59.39 60.92 60.60 59.45 58.57 57.83 53.26 51.07 50.97 49.56 48.60 45.57 43.06 42.08 43.50 44.00 43.03 41.37 40.78 40.65 40.94

GFSFLT1_sfc_wetblb_003.txt.gz
Wetbulb
64.02 64.74 65.69 67.11 67.84 67.81 68.27 70.16 70.94 71.83 71.83 71.26 69.26 67.68 65.23 61.78 61.88 61.44 61.89 61.50 61.22 60.05 60.85 61.89 61.91 61.92 61.59 60.58 61.70 63.21 63.47 63.08 62.14
61.87 64.16 64.67 66.95 68.10 67.92 68.67 69.97 70.77 71.53 71.86 71.51 68.48 65.60 63.56 61.45 62.24 61.48 61.01 61.88 61.80 58.84 59.58 62.20 61.98 61.57 61.17 61.49 62.87 63.38 62.51 62.28 62.40
60.93 63.91 64.31 65.92 67.80 67.19 69.16 70.54 71.29 71.70 72.10 71.37 68.89 65.39 63.80 63.24 62.97 62.76 63.10 62.89 61.03 59.99 60.94 61.51 61.44 61.14 61.55 61.37 62.38 62.64 61.62 61.08 61.62
60.53 62.23 63.47 64.86 66.42 67.18 68.28 70.29 70.92 71.05 71.05 70.56 68.71 66.06 64.38 63.28 63.27 63.87 63.32 62.44 61.44 61.23 61.05 60.68 61.25 61.59 61.83 62.35 61.83 61.29 61.38 61.70 62.16
58.38 60.99 63.08 64.80 65.86 66.60 66.85 68.07 69.54 70.33 70.56 69.90 68.94 67.13 64.95 64.03 64.31 64.02 62.92 62.02 61.92 61.59 60.90 61.20 62.31 62.40 62.35 61.50 61.17 61.47 62.09 61.96 62.07
57.99 59.46 61.20 63.96 64.94 65.52 66.07 67.32 68.65 69.69 70.47 70.05 69.17 67.19 65.78 65.10 64.68 64.42 63.10 63.12 62.37 61.92 61.48 61.33 60.55 60.30 59.31 58.60 59.11 60.40 60.85 61.39 61.46
58.84 59.14 60.25 62.15 63.83 64.91 65.84 66.51 68.13 68.96 70.42 70.68 69.60 68.00 66.68 65.36 65.50 65.36 64.87 64.27 63.04 61.88 61.28 60.25 59.74 59.82 59.55 59.39 60.08 60.66 60.55 60.71 60.66
56.85 58.16 58.71 60.28 62.14 63.31 64.44 65.10 67.12 68.70 70.11 70.58 69.80 68.66 67.45 66.02 65.48 65.13 64.73 63.99 63.03 62.15 61.75 61.97 60.25 60.10 59.67 60.27 61.20 61.83 60.62 61.02 61.62
56.55 57.27 59.01 59.58 61.72 62.82 63.02 64.44 66.39 68.02 69.41 70.19 70.02 68.94 68.01 66.49 64.59 63.83 63.19 63.16 62.64 61.64 62.62 61.80 60.35 59.97 60.14 60.27 61.61 61.25 62.12 62.75 59.55
57.65 58.09 60.21 58.51 59.88 61.00 62.74 64.25 66.66 67.11 68.82 70.08 69.49 69.20 67.73 65.88 65.44 63.84 62.85 63.08 62.03 61.92 62.13 61.48 59.97 60.03 60.25 60.17 59.87 59.73 59.87 62.55 58.18
56.13 57.91 59.40 61.73 61.37 61.34 63.87 65.38 66.46 66.98 68.22 68.82 68.57 67.94 66.99 66.41 65.43 64.48 63.38 61.64 61.97 62.57 62.32 61.48 60.73 60.41 60.27 59.43 60.58 58.85 58.30 60.80 59.13
56.99 56.77 56.90 58.81 63.15 64.16 63.45 65.39 67.24 66.86 66.67 67.50 67.39 66.24 65.84 66.14 66.01 64.64 63.12 62.89 63.53 63.67 61.74 60.98 61.31 60.56 60.48 60.45 60.21 58.15 57.47 57.94 57.50
55.63 55.91 58.34 58.95 60.11 62.92 63.35 63.92 66.73 65.31 64.73 65.50 65.59 66.18 65.98 66.44 66.09 64.88 63.40 63.71 63.77 63.69 62.71 61.89 61.58 61.62 59.68 60.26 60.44 57.35 55.76 55.58 56.10
57.66 58.96 60.92 61.05 63.05 65.20 64.73 65.10 64.78 63.84 64.03 64.55 66.03 65.81 65.30 64.84 63.72 63.81 64.11 62.94 62.11 62.29 63.18 61.81 61.90 62.58 62.02 61.63 59.61 58.89 54.43 53.91 54.40
57.07 57.17 58.61 60.66 62.21 65.21 64.97 64.60 63.84 61.79 62.63 63.78 64.33 64.72 63.82 60.93 61.66 63.63 62.45 59.68 59.64 60.87 62.18 61.68 59.87 59.64 58.96 59.02 58.01 53.95 53.66 52.95 53.64
60.35 60.49 61.11 61.76 61.43 65.44 63.18 63.02 63.23 61.96 62.15 63.81 63.44 63.29 61.48 61.25 62.15 62.51 61.68 60.02 58.73 59.00 60.65 60.49 59.24 58.46 57.76 57.14 55.17 52.28 51.62 51.24 51.72
60.51 60.94 60.74 62.22 62.69 61.42 60.57 61.88 62.99 62.65 63.64 63.43 63.37 61.59 60.80 61.17 61.24 60.62 61.97 61.08 60.08 62.02 60.65 59.12 58.26 58.34 57.40 53.74 50.77 49.57 49.16 49.51 48.29
61.13 60.51 60.68 62.06 61.08 60.54 60.73 62.55 62.51 62.31 62.13 62.47 61.69 61.32 61.06 60.21 61.41 59.81 60.56 55.53 53.94 57.42 53.48 53.50 56.80 55.17 53.91 51.17 48.39 48.11 46.31 46.42 46.84
59.32 58.62 59.70 60.38 59.34 59.59 60.04 60.89 60.60 61.46 61.55 61.13 60.19 59.20 59.77 59.29 59.35 61.52 60.05 53.64 49.37 46.22 46.43 43.51 42.72 46.24 48.89 45.85 46.25 44.38 42.09 40.74 40.30
58.17 58.71 59.00 59.23 59.35 59.59 59.22 59.00 59.26 59.30 59.15 58.77 58.47 58.68 58.55 58.77 57.43 58.42 54.42 52.79 50.85 48.88 46.69 43.38 41.14 41.37 42.29 43.29 42.87 41.93 40.93 40.22 40.11

GFSFLT1_sfc_wetblb_006.txt.gz
Wetbulb
63.32 64.50 65.50 65.77 65.69 66.35 66.98 68.21 68.93 69.84 69.88 69.87 71.39 72.07 71.77 71.42 68.96 65.16 64.83 64.68 63.51 62.85 63.22 64.54 65.39 64.70 64.94 63.17 63.83 65.10 66.15 65.27 65.17
61.21 63.69 65.07 66.08 66.59 66.86 67.27 68.11 68.89 69.91 70.33 70.69 70.97 71.34 71.14 68.47 66.50 63.75 63.66 64.01 63.62 63.11 63.38 63.84 64.30 64.03 63.99 63.35 63.66 65.75 65.68 64.95 64.96
60.61 62.80 64.77 65.88 66.99 67.32 67.88 68.58 69.54 70.24 71.01 70.83 71.08 70.67 69.40 67.74 65.20 63.42 62.87 63.14 63.06 61.95 62.07 63.31 63.81 63.86 63.41 63.74 63.76 65.00 64.88 64.17 64.49
59.85 61.26 63.65 64.85 67.08 68.30 68.58 69.03 69.42 70.13 70.81 71.16 70.86 69.63 68.06 65.93 63.59 63.38 63.19 63.35 63.68 62.55 62.07 62.66 63.25 63.27 63.22 63.70 63.79 64.45 63.82 63.86 64.26
57.81 60.89 63.37 64.46 66.70 67.90 68.12 68.47 69.11 69.94 70.74 71.18 71.68 70.34 67.10 64.96 63.86 63.79 63.59 63.49 63.66 63.33 62.74 62.63 63.05 63.38 63.73 64.19 64.41 64.28 63.51 63.73 64.90
57.49 60.02 61.57 63.43 65.23 66.55 67.20 67.46 68.75 69.74 70.53 70.98 71.70 70.57 66.10 64.71 63.83 64.26 64.08 63.99 63.69 63.25 62.55 62.35 62.70 63.62 63.53 63.38 63.05 62.39 62.63 63.77 63.93
56.57 59.04 61.12 62.42 63.51 64.86 66.08 66.44 67.47 69.14 70.13 70.87 70.84 69.17 66.31 65.05 64.28 64.41 64.70 64.50 63.84 63.31 63.09 62.70 62.57 63.09 62.72 62.33 61.69 62.19 62.97 63.44 63.29
57.38 56.82 58.31 61.03 62.83 63.63 64.35 64.88 65.86 67.93 69.32 70.37 70.28 67.94 66.79 65.98 65.71 65.47 64.94 64.63 64.57 64.17 63.01 63.11 62.87 62.44 62.24 62.41 62.21 62.41 63.19 63.44 63.14
57.14 57.64 58.41 59.49 61.71 62.74 63.24 64.19 64.52 67.21 68.42 69.48 70.37 68.79 67.37 67.56 66.37 65.93 65.54 65.50 65.36 63.88 63.16 62.59 62.78 61.83 62.35 62.21 62.63 61.11 61.81 63.85 63.44
57.96 58.10 58.90 58.34 59.13 60.84 61.95 62.71 64.52 66.05 67.91 69.78 70.00 69.42 68.65 67.90 66.42 65.30 64.12 64.55 64.97 63.72 62.85 62.52 62.48 62.48 62.65 62.44 63.33 59.43 59.73 62.09 63.62
56.93 57.56 58.67 58.63 58.51 60.01 61.31 62.21 63.92 65.85 67.40 68.85 69.74 69.29 69.03 67.41 66.10 65.14 64.15 63.41 63.12 64.19 62.80 62.17 62.37 62.48 62.72 62.52 62.76 58.57 58.38 60.73 63.42
57.27 59.00 59.87 61.36 61.61 61.17 61.55 63.17 64.76 65.72 66.91 68.32 69.07 68.78 68.13 67.12 66.43 65.36 65.23 64.69 63.23 63.60 63.13 62.88 63.57 63.41 62.93 62.22 62.86 58.16 57.42 59.32 62.10
56.30 57.81 59.36 60.96 63.02 63.38 64.01 64.08 65.86 65.65 66.00 67.24 67.78 68.24 67.90 67.46 67.30 65.47 63.80 64.51 64.25 63.46 64.00 63.45 64.52 63.49 62.44 60.43 62.03 57.75 57.31 57.99 61.22
58.47 59.83 61.51 62.88 63.74 64.52 64.65 65.28 66.09 65.32 64.86 65.90 67.46 67.50 67.74 67.90 67.37 66.45 65.34 63.82 63.26 62.60 63.56 63.49 62.82 61.08 60.02 62.10 62.21 62.01 56.59 54.24 59.26
59.16 59.63 60.86 61.76 62.01 64.22 66.22 65.56 65.82 64.55 64.76 65.80 66.21 66.09 65.18 64.75 64.68 65.17 63.05 61.39 61.62 62.08 61.59 60.60 61.39 61.43 59.37 58.08 60.81 56.67 55.81 52.55 54.82
59.75 60.87 61.46 63.46 63.85 64.34 64.37 64.81 65.74 63.88 63.24 64.81 64.27 62.52 62.17 62.75 62.89 63.02 62.45 61.43 61.27 60.93 61.22 60.36 60.90 61.39 60.95 61.50 59.12 56.77 51.85 51.66 50.63
59.88 60.87 61.48 62.58 62.64 61.62 61.47 62.81 63.27 63.23 63.97 63.82 62.64 61.64 61.96 62.50 62.32 61.37 61.03 61.56 62.06 60.95 60.00 59.80 60.74 61.29 60.47 59.60 56.79 55.46 53.90 53.31 52.87
60.00 59.83 61.22 61.72 61.23 61.16 62.05 62.74 62.24 63.50 63.30 62.72 61.92 61.54 61.33 61.20 60.75 61.52 61.44 60.75 58.08 59.70 56.81 56.89 60.59 59.70 59.48 57.10 54.70 53.28 50.23 50.42 51.85
59.40 59.93 60.92 60.04 60.00 61.32 61.29 61.60 61.77 62.59 63.41 63.97 63.13 61.73 60.73 60.10 60.40 60.92 60.44 54.22 51.76 45.73 44.69 44.64 43.99 44.70 52.05 51.90 48.03 44.05 42.72 41.26 40.75
57.78 60.15 60.98 60.66 59.71 60.03 60.42 60.76 61.57 62.33 62.20 62.63 62.37 61.48 58.79 58.06 58.31 59.71 57.35 55.57 53.60 52.56 47.97 42.53 41.90 42.27 42.17 43.37 42.79 41.32 40.61 39.75 39.82

GFSFLT1_sfc_wetblb_009.txt.gz
Wetbulb
66.44 66.84 67.77 68.32 69.23 70.47 70.75 71.35 72.11 72.68 74.00 74.65 74.37 74.66 76.11 76.41 76.61 75.60 74.80 74.06 72.22 71.78 71.94 71.31 71.25 71.02 71.32 71.84 70.53 69.90 70.58 69.84 69.82
65.42 66.64 67.95 68.43 69.67 70.22 71.25 71.81 72.74 73.50 74.10 74.66 74.43 74.50 76.02 75.78 76.23 75.64 74.57 73.64 72.35 71.97 72.30 70.34 70.78 70.85 70.89 70.08 68.54 69.54 70.68 68.73 69.39
65.37 67.17 68.14 68.92 70.24 70.61 71.80 72.09 73.06 73.69 74.36 74.60 74.88 74.66 75.53 75.41 75.67 75.38 75.23 73.44 70.95 70.97 71.06 70.46 70.43 70.40 69.88 69.10 68.70 69.03 69.98 68.96 69.28
65.30 66.66 68.21 69.47 70.51 71.14 71.96 72.42 72.79 73.24 73.44 74.47 74.33 74.72 75.72 75.68 74.96 74.11 74.40 72.57 69.57 69.05 70.31 69.94 69.94 69.78 69.02 68.87 68.51 68.95 69.13 69.15 68.76
65.05 67.45 68.51 69.22 70.07 70.82 71.15 71.74 72.18 72.62 73.18 73.34 74.85 75.60 75.54 74.57 74.25 73.65 70.83 71.74 69.22 70.65 66.23 69.47 69.29 69.27 68.98 68.84 68.69 69.11 69.09 68.35 67.50
64.46 65.70 67.10 68.79 69.49 70.59 70.85 71.61 72.83 72.62 73.51 73.41 74.21 75.16 74.30 73.74 72.36 71.38 72.59 68.56 68.51 68.34 68.26 68.79 67.98 68.46 68.40 68.43 68.73 69.17 69.47 68.74 67.75
64.24 64.58 66.91 67.90 68.88 70.87 71.96 72.76 73.08 73.33 73.52 73.94 74.26 74.24 73.95 73.10 71.96 72.37 69.43 68.29 69.64 68.46 67.10 68.23 68.20 68.02 68.74 68.72 69.03 68.73 68.10 67.27 67.60
63.13 63.82 65.33 67.34 68.35 70.57 71.99 72.66 72.94 73.22 73.30 74.51 74.94 74.86 73.97 73.21 72.43 71.93 72.08 69.70 66.70 64.84 65.47 65.81 66.33 67.09 67.42 68.09 67.56 66.86 67.12 67.55 67.93
63.06 63.45 64.89 66.64 68.35 68.88 69.71 71.03 71.47 71.65 72.69 73.56 74.73 74.50 73.51 73.35 72.93 71.55 70.76 68.94 67.52 65.07 64.62 64.79 65.43 65.11 65.76 66.78 66.24 62.15 62.01 65.76 67.60
64.54 64.84 65.17 66.36 68.01 69.22 69.43 69.99 70.89 70.65 71.81 73.15 73.56 73.84 73.47 73.05 72.55 70.88 70.02 68.93 68.31 66.86 65.58 64.74 64.94 64.69 64.65 67.43 68.01 60.88 60.51 62.68 66.79
65.34 66.45 66.77 66.73 66.41 67.87 69.39 70.05 70.25 71.21 71.87 72.91 73.43 73.36 73.17 72.98 72.16 70.71 69.66 69.32 68.74 67.44 65.49 67.21 64.53 65.55 67.12 68.34 67.88 59.61 58.56 61.21 66.25
64.38 64.71 65.78 66.89 67.23 67.73 68.71 68.78 69.90 70.54 71.04 72.05 72.40 72.64 73.02 72.80 71.94 70.26 69.71 69.22 67.43 68.82 66.97 66.32 66.99 66.65 66.80 67.11 66.97 58.57 57.58 61.32 64.28
63.85 65.37 66.88 67.68 67.93 68.35 68.65 69.52 70.22 70.14 70.54 71.22 71.54 72.46 72.99 73.42 71.84 70.98 69.61 68.49 67.08 68.03 67.37 65.96 66.40 66.44 67.87 65.09 68.29 57.33 56.29 60.34 63.24
66.02 66.42 67.28 69.20 70.07 69.84 70.20 70.65 71.53 71.23 71.25 70.99 72.71 73.51 73.28 72.33 71.44 70.83 70.57 68.04 67.91 67.36 66.95 64.54 64.69 66.37 67.25 66.00 65.30 64.75 55.04 55.18 65.47
65.29 65.57 65.81 67.86 68.45 69.21 70.72 71.28 71.81 71.13 70.59 70.96 72.39 72.31 71.76 70.21 70.30 68.52 67.11 66.25 66.30 67.75 66.82 64.17 62.46 64.56 62.79 63.53 65.69 57.37 55.49 54.07 55.10
65.31 66.41 66.98 68.43 68.81 68.75 69.39 70.33 71.28 69.95 69.98 70.58 70.95 70.93 69.46 68.82 69.17 67.59 66.32 65.94 65.27 64.26 64.27 64.22 62.76 62.27 62.19 63.24 63.71 63.38 52.18 51.88 52.16
65.31 66.47 66.80 67.81 67.99 67.78 67.45 68.66 69.03 69.09 68.35 70.05 69.50 68.79 68.04 68.62 68.25 66.82 66.83 66.12 65.81 65.81 64.33 63.27 61.29 63.42 62.85 64.25 64.13 63.94 62.04 59.77 57.39
65.08 65.80 66.12 67.17 67.75 67.48 66.84 68.24 68.27 68.78 68.91 69.00 67.90 67.92 67.26 66.60 66.14 66.37 65.56 62.09 61.76 63.90 64.08 59.33 62.80 62.20 65.06 64.56 63.23 61.98 56.71 56.37 59.16
62.31 63.70 66.12 66.25 66.96 66.94 66.35 67.44 67.34 67.84 68.69 68.32 67.53 66.22 65.35 64.60 64.07 63.95 63.74 60.64 56.41 44.44 44.93 44.28 44.14 44.68 57.11 57.89 49.36 44.76 44.04 43.89 42.43
58.37 61.50 63.01 65.32 65.87 66.28 66.73 67.25 67.16 67.97 68.33 68.17 67.04 66.13 65.30 64.35 62.68 64.29 63.26 61.32 61.37 60.04 49.35 42.29 40.81 42.38 43.98 47.08 44.47 41.24 40.23 39.93 40.03

GFSFLT1_sfc_wetblb_012.txt.gz
Wetbulb
68.57 68.81 68.51 69.21 70.50 71.36 72.50 73.10 74.17 75.01 75.85 77.34 77.54 77.46 77.82 79.17 78.83 77.33 76.73 77.05 73.87 72.62 71.54 71.88 74.02 74.48 72.74 72.44 72.80 72.83 71.48 70.19 69.97
67.04 68.77 68.22 68.97 70.43 71.52 72.45 73.30 74.86 76.12 77.51 76.86 77.08 77.04 77.84 78.55 78.50 78.10 77.31 77.75 76.64 74.26 74.63 72.24 73.79 73.28 72.42 72.03 72.73 71.45 71.34 69.54 70.28
66.73 68.77 69.30 68.69 70.28 71.41 72.59 73.73 74.36 75.40 76.11 76.73 76.89 76.89 77.01 77.26 77.59 78.11 78.15 77.80 76.48 75.99 74.29 73.92 73.32 72.81 71.33 71.91 71.64 70.84 71.25 70.15 70.50
65.97 68.36 69.52 69.92 70.05 71.45 72.87 73.51 74.01 74.79 75.43 76.21 76.28 76.66 77.74 77.50 77.17 77.44 77.85 77.58 77.06 76.06 74.91 74.00 73.03 72.60 71.33 71.48 70.25 70.58 70.73 70.29 69.22
64.94 68.02 69.99 70.85 71.39 71.76 72.19 73.23 73.63 74.11 74.84 75.24 75.95 77.83 78.18 77.03 77.58 77.56 77.06 77.71 76.84 76.42 74.44 73.33 73.13 72.31 71.55 70.59 70.24 70.18 70.13 68.90 68.21
65.97 67.92 69.93 71.14 71.61 72.09 72.42 72.87 74.24 74.18 74.93 74.93 75.39 77.15 76.26 76.11 76.86 76.64 77.29 77.04 76.65 73.11 73.63 71.37 71.21 71.03 69.74 69.90 69.89 69.58 69.95 70.06 69.27
65.56 68.44 69.65 70.89 71.44 72.45 73.13 74.45 76.10 76.30 74.93 75.48 75.67 75.72 76.02 77.00 76.73 76.59 76.28 76.87 75.03 72.26 69.66 70.25 68.20 70.08 69.29 69.32 69.94 69.86 69.33 69.37 69.39
65.53 68.09 68.75 70.05 71.02 73.91 75.27 75.73 76.55 76.10 75.57 76.27 76.69 76.57 76.02 76.81 77.59 77.18 76.34 76.91 74.41 72.37 70.51 70.14 68.86 67.56 67.97 68.47 68.95 68.10 69.91 69.18 68.05
64.19 68.07 68.70 70.11 71.51 72.76 73.54 74.34 75.06 75.27 75.67 75.87 76.67 76.71 76.24 77.67 78.04 77.15 75.87 76.62 73.74 71.50 69.42 69.38 66.96 65.48 64.65 65.48 66.97 63.82 63.21 66.90 67.90
65.24 67.89 69.07 69.95 70.94 72.32 73.82 74.35 75.33 74.91 75.62 76.21 76.15 76.26 76.57 77.08 77.65 76.45 75.54 75.54 73.15 71.41 70.27 69.00 66.33 64.79 64.96 65.85 66.95 61.72 61.39 63.26 66.90
64.27 68.43 69.54 70.50 71.10 72.54 73.77 74.38 74.74 75.13 75.29 75.97 76.06 76.06 76.21 76.66 76.75 75.67 74.56 73.16 72.11 71.87 70.08 68.20 68.35 67.13 67.05 66.98 66.74 61.50 60.17 62.38 67.34
67.67 69.48 71.10 71.53 72.03 73.11 73.83 73.63 74.29 74.49 74.22 74.68 74.77 74.88 75.63 75.97 76.06 75.12 74.01 71.83 69.90 70.37 69.59 67.83 66.86 67.01 68.24 67.84 67.93 58.96 58.21 61.37 67.57
66.55 68.99 70.99 71.35 71.27 72.11 72.69 73.00 73.70 73.36 73.14 73.61 73.98 74.58 75.45 76.26 76.23 75.20 72.82 72.48 71.57 69.77 67.95 66.88 66.18 68.01 68.27 65.70 67.38 58.97 56.34 59.15 65.91
68.70 69.50 70.37 71.44 71.56 71.59 72.30 72.80 72.76 72.71 73.02 73.18 74.49 75.39 75.97 76.28 76.23 74.93 73.37 73.01 71.25 68.93 67.19 66.76 68.18 68.94 68.69 67.02 66.48 66.23 55.78 55.66 66.20
69.51 70.32 70.82 71.59 71.41 71.62 72.77 73.69 73.88 73.64 73.72 75.34 76.00 76.14 75.72 75.82 73.97 72.49 71.95 69.58 68.71 67.78 68.09 69.31 68.43 68.18 68.17 67.67 67.40 60.01 54.69 54.27 56.36
68.06 68.44 68.71 69.82 70.58 71.58 72.63 73.92 74.17 73.89 74.81 75.07 75.29 75.09 74.57 71.66 72.00 70.86 69.94 67.57 66.84 66.29 67.57 66.62 66.60 66.73 65.48 63.84 66.71 66.36 53.58 53.10 53.22
68.14 68.67 68.73 69.77 69.99 70.49 71.41 73.16 73.87 74.09 74.07 74.29 74.17 71.95 69.96 69.87 68.18 67.45 67.76 67.08 66.83 67.08 66.96 66.20 67.27 66.00 65.10 64.25 64.93 65.58 65.10 59.55 59.77
68.10 68.70 69.60 69.98 69.72 70.55 71.43 72.41 72.88 72.95 72.81 73.09 72.23 70.37 69.84 69.46 68.22 68.97 68.02 58.74 59.32 66.57 65.69 59.52 66.55 64.77 62.74 63.61 62.64 64.71 60.76 59.81 64.77
65.84 68.35 69.77 69.91 70.08 70.38 71.07 71.29 71.94 72.57 72.90 73.07 71.78 69.91 70.07 69.51 69.43 68.85 67.73 65.93 63.70 44.71 46.20 45.40 45.36 46.25 56.55 57.82 50.65 46.32 44.58 43.39 42.75
59.65 63.29 64.66 68.23 69.04 69.67 70.51 70.99 70.96 71.58 71.44 71.26 70.75 69.59 69.34 67.37 66.01 67.64 66.31 65.71 64.37 62.77 52.98 43.03 41.25 41.96 43.32 46.78 46.20 42.32 41.32 40.76 40.67

GFSFLT1_sfc_wetblb_015.txt.gz
Wetbulb
66.32 69.11 70.32 69.10 70.18 72.00 73.62 73.99 76.54 77.20 78.25 79.60 80.44 79.90 80.39 80.81 81.04 77.24 76.45 77.71 75.29 73.06 72.72 73.88 78.10 75.41 74.49 72.90 73.30 73.13 73.38 70.89 70.24
63.91 68.20 69.85 69.63 69.89 70.72 72.75 73.90 75.94 76.95 78.44 79.37 80.01 78.17 80.63 80.62 80.53 80.07 77.22 78.81 78.71 75.52 76.43 73.69 74.71 75.36 73.75 72.74 72.90 73.07 73.19 69.96 71.35
63.87 67.27 69.77 69.93 69.78 70.55 72.68 73.13 75.01 77.07 78.26 78.95 78.82 79.31 79.65 79.31 79.89 80.74 80.40 80.68 79.82 77.79 77.51 76.74 76.57 74.69 73.59 72.99 72.72 72.57 72.62 71.87 71.73
63.63 66.02 69.19 70.04 69.96 70.66 72.02 72.68 73.90 75.12 76.34 78.04 78.35 78.88 79.12 79.19 78.81 79.38 80.28 79.88 79.53 79.34 76.77 77.41 76.00 75.47 73.32 72.32 72.40 71.53 71.50 71.60 70.87
64.43 65.86 68.66 70.29 70.44 70.72 71.27 72.25 72.32 73.45 74.78 74.66 77.01 78.17 79.18 78.97 79.55 79.28 78.91 79.55 79.88 79.88 78.11 77.26 76.21 75.18 73.61 73.02 71.41 71.89 70.79 70.15 69.78
64.43 65.79 67.18 69.79 70.71 70.76 71.38 72.02 73.29 72.58 74.25 73.61 74.86 77.54 77.59 78.63 78.45 79.19 78.66 79.59 79.80 79.68 78.22 77.46 74.37 74.53 71.76 72.47 70.20 69.24 69.44 71.01 70.56
64.13 64.88 69.28 69.26 70.69 72.38 73.02 74.05 74.63 74.70 74.15 73.76 74.50 75.43 75.73 77.19 78.22 78.51 78.89 79.91 79.47 79.56 78.96 76.65 73.63 74.38 73.11 71.68 69.10 69.34 68.56 69.54 69.14
63.27 63.71 67.38 70.23 71.10 74.66 75.79 75.57 76.12 76.33 75.85 76.28 75.67 76.46 76.24 77.08 78.70 79.24 79.43 79.17 79.69 79.49 77.93 76.09 74.48 73.66 72.86 71.32 69.39 68.37 66.77 69.21 69.06
62.61 63.34 64.68 70.18 71.47 72.90 76.08 76.23 77.13 77.38 77.24 77.66 77.50 78.04 77.45 78.53 79.69 79.32 79.13 79.47 79.56 79.17 77.80 75.97 74.58 72.81 71.59 68.93 67.31 63.34 64.75 68.87 69.00
63.04 63.42 65.25 67.83 71.11 72.34 75.01 75.47 77.95 77.57 78.42 78.34 78.53 78.82 80.18 79.64 80.48 79.90 79.98 79.67 79.23 78.08 77.07 74.76 73.07 72.27 70.58 69.20 68.04 62.24 62.47 64.13 68.49
64.02 65.68 66.76 67.47 70.71 72.72 75.60 75.51 75.71 77.48 77.34 79.07 79.31 79.76 79.36 80.62 80.48 80.46 80.02 78.97 78.31 76.96 74.62 72.14 72.45 71.82 70.00 68.21 68.84 62.17 61.26 63.37 66.94
65.10 64.82 66.79 67.69 71.96 73.19 76.93 76.63 78.16 78.14 77.30 78.19 78.49 78.64 79.11 79.71 79.96 79.44 79.31 77.77 76.77 74.55 72.76 71.23 69.80 69.74 68.78 68.46 69.96 60.26 59.32 62.05 65.11
64.12 67.41 67.89 68.89 72.83 73.71 75.66 77.22 76.35 76.85 75.59 76.20 76.53 77.60 77.81 79.26 79.24 78.89 77.77 76.68 75.03 74.65 73.41 70.74 69.17 68.24 67.73 65.13 70.10 59.28 58.09 61.23 66.89
66.39 68.49 69.33 73.33 73.89 75.29 76.51 76.49 75.97 76.59 76.29 75.39 75.98 76.49 76.57 77.67 78.17 78.41 78.11 77.04 74.95 73.66 72.57 70.51 69.21 67.51 68.90 69.99 69.49 68.38 55.55 55.85 66.23
69.14 69.38 71.07 72.87 73.60 74.12 75.54 76.55 76.48 76.83 76.13 77.52 78.22 78.09 77.36 77.52 78.16 76.61 75.38 74.75 73.46 72.28 69.84 67.48 66.77 67.51 68.06 70.33 71.89 61.62 55.05 54.47 56.59
70.87 71.42 71.72 72.49 72.89 73.50 74.74 76.28 76.45 76.26 78.66 78.95 78.56 77.32 77.74 77.35 76.01 74.32 74.00 72.63 70.89 69.45 68.34 66.47 66.15 66.73 68.81 69.58 68.22 70.12 54.40 53.85 54.58
70.07 71.16 71.60 72.40 72.48 72.64 74.66 76.73 76.79 76.77 76.39 76.95 76.56 76.27 73.91 73.32 72.22 71.03 71.25 70.99 69.75 67.83 67.19 66.80 67.12 67.31 67.67 67.63 67.26 64.79 66.67 65.09 60.78
68.76 69.30 69.81 70.99 71.08 71.62 72.41 73.98 74.34 74.87 75.40 76.01 74.39 71.75 70.24 70.02 69.60 69.92 67.55 63.80 64.55 67.84 62.67 62.59 67.98 67.33 68.12 66.64 65.72 66.09 58.69 59.27 63.08
68.86 68.73 69.50 69.71 70.62 71.54 72.68 73.37 73.49 74.33 75.19 74.32 72.29 70.94 69.98 70.07 69.47 67.42 66.07 63.54 62.44 45.74 47.53 44.62 44.18 46.37 59.52 59.42 51.11 46.29 44.98 44.38 46.76
61.17 67.24 69.19 69.48 70.04 71.00 72.24 72.18 72.32 73.37 74.11 73.70 72.97 72.17 72.09 70.68 69.13 68.44 68.48 68.15 67.27 64.93 53.46 44.47 42.96 43.64 46.60 49.70 47.33 42.94 41.97 41.90 42.24

GFSFLT1_sfc_wetblb_021.txt.gz
Wetbulb
65.10 65.56 66.07 65.60 67.08 68.25 69.34 70.38 72.04 73.83 74.02 73.88 75.12 75.14 75.06 74.54 74.67 73.29 72.91 73.18 71.35 70.08 70.24 70.32 71.36 72.14 70.08 68.65 67.89 69.83 69.14 67.06 66.84
63.37 63.36 66.71 66.41 66.79 67.98 69.19 70.04 71.94 72.50 74.45 74.38 74.83 75.32 75.63 74.94 74.42 75.08 74.75 72.91 73.63 71.07 69.29 71.45 71.60 72.44 70.27 68.85 68.21 67.84 68.54 67.05 66.42
62.06 63.16 66.17 67.08 67.02 67.90 69.51 70.47 72.04 73.06 74.96 74.66 75.17 74.54 75.89 76.06 75.40 74.95 74.95 73.43 72.86 72.21 70.20 71.95 71.11 72.06 70.54 69.69 68.58 68.17 68.38 66.14 67.56
60.36 63.96 65.21 67.26 67.86 68.42 69.92 70.85 71.64 72.56 74.33 74.70 75.12 75.45 74.92 75.74 76.26 75.38 75.13 74.39 73.43 72.66 72.29 71.18 71.40 71.50 70.84 69.00 68.76 69.27 68.09 65.98 65.65
60.46 61.43 66.56 67.65 68.07 68.54 69.92 70.14 70.61 72.26 74.72 74.80 75.52 76.17 75.62 74.98 75.73 75.90 74.81 74.34 74.30 73.95 72.10 71.76 72.33 71.75 70.86 69.44 67.70 68.74 68.51 65.85 66.54
61.52 61.55 64.66 67.23 67.49 68.50 69.55 70.17 70.43 71.89 73.77 74.96 75.74 76.18 75.77 75.50 75.03 75.53 75.40 74.58 74.78 75.17 73.28 72.98 72.06 72.17 70.74 69.34 68.52 68.40 69.07 66.80 65.43
61.67 62.87 63.21 65.39 67.11 68.02 69.22 70.12 70.67 71.14 72.62 74.84 75.54 76.04 75.52 75.15 75.28 75.42 75.65 75.83 74.72 74.97 75.09 73.23 71.45 71.57 70.76 69.59 68.42 68.50 67.85 66.28 65.33
60.27 61.58 64.47 64.25 66.40 66.80 68.11 68.98 69.95 71.14 72.04 72.86 74.87 75.02 75.16 74.68 75.36 75.85 75.80 75.42 75.93 74.91 74.96 74.07 72.58 71.13 70.35 69.46 68.15 68.52 66.51 66.64 66.01
57.82 59.98 64.82 65.35 66.51 66.95 67.28 67.99 68.84 70.13 71.44 72.21 73.24 74.27 74.25 74.69 74.40 74.82 74.62 74.97 74.81 75.55 74.32 74.67 72.79 70.94 70.49 69.19 69.01 65.83 65.36 66.99 66.51
58.42 59.93 64.71 65.11 65.23 68.36 67.84 68.65 69.35 69.70 70.93 72.24 72.37 72.50 73.74 73.86 73.91 73.83 74.12 74.39 74.27 74.80 74.90 75.08 74.02 72.39 70.55 69.93 69.20 63.79 63.52 66.10 65.76
56.57 61.74 63.21 66.53 67.68 67.28 70.13 70.01 69.97 70.37 70.53 70.96 71.32 71.02 72.13 73.28 73.27 73.48 74.14 74.16 74.28 74.20 75.28 74.64 74.50 73.41 71.18 70.46 69.36 63.06 62.65 65.00 65.12
57.50 57.00 59.58 61.43 66.55 68.39 69.20 71.12 70.91 70.21 69.77 70.35 70.10 69.98 70.56 72.22 72.95 73.17 73.50 73.71 73.80 74.66 74.49 74.72 74.76 73.54 71.51 70.52 67.29 60.28 60.59 62.70 63.81
61.21 60.76 60.22 60.84 62.67 65.50 69.71 69.01 72.04 70.46 69.72 69.83 69.75 70.05 71.57 72.30 72.78 73.09 73.39 74.07 74.06 74.84 74.87 74.33 73.28 71.08 70.59 66.85 67.16 59.20 58.53 60.43 63.33
62.29 63.18 59.97 60.76 61.80 64.29 69.47 69.43 72.05 71.39 70.55 69.91 71.61 72.51 72.71 73.45 74.30 74.02 74.72 74.51 75.03 74.71 73.20 71.11 69.79 68.98 68.56 67.61 66.58 62.64 57.02 56.92 63.68
61.47 62.89 64.16 61.95 60.85 66.92 69.57 71.07 72.39 71.69 71.67 72.56 72.32 75.36 74.77 76.66 76.64 76.79 76.88 75.49 74.07 72.61 71.21 69.99 68.38 67.25 65.94 66.29 66.44 61.20 55.98 55.97 57.76
66.96 67.01 68.49 71.25 71.60 71.95 72.07 72.39 73.25 72.06 74.15 75.29 75.49 75.23 75.45 75.57 75.13 75.73 74.56 72.79 71.09 69.93 69.60 68.28 67.34 66.49 65.70 65.40 66.30 64.99 56.86 54.61 55.23
68.76 69.87 69.76 71.03 71.91 72.33 73.02 74.27 74.53 74.90 74.65 75.01 74.77 74.44 74.06 72.94 72.73 71.63 71.64 71.00 70.04 68.78 67.54 66.66 65.91 65.07 64.90 64.81 65.32 63.58 59.30 57.73 56.90
66.89 68.23 69.89 71.62 72.71 72.58 72.45 73.68 73.86 74.13 74.55 74.85 72.92 72.02 70.99 70.29 69.12 65.69 60.33 54.40 59.76 66.75 61.07 64.13 66.26 65.44 65.19 64.92 63.80 63.38 59.66 58.83 59.48
63.35 67.02 68.01 67.94 70.04 71.14 72.00 73.21 72.47 72.42 73.06 72.16 70.12 68.60 68.40 66.64 65.96 63.66 61.77 59.69 55.75 46.77 46.56 46.25 48.34 53.12 60.95 56.13 54.27 52.62 49.60 49.74 51.12
58.59 61.39 66.55 68.12 67.39 68.28 69.32 70.31 70.57 70.92 70.68 70.00 68.93 67.20 66.64 66.35 64.93 64.64 63.38 62.22 59.79 56.06 50.60 45.84 44.48 45.49 49.60 51.55 47.15 46.56 45.00 44.48 45.67

GFSFLT1_sfc_wetblb_024.txt.gz
Wetbulb
62.97 63.02 64.59 65.43 66.07 67.23 67.56 68.50 70.08 71.39 71.11 70.87 72.46 72.41 72.73 72.51 72.13 72.22 71.74 70.93 70.91 71.99 71.88 70.36 71.34 71.55 69.56 67.72 67.05 67.24 66.51 64.80 65.33
62.55 63.02 63.75 64.81 66.54 67.34 67.84 68.64 70.14 71.39 71.42 71.36 72.58 72.65 72.22 72.79 73.24 72.57 71.94 71.07 71.12 71.19 70.92 69.92 70.95 70.85 68.95 67.47 66.75 67.91 67.26 65.09 64.76
62.98 63.75 63.92 64.70 65.01 66.89 68.45 69.00 70.73 71.85 72.31 71.85 72.62 73.47 73.22 72.85 72.70 73.68 73.15 72.55 71.76 70.46 69.38 70.12 70.22 70.58 68.92 67.65 66.25 67.09 67.08 65.40 64.80
63.35 64.14 64.62 64.93 65.00 66.92 68.11 69.27 70.84 71.87 72.28 71.99 72.80 73.34 73.63 73.67 73.28 72.87 73.73 73.94 72.57 71.81 69.95 69.72 69.77 70.72 69.36 68.00 66.67 66.14 67.01 65.52 65.67
63.61 64.37 63.79 65.82 65.65 65.97 67.35 68.60 70.25 71.21 72.98 72.62 73.07 74.01 74.13 73.95 73.89 73.72 73.15 73.49 73.45 72.48 70.94 70.07 70.14 70.30 69.80 68.72 67.61 66.65 67.05 66.16 66.02
59.61 60.48 60.93 64.29 66.09 65.65 66.75 68.20 69.41 70.96 72.70 73.13 73.58 73.74 73.70 74.19 74.36 74.02 73.39 72.91 73.45 72.63 72.04 70.44 70.60 70.23 70.05 68.75 67.84 67.62 67.27 67.08 65.70
60.08 60.70 62.37 64.27 65.83 65.86 67.09 68.31 69.20 70.59 71.83 73.78 73.99 74.07 73.60 73.02 73.96 74.67 74.41 73.94 73.24 73.19 72.97 70.92 70.58 70.35 70.14 69.50 68.00 66.99 68.08 67.63 65.81
59.13 59.20 61.77 64.33 64.90 66.05 67.30 68.01 68.92 70.27 71.89 73.39 74.11 73.86 73.84 73.41 73.84 74.43 74.98 74.31 73.64 73.18 73.77 72.55 71.03 70.61 70.20 69.54 68.60 67.85 66.85 67.25 66.18
57.39 59.96 61.22 63.82 66.22 66.87 67.01 68.29 68.62 69.61 71.08 73.34 74.13 73.96 73.97 74.42 74.37 74.03 74.01 74.37 74.32 73.42 72.89 74.11 71.24 70.17 70.00 68.52 68.63 65.51 65.33 67.27 66.18
56.50 56.33 61.47 62.76 65.15 66.41 67.81 68.89 69.46 69.16 70.56 73.03 73.58 73.78 74.28 74.23 74.13 74.04 74.09 74.24 74.11 74.30 73.23 72.88 71.95 69.70 69.53 68.46 68.75 63.66 63.84 65.71 65.80
55.70 57.92 59.86 62.43 65.50 66.44 68.22 69.28 69.72 70.34 70.51 71.37 72.65 72.97 73.47 74.19 73.78 73.62 73.97 74.09 73.83 73.82 74.67 73.09 72.91 71.14 70.09 69.83 69.23 62.98 62.07 64.96 66.76
54.52 56.95 58.74 61.74 65.62 66.68 67.08 67.32 68.67 69.23 69.69 70.43 70.91 71.50 72.72 73.49 73.76 72.99 73.40 72.89 73.23 73.74 74.03 74.24 73.71 73.41 70.88 69.91 69.34 61.36 60.23 64.03 65.91
58.65 58.72 58.46 57.47 64.28 66.12 66.87 67.15 68.28 68.37 68.51 69.65 69.75 70.86 71.33 73.26 73.70 73.09 72.67 73.07 73.10 73.87 74.11 74.03 74.22 73.78 71.88 68.26 70.37 58.74 58.38 63.75 65.35
59.50 59.93 61.57 58.62 56.67 61.95 67.16 69.11 68.28 67.38 68.01 68.34 70.49 71.18 71.32 71.60 73.02 72.83 73.00 72.95 73.41 73.50 73.41 73.68 73.57 72.40 70.57 69.82 67.19 60.75 56.52 58.33 64.08
60.52 59.68 61.85 63.04 57.39 56.23 60.20 67.33 69.21 67.77 67.20 69.10 69.97 70.13 69.85 69.81 71.32 72.45 72.57 72.69 73.17 73.18 73.17 72.56 70.23 68.26 67.43 67.61 66.26 59.18 55.38 56.20 58.86
67.84 68.06 68.54 69.28 60.95 57.24 58.34 65.03 69.78 68.59 68.52 69.09 68.95 69.27 68.96 70.33 70.83 71.51 72.73 72.72 73.05 73.01 71.72 70.39 68.42 67.72 66.27 65.64 65.80 63.17 56.26 54.80 55.58
66.53 67.84 68.83 70.07 70.02 68.61 69.53 68.71 67.86 70.01 70.56 70.07 70.62 70.12 71.01 73.07 73.50 73.66 74.02 73.80 73.00 71.94 70.23 68.45 67.32 66.84 65.75 65.55 65.37 64.78 61.37 58.49 55.77
64.07 66.31 67.41 68.42 68.81 70.35 70.53 71.44 72.08 73.15 73.68 72.21 72.97 73.26 73.70 73.85 72.67 71.12 65.42 58.25 64.37 68.65 64.85 66.57 66.53 66.04 65.59 65.06 64.14 62.65 58.23 56.92 57.77
60.01 63.38 65.95 65.53 65.49 65.95 67.95 69.13 70.71 73.14 73.98 73.40 72.03 70.80 68.76 66.79 64.40 62.59 60.96 60.46 56.48 50.36 51.20 51.20 51.02 54.28 60.46 57.89 56.06 50.48 48.30 46.49 47.21
58.37 62.37 64.95 65.67 66.21 67.23 67.91 59.83 58.09 69.44 71.01 71.38 70.40 67.93 66.14 64.78 63.86 64.02 63.49 62.77 61.12 57.44 52.90 46.13 45.55 48.81 50.34 53.87 52.29 47.21 46.12 45.04 45.04

GFSFLT1_sfc_wetblb_030.txt.gz
Wetbulb
62.51 63.85 65.33 65.80 66.23 66.40 66.17 67.81 68.40 69.04 69.28 69.32 70.18 70.13 70.23 71.04 71.24 71.03 71.04 70.56 70.72 70.79 71.06 71.73 73.02 72.80 72.48 71.31 69.94 69.10 67.84 66.68 65.72
60.12 61.05 63.95 65.00 66.20 66.69 66.90 66.90 68.11 69.10 69.40 69.55 70.04 70.50 70.63 70.75 71.19 71.29 71.00 70.90 71.01 71.09 71.59 72.08 72.56 72.83 72.50 71.65 69.91 68.92 67.54 66.38 65.80
59.57 60.85 61.62 64.17 65.44 66.17 66.93 67.40 68.22 69.43 69.97 69.56 70.21 70.81 71.23 71.22 71.36 71.96 71.88 71.18 70.49 70.85 71.42 72.53 71.91 72.43 72.32 71.59 69.68 68.78 67.43 66.66 66.58
59.18 59.88 61.09 62.59 64.61 66.05 66.65 67.33 67.59 68.48 69.44 69.63 69.93 71.33 71.55 71.48 71.50 71.85 71.98 71.00 71.20 71.06 71.49 71.63 71.43 72.00 72.02 71.25 69.71 68.38 67.78 67.08 66.42
58.69 60.13 61.39 62.24 63.96 65.24 65.89 66.20 66.95 67.63 69.05 69.30 69.94 71.23 71.68 71.60 71.73 71.81 71.64 71.20 71.53 71.73 70.96 71.14 71.25 71.53 71.59 71.01 69.98 68.85 67.79 67.13 67.07
55.03 58.76 60.28 61.51 62.19 63.61 64.83 65.53 66.46 67.07 68.39 69.30 69.98 70.46 71.40 71.56 71.32 71.34 71.34 71.43 71.78 71.68 71.26 70.68 70.75 71.07 70.81 70.09 69.56 68.37 68.47 67.99 67.38
55.76 57.40 58.68 59.79 61.01 62.58 64.23 65.32 66.24 66.74 67.92 69.53 70.03 70.04 70.42 70.66 71.15 71.43 71.70 72.23 72.23 71.85 71.95 70.39 70.33 70.46 70.72 70.32 69.67 69.13 68.25 68.13 67.83
53.36 55.89 57.68 59.06 60.54 61.62 62.76 64.62 65.94 66.79 68.00 69.10 70.18 69.84 69.98 70.33 71.02 71.51 71.75 71.86 72.30 72.52 72.39 71.48 70.54 70.45 70.47 70.57 69.78 69.16 68.48 67.81 67.63
50.75 52.14 54.88 57.57 61.16 62.44 61.93 64.35 65.42 66.78 67.98 68.92 70.20 69.76 69.74 70.81 71.18 71.34 71.32 71.58 71.58 71.90 72.34 72.53 71.15 70.27 70.11 69.98 69.91 65.80 64.99 67.73 67.49
50.10 51.09 54.24 56.97 58.98 62.36 63.11 63.94 65.70 66.40 67.82 69.86 69.99 69.96 70.21 70.81 71.26 71.34 71.65 72.07 71.70 71.33 71.47 72.05 71.48 70.83 70.54 70.01 70.26 63.00 63.58 65.72 68.61
51.09 51.67 52.97 56.28 59.01 61.33 64.26 65.02 65.60 67.04 68.38 69.53 69.98 69.94 70.22 71.17 71.54 71.39 71.90 72.13 71.89 71.84 71.74 71.47 71.54 71.23 70.98 70.44 70.45 61.76 61.73 64.88 69.04
52.09 53.26 54.90 56.08 59.33 61.86 63.02 63.66 65.42 66.36 67.41 68.96 70.25 70.32 70.30 71.31 71.98 71.63 71.98 72.02 72.21 72.31 72.08 71.68 71.63 71.74 71.02 70.42 70.71 60.85 60.66 62.94 68.25
53.62 55.18 55.83 57.11 59.34 61.57 61.75 63.83 65.55 66.04 66.59 68.26 69.10 70.88 71.15 71.87 72.20 71.88 71.65 72.00 72.45 73.09 73.11 72.32 72.25 72.10 71.88 68.58 70.95 60.50 58.44 62.62 68.21
56.61 56.82 58.96 59.48 60.54 61.74 62.13 64.20 66.11 65.97 66.56 67.25 69.53 71.22 71.98 72.39 72.69 72.40 72.35 72.27 72.55 72.64 72.97 72.95 72.27 72.09 71.86 71.39 70.43 68.57 56.95 58.32 68.56
61.67 64.58 67.32 65.19 61.96 61.79 57.59 63.69 65.67 65.63 65.69 68.31 70.12 71.43 71.80 72.15 72.67 72.96 73.05 72.69 72.83 72.85 72.77 72.68 72.54 72.23 71.72 71.52 71.76 63.23 56.62 56.56 62.80
66.69 67.60 67.98 68.26 68.77 69.13 69.74 64.86 65.00 64.64 64.82 68.51 68.87 69.20 70.51 71.70 72.50 73.19 73.49 72.66 72.39 72.15 72.67 72.30 72.16 71.74 71.14 71.32 71.57 65.24 55.25 55.64 58.11
64.77 65.47 67.13 68.43 68.04 66.35 65.98 66.88 66.13 66.44 68.19 70.18 67.41 67.68 68.42 69.98 71.02 71.79 73.09 73.09 72.87 72.21 72.02 71.86 71.76 71.56 70.99 71.09 66.44 64.43 60.20 61.07 62.03
63.16 63.39 63.31 63.70 62.40 60.48 59.64 59.88 59.58 60.05 61.24 66.55 67.59 66.24 66.48 67.76 69.28 69.59 71.91 68.03 69.04 72.51 73.20 70.96 72.19 71.95 71.78 68.68 64.41 62.05 58.88 59.22 63.14
61.54 60.48 60.61 62.35 63.96 64.48 62.82 60.59 59.06 58.95 61.64 61.39 64.90 67.89 68.41 67.09 67.99 66.22 63.28 63.48 60.61 50.40 54.41 52.59 53.32 55.31 62.14 63.59 56.95 51.69 51.14 52.41 48.24
60.72 63.09 63.14 63.06 63.35 63.77 64.44 64.73 63.56 63.94 62.83 64.18 64.15 64.98 65.24 64.88 63.66 64.82 64.46 65.22 63.92 60.52 54.17 50.06 50.60 50.42 53.86 55.50 56.56 51.14 49.69 46.25 46.07

GFSFLT1_sfc_wetblb_033.txt.gz
Wetbulb
67.42 67.97 68.57 69.19 70.62 71.66 71.69 71.94 73.08 72.94 73.37 73.60 74.57 74.71 75.03 75.65 76.10 74.96 75.13 75.59 74.50 74.44 74.47 75.36 77.39 77.45 77.35 77.18 76.79 76.07 75.51 74.39 73.07
65.03 67.07 68.39 69.16 70.50 71.28 71.42 71.75 72.53 73.02 73.07 73.56 74.39 74.45 74.95 75.19 75.69 75.86 75.42 76.46 76.56 75.05 76.92 75.52 76.74 77.23 77.09 77.12 76.66 75.82 75.08 73.86 72.89
63.39 65.46 67.11 68.59 70.01 71.17 71.76 71.45 72.71 73.33 73.42 73.42 74.02 74.47 74.77 74.61 75.08 75.88 76.04 76.48 76.15 76.13 76.69 76.59 76.22 76.44 76.69 76.79 76.58 75.69 74.88 73.60 73.32
62.20 64.14 65.68 66.60 69.21 70.91 72.04 72.05 72.06 72.98 73.25 73.50 73.93 74.39 74.72 74.82 74.80 75.39 75.93 75.77 76.17 76.44 76.86 76.67 76.65 76.41 76.29 76.45 76.20 75.75 74.54 74.00 72.98
62.51 64.70 66.38 66.46 67.14 69.16 70.02 71.56 72.00 71.75 72.92 73.25 73.83 74.32 74.63 74.65 75.16 75.35 75.47 75.53 76.04 76.72 76.40 76.50 77.22 76.62 76.30 76.27 76.05 75.55 74.48 73.60 72.73
61.22 62.77 64.46 66.27 66.63 67.59 69.73 70.72 71.24 71.50 72.25 72.63 73.54 74.43 74.38 74.62 74.73 75.02 75.12 75.63 76.07 76.46 76.54 76.60 75.89 76.37 76.16 75.74 75.88 75.28 74.66 74.52 73.22
60.61 62.01 64.84 66.17 66.89 68.63 69.73 70.64 71.02 71.34 71.86 72.82 73.41 73.77 74.30 74.40 74.80 74.92 75.28 75.90 76.12 76.14 76.43 76.39 76.37 76.56 76.43 75.98 75.51 75.38 74.90 74.56 73.79
60.36 60.91 62.99 65.62 66.49 69.17 70.09 70.83 71.42 71.39 72.02 72.91 73.53 73.54 73.72 74.28 75.19 75.83 75.80 75.80 76.02 76.21 76.44 76.31 76.58 76.31 76.51 76.03 75.31 74.61 74.85 74.44 73.76
60.47 59.51 61.89 64.21 67.11 68.25 68.62 70.11 70.64 71.03 71.72 72.21 73.66 73.26 73.02 74.34 75.32 75.62 75.35 75.64 75.73 75.98 76.00 76.11 76.11 76.01 75.93 75.56 74.65 68.39 66.96 72.47 74.09
60.65 60.61 61.63 62.87 64.09 66.68 69.20 69.38 70.93 70.77 71.38 72.57 72.90 73.07 73.73 74.12 74.73 74.94 75.23 75.72 75.84 75.66 75.58 76.09 75.71 75.54 75.70 75.29 75.60 64.46 64.42 66.78 74.09
60.69 61.81 62.23 63.75 62.51 65.44 69.16 69.05 69.04 71.42 72.16 72.19 72.58 73.02 73.60 74.06 74.13 74.39 74.86 75.13 75.00 75.53 75.65 75.75 75.62 75.37 75.39 75.49 75.31 62.97 62.55 65.27 73.40
61.00 62.16 63.59 63.45 63.51 64.59 69.17 69.75 70.98 71.72 71.91 72.65 72.95 73.07 73.53 73.96 73.41 73.08 74.71 74.43 74.73 75.00 75.07 75.33 75.54 76.00 75.82 75.36 75.46 61.70 60.89 64.39 72.25
60.00 60.64 62.30 63.82 63.94 65.49 66.37 68.87 70.03 70.99 70.67 72.07 72.57 73.50 73.76 74.56 74.84 74.61 74.65 74.92 75.11 75.63 75.45 75.03 75.25 75.58 76.23 72.34 75.60 61.23 59.09 64.06 72.73
62.35 63.52 63.63 63.85 64.95 67.60 68.84 69.69 70.34 70.85 71.69 71.78 73.32 73.96 74.33 75.20 75.79 75.16 75.43 76.01 76.09 76.29 75.03 75.06 74.72 75.09 75.78 75.72 74.20 73.50 57.94 58.57 72.89
64.89 67.17 66.55 63.82 65.92 66.35 67.92 70.06 71.16 72.33 72.61 73.64 74.14 74.62 74.86 75.98 76.12 74.87 74.97 75.79 75.05 75.44 75.52 75.68 74.95 74.70 74.42 74.52 75.45 65.25 57.55 56.42 60.39
69.33 70.75 70.79 71.92 71.81 70.33 69.67 70.78 72.13 71.62 72.00 73.20 73.95 74.37 75.05 75.27 75.95 75.95 76.74 75.53 74.65 74.18 75.51 74.53 73.86 73.71 73.08 73.35 73.66 73.67 59.16 56.46 57.32
70.98 69.55 70.44 71.80 71.52 70.39 69.36 70.84 72.00 72.65 73.18 73.32 73.76 73.87 74.81 75.16 75.06 74.79 76.11 75.08 72.90 73.73 74.14 74.07 74.25 73.98 72.97 73.09 73.05 71.46 63.00 61.74 59.63
67.80 67.09 66.54 66.56 65.86 65.12 65.06 66.64 67.16 68.71 71.96 74.34 72.87 72.59 72.66 73.10 74.06 74.01 75.17 75.89 75.53 74.81 76.14 74.15 74.53 74.70 74.42 74.00 68.16 62.80 58.74 59.78 63.52
66.31 66.90 67.82 67.76 67.42 66.94 66.33 66.17 65.88 67.13 68.31 70.48 73.60 72.83 71.65 71.01 71.85 72.63 73.65 73.68 69.19 52.45 51.65 54.45 55.54 57.03 69.08 71.57 57.29 50.82 49.37 48.28 50.10
61.36 66.17 66.59 66.70 64.99 65.72 66.58 67.94 67.66 67.11 69.14 69.64 69.28 69.43 69.58 68.85 67.62 70.79 70.02 69.80 69.35 68.50 62.06 48.47 49.19 50.28 51.37 53.72 53.36 49.55 49.73 49.01 50.46

GFSFLT1_sfc_wetblb_036.txt.gz
Wetbulb
67.10 69.64 71.09 71.35 72.52 73.41 73.72 73.84 75.33 75.69 76.82 77.53 77.92 77.63 78.91 79.50 80.01 76.92 76.79 78.15 76.86 76.34 75.72 76.47 77.95 77.97 78.58 79.05 79.23 79.28 79.24 77.78 76.65
63.72 68.66 70.45 71.46 72.35 73.28 74.08 74.74 75.99 76.61 77.52 77.78 77.45 77.10 78.95 79.28 79.29 78.84 77.59 79.01 79.29 77.50 79.34 77.16 77.66 77.96 78.69 78.95 78.95 79.38 78.95 77.24 76.46
63.51 66.78 69.69 70.79 72.06 73.06 74.15 75.05 75.82 76.77 77.61 77.79 78.10 77.76 77.78 77.84 78.39 79.48 79.53 79.88 79.41 79.29 79.15 79.47 78.32 78.00 78.30 78.74 78.65 78.88 78.87 77.57 77.14
63.65 65.80 68.31 70.14 71.04 72.44 73.46 74.63 75.23 75.50 76.39 77.45 77.36 77.81 78.45 78.45 77.75 78.22 78.56 78.95 79.77 80.01 79.28 80.20 78.92 78.90 77.99 77.72 77.99 78.62 78.36 78.16 77.13
63.82 65.49 66.89 68.69 69.94 71.22 72.56 73.45 74.10 74.55 75.30 75.62 76.11 77.82 78.68 78.35 78.40 78.55 77.98 78.67 79.37 80.40 79.91 80.02 79.73 79.52 78.52 78.07 77.73 78.25 78.11 77.22 76.58
63.09 64.48 66.26 67.78 68.70 69.22 70.84 72.66 73.78 73.87 74.46 74.92 75.74 77.30 76.54 76.79 77.11 77.44 78.39 79.33 79.32 79.95 79.89 80.23 78.34 79.14 79.75 78.47 77.93 78.29 78.16 77.63 77.03
61.27 64.14 65.21 66.12 67.45 68.69 69.72 72.29 74.52 75.53 74.02 74.78 75.24 75.64 75.89 77.16 77.64 78.12 78.31 79.19 79.41 79.64 80.09 79.96 79.73 80.02 80.00 79.38 78.40 78.13 77.75 77.48 77.10
60.38 61.57 63.18 65.16 67.56 69.51 71.70 72.53 74.09 75.61 74.50 75.33 75.52 76.90 75.54 77.16 78.21 78.93 79.08 79.14 79.36 79.73 79.94 79.86 80.16 80.00 79.93 80.15 78.45 76.98 78.47 78.49 77.21
60.26 61.31 61.82 62.93 65.47 69.87 71.80 72.58 73.25 73.82 75.25 75.06 75.87 77.23 76.87 77.94 78.66 79.12 78.97 79.07 79.29 79.71 79.60 79.69 79.88 79.64 79.49 79.31 77.78 69.76 68.22 75.46 77.65
60.41 61.37 62.78 63.88 65.03 67.77 69.87 71.61 73.35 73.51 75.41 75.56 76.29 76.65 77.68 78.06 78.90 78.69 78.98 79.42 79.43 79.16 79.07 79.52 79.28 79.43 79.53 79.32 79.37 65.78 65.57 68.31 77.49
60.66 61.31 62.25 64.12 64.33 65.75 68.09 69.61 69.17 72.25 73.82 76.57 76.46 76.72 77.17 77.97 78.26 78.42 79.15 79.04 78.63 78.98 79.26 79.00 78.97 79.12 79.32 79.26 79.18 65.24 63.35 66.60 76.93
62.31 63.07 63.79 64.57 65.06 65.53 68.91 68.36 69.60 70.53 72.45 74.26 74.99 76.41 76.96 77.70 78.08 77.07 77.69 78.36 78.48 78.56 77.89 78.20 78.53 78.32 79.26 79.00 78.93 63.65 61.60 66.01 75.79
62.69 63.38 64.29 64.52 65.32 65.63 66.40 69.15 69.99 71.35 71.64 73.15 74.83 76.14 76.47 77.70 78.15 78.14 77.71 78.51 78.79 78.96 78.08 77.74 77.42 77.62 79.21 75.19 79.09 63.80 60.04 65.62 75.11
66.77 66.33 65.63 66.83 67.46 66.93 68.47 70.23 71.30 71.44 72.34 72.62 74.84 75.50 75.72 77.27 78.48 78.55 78.75 79.29 79.09 78.67 78.14 77.53 77.91 78.33 78.79 79.29 77.73 77.45 58.33 59.34 75.29
67.69 67.41 65.55 67.53 68.63 68.04 70.15 73.15 73.11 73.11 75.29 75.55 76.17 76.63 75.98 77.47 78.42 76.66 76.54 79.00 79.11 78.83 78.04 77.67 77.66 76.82 75.48 77.58 78.17 68.41 59.55 58.14 63.83
68.56 67.64 68.37 70.90 69.19 70.38 71.93 74.18 74.00 73.67 76.43 76.61 76.59 76.41 77.02 77.29 77.40 77.41 78.23 78.05 77.40 76.39 77.16 75.49 75.69 75.48 74.59 75.42 76.71 78.33 61.40 56.36 58.12
68.40 70.48 72.18 73.22 73.46 72.04 72.94 74.80 75.22 75.69 76.45 76.36 76.12 75.96 76.43 77.09 76.97 76.63 77.30 76.73 76.82 76.15 75.59 75.23 74.64 74.40 72.98 75.28 76.76 77.60 77.60 67.62 62.30
70.53 72.67 73.42 73.89 73.27 72.63 72.92 74.20 75.18 75.98 76.07 75.95 75.52 76.01 76.13 76.36 76.34 76.30 76.73 77.47 76.60 76.23 77.52 74.37 75.30 75.74 75.62 75.16 75.80 76.35 69.95 63.62 64.52
71.40 71.07 70.77 70.35 70.21 70.12 69.82 70.35 70.90 72.10 74.38 76.41 75.43 74.38 74.21 73.92 74.56 75.62 75.58 75.87 76.08 56.54 55.21 50.88 48.18 48.83 60.71 75.35 59.76 52.51 51.99 50.72 50.36
66.42 70.71 70.82 68.93 68.36 69.94 71.33 70.72 70.97 71.83 72.76 72.91 72.56 72.35 73.39 74.11 69.54 72.89 73.35 74.13 74.49 74.19 65.81 49.78 47.97 45.83 47.82 53.60 53.34 48.73 47.46 46.91 48.91

GFSFLT1_sfc_wetblb_039.txt.gz
Wetbulb
66.37 67.79 70.60 71.70 72.59 72.89 73.83 74.24 75.52 75.96 77.81 78.98 79.85 79.57 79.90 80.15 80.50 77.59 77.18 78.38 76.18 75.70 75.39 75.82 80.56 80.48 80.29 80.29 80.34 79.57 80.95 78.42 77.59
64.64 66.82 70.13 71.19 72.48 73.36 74.60 74.66 75.97 76.49 77.66 78.92 79.77 79.51 80.05 80.33 80.24 79.65 77.87 78.94 79.65 78.11 78.77 76.86 79.64 79.95 79.93 79.74 79.97 80.58 80.98 77.36 78.78
63.88 66.04 69.44 71.27 72.11 73.21 74.98 74.86 75.68 77.17 77.95 78.85 79.68 79.71 80.17 80.13 80.64 80.69 80.16 80.31 79.91 78.84 79.86 80.72 80.91 79.62 79.34 79.47 80.18 80.49 80.74 78.65 79.59
63.45 64.64 68.36 70.88 72.19 73.21 74.69 75.29 75.45 76.27 77.23 78.80 79.28 79.81 80.04 80.04 80.23 80.40 80.96 80.16 80.55 80.59 80.83 81.68 80.31 80.59 79.86 79.89 80.02 80.34 80.21 79.53 79.38
63.89 65.59 67.69 70.52 71.40 72.74 73.40 74.46 75.27 75.85 76.82 76.53 78.77 79.12 80.02 79.71 80.40 80.26 79.99 80.24 80.57 81.18 81.00 81.14 81.41 81.42 80.44 80.28 79.85 80.16 80.00 78.66 77.30
64.55 65.79 66.82 68.59 70.31 71.59 71.94 73.07 75.42 75.38 76.72 76.54 76.92 78.51 78.74 79.74 79.73 79.91 79.69 80.28 80.59 81.12 81.10 81.22 80.89 80.58 80.79 80.37 79.83 79.86 80.20 79.64 78.96
63.69 64.69 64.79 67.31 68.62 70.04 70.91 73.07 75.93 76.64 75.59 76.44 77.01 77.49 77.63 78.45 79.34 79.47 79.73 80.28 80.79 80.69 81.28 80.96 80.59 80.73 80.87 80.67 80.46 79.95 79.69 79.63 79.45
62.65 64.02 64.68 65.72 66.65 69.15 72.75 74.44 76.71 77.48 75.80 77.08 76.71 78.15 78.04 78.50 79.76 80.50 80.56 80.18 80.50 80.64 81.07 81.05 81.11 80.63 80.74 81.07 80.37 79.24 79.55 79.05 79.23
60.83 61.62 62.41 64.51 66.54 68.29 69.90 71.81 73.82 76.12 77.44 77.03 77.33 78.44 77.89 78.93 79.88 80.26 80.31 80.46 80.39 80.86 80.60 80.80 80.83 80.62 80.46 80.35 80.14 71.53 68.75 76.21 79.06
61.22 61.86 62.77 63.83 64.77 65.50 68.85 71.21 73.52 73.90 77.07 77.77 77.56 77.66 79.20 78.76 79.76 79.63 80.31 80.64 80.66 80.25 80.38 80.72 80.50 80.39 80.54 80.04 80.41 67.48 66.11 68.66 78.70
61.86 62.52 63.24 64.21 63.89 65.55 69.20 68.72 68.68 73.68 74.58 78.59 78.18 78.58 77.92 79.24 79.21 79.67 80.10 80.29 80.33 80.53 80.67 80.21 80.16 80.36 80.58 80.50 80.35 67.85 63.63 66.44 77.10
62.53 63.14 63.89 64.90 65.38 65.68 70.30 67.58 69.25 70.49 72.24 76.75 78.07 77.92 78.39 78.54 79.72 79.55 80.04 79.63 79.71 80.30 80.22 80.13 79.96 80.34 80.36 80.32 80.27 66.09 62.61 65.22 76.02
67.47 67.98 68.02 68.23 66.86 66.20 66.69 68.82 67.82 68.59 68.81 71.66 77.04 77.61 78.70 79.46 80.08 79.88 79.77 80.26 80.58 80.73 80.47 79.89 79.58 79.63 80.40 76.36 79.99 68.12 61.80 64.87 76.23
67.45 68.71 69.65 70.01 69.82 68.22 70.37 71.09 69.61 72.93 73.06 72.74 75.49 78.17 79.05 79.91 80.14 80.25 80.33 80.53 81.01 80.70 80.25 79.11 79.60 79.42 79.84 80.10 78.63 79.23 60.59 59.50 75.34
67.03 67.91 69.63 70.19 69.42 70.16 71.28 71.97 72.14 75.11 75.71 77.15 79.44 78.95 78.76 79.38 80.13 79.05 78.88 80.53 80.58 80.78 80.03 79.21 79.12 78.94 78.77 79.50 80.14 69.58 62.33 58.32 63.23
66.02 68.87 70.96 70.99 69.07 71.54 72.38 73.40 74.37 76.22 78.54 80.85 80.09 79.62 79.75 79.84 80.23 80.10 80.14 79.71 80.03 78.57 79.28 77.55 77.31 76.87 77.14 77.74 78.56 79.85 62.39 56.97 58.49
65.65 68.95 71.19 72.00 72.52 72.50 73.83 75.00 75.71 76.43 78.28 78.71 79.60 79.42 80.04 80.08 79.77 79.21 79.68 78.36 77.94 77.14 76.56 76.44 75.75 76.07 76.06 76.18 77.37 78.01 78.68 72.91 67.20
65.84 69.27 72.37 74.01 74.34 74.53 74.31 75.90 76.49 77.02 77.54 78.04 76.79 77.32 77.08 77.67 77.43 77.61 78.54 78.60 77.37 77.02 78.54 73.51 76.80 76.30 76.26 75.96 76.02 76.07 69.19 72.18 77.01
67.19 70.64 73.75 73.32 73.45 73.66 73.07 73.94 74.42 76.13 77.71 77.55 77.14 76.25 76.35 76.13 76.56 77.39 77.10 77.28 77.27 55.79 58.91 49.78 47.97 48.51 63.12 73.93 59.72 52.68 50.87 50.32 52.44
67.90 71.77 72.07 72.14 71.96 71.89 72.67 72.48 72.46 73.38 74.40 75.43 76.82 76.56 76.98 74.83 72.24 75.21 75.82 75.51 75.37 74.99 62.87 47.71 46.52 47.59 46.66 45.59 46.17 48.87 47.24 48.33 49.60

GFSFLT1_sfc_wetblb_042.txt.gz
Wetbulb
66.46 68.20 70.24 71.45 72.62 72.58 72.25 72.64 73.65 74.39 75.80 76.15 77.23 77.18 77.32 76.82 77.44 77.00 74.75 76.69 75.23 74.19 75.15 75.88 78.17 77.41 78.64 78.19 78.60 78.44 79.66 78.84 77.80
65.05 67.15 68.99 70.76 72.91 73.17 72.71 72.52 73.24 73.98 74.96 76.22 77.13 76.97 77.67 77.78 76.39 77.67 76.00 75.44 77.53 77.20 76.56 77.70 79.36 78.01 78.22 78.02 78.67 77.99 79.06 77.44 77.69
64.80 66.56 68.69 71.22 72.57 73.24 73.38 73.34 73.77 74.62 75.49 75.99 77.11 77.72 77.58 77.85 77.70 77.43 77.21 76.69 77.19 76.47 78.69 77.73 81.20 78.36 78.03 78.33 78.34 78.72 78.49 77.96 78.17
64.07 66.51 68.41 70.24 72.41 73.71 74.18 74.05 73.86 74.21 74.76 76.31 77.21 77.89 78.08 78.00 78.31 77.84 77.57 77.05 77.39 78.56 77.64 80.28 77.95 79.36 78.39 78.10 77.92 78.10 78.57 77.12 77.04
64.35 66.64 68.99 70.33 72.15 73.17 74.00 73.95 73.99 74.15 74.94 75.65 77.22 78.26 78.37 77.86 78.31 78.76 78.08 77.29 77.53 78.14 78.80 78.31 79.75 79.04 78.30 77.96 77.63 78.22 77.47 77.11 75.69
64.78 66.88 69.31 70.26 71.36 72.25 73.55 74.23 74.44 74.41 74.85 75.31 77.35 78.07 78.46 78.30 78.28 78.09 78.25 78.21 77.72 78.29 77.80 78.98 78.07 79.13 78.74 77.56 77.79 77.60 77.93 77.32 76.70
65.34 67.74 68.66 69.68 70.27 72.03 73.18 74.34 74.79 75.16 75.23 75.78 76.15 77.67 77.91 77.64 78.38 78.44 78.56 78.76 78.83 78.12 78.62 77.62 78.51 78.26 78.11 78.36 78.00 77.91 77.63 77.70 77.48
65.60 67.39 68.03 70.11 70.24 72.57 73.16 74.26 75.03 75.57 76.01 76.23 76.59 75.88 77.11 77.06 77.91 78.87 78.69 78.57 78.87 79.29 78.70 78.87 78.45 78.27 78.82 78.40 78.45 78.24 77.63 77.41 77.27
64.20 65.81 66.45 68.34 69.06 73.22 74.52 76.20 75.36 75.61 75.86 76.68 76.89 76.52 76.38 77.30 77.55 77.91 78.48 78.40 78.37 78.77 78.97 78.73 79.12 78.39 77.84 78.13 78.37 72.21 69.66 75.15 77.19
62.43 61.92 64.62 67.01 69.08 71.86 73.89 74.06 77.54 76.50 76.13 76.60 77.04 76.57 77.53 77.49 77.66 77.74 78.09 78.40 78.44 77.99 78.39 78.86 78.62 78.62 78.50 77.71 78.21 68.71 67.38 69.39 77.18
64.21 63.92 65.05 69.08 65.16 68.53 71.67 69.15 69.44 74.35 77.42 77.13 76.54 77.96 76.95 78.21 78.37 77.68 78.40 78.39 78.12 78.38 78.32 78.41 78.18 78.38 78.57 78.25 78.14 68.11 65.19 67.17 75.97
62.72 64.83 66.96 66.78 67.52 68.12 74.55 73.13 74.71 73.89 74.55 76.81 77.07 76.20 77.93 77.22 78.62 77.89 78.11 78.10 77.93 78.32 78.39 78.27 78.48 78.72 78.52 78.28 78.30 66.13 63.99 65.22 74.59
66.86 67.97 69.58 70.64 70.98 70.89 71.25 73.65 72.66 74.89 73.96 75.30 75.63 76.19 76.38 78.48 77.27 78.15 77.99 78.20 78.34 78.76 78.83 78.57 78.62 78.53 78.86 75.38 78.46 68.44 62.41 64.81 75.77
67.12 68.33 69.62 71.22 71.90 71.68 72.58 73.37 74.03 74.48 75.33 72.50 75.70 77.21 77.52 77.67 78.70 77.64 78.53 78.81 79.19 78.97 78.63 78.60 78.40 78.31 78.70 78.86 77.52 77.54 61.70 59.73 76.00
65.57 66.74 68.11 71.05 71.38 72.50 73.44 73.54 74.21 75.87 75.27 79.38 80.55 77.88 78.12 78.19 79.03 78.19 78.26 78.93 79.39 79.29 78.82 78.19 77.88 77.64 77.81 78.59 78.96 68.91 65.18 58.39 60.79
64.22 66.43 67.69 70.30 72.44 72.25 73.50 73.80 77.35 76.75 77.18 81.00 80.96 81.18 80.32 78.53 79.26 79.15 78.39 78.72 78.53 78.37 78.75 77.83 77.37 77.00 76.88 77.09 78.11 78.82 62.76 58.68 57.99
63.40 65.77 67.24 68.86 71.78 74.39 75.99 80.42 77.36 79.22 79.58 79.91 80.93 79.60 81.04 79.77 79.06 78.43 78.67 78.67 78.41 77.86 77.64 77.51 77.33 76.79 76.29 76.63 77.55 77.74 77.81 72.07 65.09
63.49 66.38 67.45 69.84 72.21 75.85 76.81 77.97 78.83 78.98 80.11 79.89 79.26 80.02 79.40 79.27 78.44 77.97 78.50 77.95 77.20 77.74 78.37 74.86 77.37 76.99 76.41 76.11 76.04 74.67 64.16 68.61 75.02
64.45 66.24 67.67 70.45 74.51 74.71 75.49 75.33 76.49 77.30 78.39 79.83 79.73 78.20 77.45 76.96 76.73 77.55 77.31 77.53 76.61 51.00 53.57 50.61 48.37 49.98 62.73 70.47 54.59 49.09 50.91 54.89 56.65
61.42 65.44 67.58 70.47 73.64 74.01 74.35 74.36 74.14 75.00 76.72 77.77 79.15 78.45 78.26 76.64 74.40 76.99 76.76 76.97 76.69 74.65 55.91 46.34 47.28 46.19 47.06 46.37 45.76 44.74 45.83 43.47 44.92

GFSFLT1_sfc_wetblb_045.txt.gz
Wetbulb
66.79 66.48 67.88 68.16 68.35 68.63 69.00 69.58 70.91 72.09 72.13 72.06 72.75 73.91 72.78 72.17 73.89 72.73 71.92 71.78 71.07 70.17 72.26 73.53 74.13 75.13 75.68 74.88 75.11 74.89 74.97 74.49 74.80
65.10 65.63 67.91 68.38 68.78 68.93 68.89 69.71 71.02 71.53 72.38 72.22 73.07 73.51 73.96 73.05 72.75 74.68 72.16 71.07 72.09 69.79 71.33 73.25 74.61 75.03 75.77 75.13 75.21 74.88 74.42 75.17 73.83
64.06 66.61 68.36 68.92 68.96 69.22 69.61 70.11 71.42 72.02 72.91 72.85 73.21 73.71 74.34 74.44 73.28 72.75 74.56 71.82 71.10 73.07 72.02 71.93 74.43 75.00 74.94 75.20 75.50 75.24 74.43 74.72 74.63
62.11 65.69 68.03 69.35 69.66 70.15 69.99 70.38 71.04 71.60 72.28 73.44 73.83 74.43 74.18 74.87 74.65 73.93 73.80 73.94 71.85 73.48 73.28 74.33 73.69 75.09 74.83 75.02 75.13 75.47 74.64 74.23 73.94
61.19 65.22 67.83 69.77 70.06 70.47 70.04 69.78 70.38 71.00 71.99 73.49 74.35 74.93 74.77 74.58 75.32 75.27 73.68 73.85 74.14 72.26 74.48 74.19 75.21 75.92 75.52 75.61 75.24 75.17 75.08 74.34 74.75
59.26 63.89 66.66 69.21 70.13 70.01 70.07 69.92 69.99 70.63 71.41 72.94 74.14 74.83 74.97 74.90 74.86 75.19 74.75 74.40 73.95 74.71 73.35 75.49 74.42 75.62 75.48 75.46 75.47 75.14 75.01 75.46 74.49
58.98 63.26 65.94 68.28 69.57 70.06 70.65 70.49 70.32 70.45 71.25 72.47 74.28 74.69 75.10 74.96 75.22 75.30 75.67 75.75 75.34 73.79 75.23 74.54 75.80 74.36 75.70 75.43 75.63 75.40 75.50 75.17 75.01
61.12 61.07 65.40 67.18 68.89 69.69 70.57 70.69 70.58 71.01 71.47 72.39 73.15 74.46 75.03 75.27 75.88 75.91 75.94 75.83 76.17 76.08 74.69 75.49 74.99 75.77 75.11 76.20 75.41 75.83 75.27 75.66 75.16
59.24 60.94 63.60 63.85 66.31 68.83 70.24 71.17 71.14 71.39 71.58 71.99 72.95 73.52 74.39 75.54 75.75 76.16 75.87 76.02 75.96 76.26 76.12 75.14 75.79 74.93 75.20 75.35 76.49 70.83 69.36 73.87 75.19
57.20 57.67 59.00 61.60 63.12 65.09 69.30 71.42 72.34 72.14 72.47 73.01 72.69 72.62 73.29 74.80 75.56 75.56 75.87 76.31 76.22 76.05 76.17 76.57 75.37 75.69 75.49 75.28 75.79 67.86 67.18 69.30 75.50
58.30 60.30 60.70 60.26 63.24 62.83 63.10 67.63 72.69 73.02 73.28 72.99 73.01 72.75 72.94 73.47 74.83 75.01 75.54 75.74 75.71 75.97 76.23 76.24 76.41 76.03 76.34 75.94 76.06 67.21 64.94 67.49 75.06
63.15 63.40 64.49 65.06 65.94 66.10 66.18 66.00 64.92 70.60 73.09 73.14 73.01 73.25 73.48 73.97 74.57 74.59 74.97 74.97 75.59 76.05 75.97 75.79 76.09 76.67 76.52 76.26 76.50 65.21 64.03 65.50 73.63
62.78 64.35 65.37 66.41 66.24 66.63 66.18 66.29 67.27 68.42 70.64 72.68 72.21 72.84 74.12 74.98 75.17 75.25 74.92 75.45 75.67 76.26 76.29 76.06 76.25 76.24 76.77 73.59 76.67 66.32 62.08 64.58 74.44
63.06 63.52 63.95 65.42 66.95 67.64 66.98 67.62 66.78 67.24 66.27 67.90 71.95 73.23 73.39 74.88 75.16 75.38 75.89 75.70 76.31 76.20 76.23 76.19 76.01 76.01 76.68 76.87 75.62 75.38 61.25 60.09 74.30
60.05 61.78 63.44 64.63 64.54 66.05 68.26 68.26 66.55 64.11 67.33 67.86 72.09 72.47 72.81 72.82 74.59 74.79 75.66 75.40 76.03 76.36 76.08 75.73 75.44 75.56 75.86 76.79 76.95 66.97 62.76 59.14 61.18
58.82 59.99 62.75 64.09 64.11 66.58 67.83 70.12 67.74 65.78 67.93 72.26 71.82 72.32 73.12 73.49 74.07 75.32 73.41 75.56 75.03 75.99 76.02 75.89 75.31 75.41 75.21 75.66 76.61 76.78 62.27 58.86 58.70
57.51 60.30 61.17 63.38 64.73 66.63 70.14 73.64 73.03 72.73 73.72 73.20 72.44 73.42 72.40 74.49 74.73 74.95 74.34 75.49 76.08 76.19 76.19 75.72 75.62 75.32 74.97 75.24 75.06 75.74 76.38 71.81 64.36
55.00 56.01 61.40 62.14 64.47 65.53 70.15 71.32 73.77 73.64 74.30 73.97 73.93 73.90 75.41 75.20 74.93 74.75 75.05 70.95 65.11 74.34 75.75 73.36 75.66 75.77 75.17 74.60 74.56 70.74 59.16 61.33 70.53
53.21 53.73 53.93 60.82 62.75 65.11 70.28 69.87 70.62 71.33 72.32 72.82 73.15 74.20 74.62 74.53 73.87 74.34 74.89 69.81 61.48 49.58 49.98 49.27 49.74 49.56 65.19 60.11 51.84 46.70 46.54 46.90 49.26
53.42 53.59 53.42 60.18 60.89 65.13 67.60 69.86 69.33 70.25 70.76 72.39 71.66 70.46 73.72 73.22 71.47 73.09 73.86 74.63 72.48 62.42 54.86 46.88 45.26 46.39 46.79 48.46 46.88 45.99 45.81 45.09 45.45

GFSFLT1_sfc_wetblb_048.txt.gz
Wetbulb
66.14 64.26 66.03 66.94 67.30 67.48 67.52 68.91 69.91 69.81 69.59 70.25 71.69 71.77 71.27 71.55 70.84 71.16 70.33 69.31 67.92 68.17 70.23 71.95 72.59 74.36 74.16 73.55 73.91 73.55 73.13 72.55 71.81
64.76 64.90 65.65 67.04 67.62 67.95 68.16 68.61 69.84 70.23 69.78 69.96 71.54 71.83 71.88 72.00 72.00 71.43 71.34 69.63 69.29 67.56 69.63 72.77 72.86 74.13 74.78 73.91 73.85 73.60 73.16 72.82 72.99
65.13 65.44 66.82 66.60 67.42 68.06 68.56 68.92 69.95 71.00 70.80 70.12 70.76 72.19 72.10 71.55 71.74 73.38 72.27 70.63 69.45 71.91 68.90 71.51 72.78 72.94 74.68 74.28 73.88 73.60 72.89 72.74 72.99
64.69 65.57 66.91 66.33 67.80 68.51 68.80 69.28 69.98 70.59 70.96 70.63 70.93 71.49 72.63 72.35 71.57 71.24 73.59 71.68 70.03 70.39 71.36 69.93 71.01 73.11 73.54 74.23 74.01 73.60 72.92 72.47 73.43
65.11 66.16 66.56 66.72 68.17 68.34 68.38 68.63 69.54 69.92 71.15 70.93 71.39 72.17 72.29 72.74 72.82 72.31 70.98 73.21 72.20 71.14 70.83 71.83 71.10 72.96 73.09 73.83 74.03 73.98 73.23 72.76 73.44
64.20 65.66 66.06 66.84 68.03 67.83 68.16 68.20 69.29 70.09 70.80 71.58 71.80 72.24 72.31 72.63 73.15 73.14 72.44 71.50 73.17 72.81 71.27 71.49 72.13 73.86 73.55 73.82 73.86 74.13 74.26 73.58 73.01
59.18 64.98 65.56 67.24 67.74 67.86 68.31 68.45 68.77 69.88 70.60 72.29 72.41 72.77 72.69 72.26 72.93 73.71 73.83 73.38 72.31 73.07 73.16 70.82 72.46 73.26 74.59 74.23 74.61 74.28 74.20 74.31 74.00
60.24 64.49 66.40 67.59 67.76 68.09 68.44 68.34 68.66 69.79 70.75 71.49 73.07 72.97 72.92 73.10 73.36 73.96 74.50 74.31 73.58 73.16 72.86 73.66 72.09 72.75 73.16 74.91 74.78 74.90 74.46 74.18 73.91
59.94 63.45 66.61 67.95 68.40 68.59 68.69 68.76 68.67 69.33 69.95 71.02 72.41 72.68 72.96 73.52 73.88 73.94 73.91 74.53 74.48 73.93 73.51 72.50 73.45 73.42 73.44 73.43 75.19 69.82 68.74 73.11 74.20
57.58 59.95 65.55 67.85 68.43 68.84 69.34 69.39 69.50 68.88 69.65 70.76 71.43 72.43 72.90 73.56 73.74 74.15 74.33 74.49 74.55 74.41 74.31 74.01 72.41 73.27 73.80 73.39 74.09 66.77 66.68 68.76 74.38
61.60 62.34 62.55 62.46 62.59 64.47 68.25 70.16 70.34 70.16 70.13 70.15 70.47 70.81 72.76 73.43 74.05 74.13 74.75 74.52 74.27 74.45 74.98 74.96 74.63 73.54 73.77 74.07 74.08 65.58 64.42 66.84 73.71
61.27 62.50 63.21 63.20 63.91 63.87 64.56 66.02 69.50 70.58 70.25 70.21 70.10 70.29 70.70 73.01 73.71 74.38 74.51 74.30 74.55 74.95 75.10 75.00 75.29 75.46 74.97 74.15 74.79 64.06 62.96 65.06 72.14
60.77 62.28 63.16 63.95 65.59 66.66 64.97 64.25 65.72 68.82 70.38 70.62 70.27 70.62 71.02 71.80 72.81 73.99 74.18 74.53 74.64 75.47 75.40 75.24 75.64 75.41 76.06 72.73 75.16 65.13 61.67 64.46 73.25
60.46 61.32 62.60 63.28 64.17 64.99 65.84 66.33 63.35 64.74 67.54 69.59 71.58 71.84 72.18 72.54 72.48 72.73 74.14 74.34 74.86 74.81 74.92 75.10 74.78 74.88 75.34 75.65 74.53 74.51 60.54 60.09 73.93
58.14 59.60 61.63 63.76 64.69 65.72 67.21 68.29 64.69 62.99 63.78 65.47 68.93 71.57 71.67 72.52 73.48 73.47 74.06 73.68 74.08 74.40 74.43 74.33 74.14 74.19 74.44 75.33 75.67 66.12 60.47 59.19 61.69
53.50 57.37 58.70 62.24 63.34 65.81 68.83 72.58 67.54 69.17 70.37 70.66 71.68 68.55 70.00 70.80 72.39 72.99 73.56 73.66 73.45 73.68 74.27 74.21 73.88 74.08 73.93 74.58 75.50 75.40 61.15 58.86 59.17
51.82 52.79 53.16 58.83 61.83 62.97 65.50 70.23 71.53 71.66 71.92 72.25 72.28 69.92 69.74 70.92 71.09 70.97 71.93 74.06 74.23 74.33 74.38 74.28 74.11 74.14 73.95 74.53 74.44 75.12 75.50 69.37 64.69
50.53 51.22 52.68 55.94 59.55 61.44 63.21 68.39 69.08 70.05 70.28 71.37 71.04 71.76 72.37 72.01 72.28 70.60 71.44 63.13 63.51 71.93 72.18 71.44 74.74 74.74 75.04 74.63 74.26 74.49 67.18 68.71 71.18
50.14 50.90 51.99 53.79 57.57 61.43 63.02 65.08 68.08 68.90 69.34 70.35 69.76 69.36 70.57 72.46 73.07 71.85 68.89 61.97 58.17 49.14 47.89 46.35 49.97 56.68 66.76 58.56 52.87 49.07 48.70 47.98 47.98
51.21 50.34 52.22 55.11 58.18 60.75 62.03 64.65 67.43 68.13 68.44 68.48 68.53 68.12 68.17 67.64 69.73 72.67 71.86 65.96 63.97 60.06 54.55 48.67 45.42 45.26 46.71 49.77 49.41 46.33 46.53 46.71 47.43

GFSFLT1_sfc_wetblb_051.txt.gz
Wetbulb
64.72 64.06 63.91 66.62 66.48 67.88 68.27 68.37 67.77 68.53 68.85 68.70 69.24 69.52 69.74 69.90 69.27 69.13 69.08 68.70 67.71 67.49 68.58 70.01 71.68 72.90 72.85 72.43 72.31 72.09 71.30 70.86 70.81
63.23 63.93 64.50 66.13 67.35 67.28 67.51 67.85 67.82 68.26 68.41 69.31 69.61 69.85 70.21 70.03 69.96 69.68 69.33 68.89 68.56 67.82 67.95 70.62 70.91 71.90 72.93 72.74 72.87 72.49 72.09 71.57 71.22
62.80 63.86 64.93 66.46 67.18 67.01 67.08 68.10 68.57 68.57 69.02 69.30 70.02 70.40 70.48 70.61 70.49 70.52 70.27 68.88 67.81 67.55 67.47 69.73 71.16 71.67 72.50 72.81 72.75 72.93 72.20 71.78 71.64
62.80 63.96 65.16 65.63 66.39 67.80 67.76 68.04 68.93 68.77 68.73 68.88 69.64 70.46 70.70 70.72 70.71 70.74 70.78 69.96 69.53 69.81 68.68 68.63 70.37 71.07 72.18 73.04 72.76 72.91 72.31 71.90 72.11
63.60 64.93 66.04 66.54 65.92 67.47 67.61 67.49 68.43 69.05 69.08 68.84 69.41 70.68 70.71 70.73 70.85 71.37 71.59 70.87 69.79 69.80 69.96 69.44 69.34 71.20 71.68 72.71 73.31 73.05 72.36 71.69 72.29
62.26 64.92 65.91 66.56 66.45 67.01 67.23 67.68 67.85 69.02 69.67 69.55 69.73 70.07 70.58 70.84 70.45 70.08 70.29 72.44 72.52 70.36 69.31 69.13 70.51 70.00 71.70 72.00 72.74 72.87 72.73 72.68 71.99
59.60 63.81 65.42 66.16 66.25 66.57 67.28 67.71 67.76 68.64 69.66 70.41 70.29 70.23 70.18 70.44 71.01 71.12 70.81 70.34 71.41 72.54 71.53 70.28 70.26 71.37 71.56 72.12 72.75 73.02 73.17 72.93 72.31
54.16 58.13 64.23 65.43 66.04 66.46 66.93 67.23 67.58 68.75 69.49 70.48 70.61 70.12 70.30 70.35 71.58 72.12 72.18 71.74 70.90 71.21 72.44 72.33 71.36 71.19 71.87 72.91 73.16 73.45 73.17 73.27 72.85
52.81 58.58 63.97 65.32 65.97 66.93 66.77 67.19 67.54 68.37 69.27 69.88 70.89 70.40 70.17 70.97 71.18 71.96 72.30 72.45 72.38 71.43 70.92 72.24 72.30 70.80 71.04 72.18 73.54 69.26 68.32 72.19 73.12
55.70 61.03 63.96 64.97 65.82 66.99 67.44 67.71 68.14 67.76 69.05 70.19 70.84 70.80 71.11 71.28 71.68 71.46 72.15 72.99 72.98 72.58 71.79 71.53 71.45 72.07 71.79 70.97 72.35 66.10 66.57 68.69 73.70
60.08 60.59 62.45 65.04 66.60 67.77 68.25 68.66 68.62 68.42 69.32 69.68 70.30 71.04 71.42 72.14 72.33 72.25 72.43 72.52 72.96 73.19 73.33 72.46 72.01 71.39 71.64 72.13 72.36 65.35 64.32 66.75 72.87
60.07 61.34 63.01 62.80 64.15 65.89 66.84 68.35 68.55 68.16 68.23 68.77 69.68 70.17 71.24 71.99 72.69 72.26 72.72 72.67 72.74 73.36 73.59 73.58 73.32 73.37 72.13 71.84 72.55 63.08 62.89 65.03 71.89
58.68 62.07 63.38 63.71 65.48 64.01 65.69 65.87 68.77 67.95 67.68 67.88 68.07 69.50 71.18 72.21 72.78 72.96 72.75 73.49 73.57 73.69 74.02 73.74 74.24 74.26 74.46 70.94 73.00 64.18 60.89 63.64 72.18
56.44 58.66 61.66 64.91 68.13 66.61 65.71 62.76 68.71 68.10 68.22 67.92 68.88 69.18 69.77 70.71 73.02 73.11 73.77 73.88 74.13 74.22 73.84 74.24 73.99 73.99 74.59 74.94 73.61 73.22 60.29 59.44 72.16
51.98 52.79 58.89 61.84 66.32 68.70 68.47 63.38 65.47 64.22 66.03 65.74 69.61 69.85 69.39 69.38 70.44 72.20 73.54 73.51 73.81 73.99 73.82 73.58 73.43 73.47 73.65 74.47 74.89 66.10 60.68 59.01 60.88
50.18 51.87 54.07 59.71 61.54 66.12 68.74 70.73 70.93 70.67 69.99 70.23 68.63 68.73 69.37 70.44 71.27 71.71 71.93 72.60 72.68 72.85 73.15 72.95 72.83 73.00 72.73 73.19 74.03 74.30 61.25 58.71 58.83
49.04 50.52 53.01 56.88 59.69 60.68 63.32 68.03 69.08 69.51 70.33 70.84 71.31 71.14 69.96 69.41 69.75 70.52 71.32 72.10 72.40 72.32 72.40 72.58 72.58 72.48 72.60 73.08 73.01 74.08 74.09 67.28 64.63
48.55 49.45 53.54 55.36 58.12 59.05 60.25 64.52 67.33 67.96 69.01 69.14 68.83 69.44 69.98 70.61 70.93 68.72 69.58 64.79 64.09 71.03 72.15 69.65 72.97 73.27 73.46 73.10 72.66 73.58 68.57 69.76 72.84
48.55 48.46 53.44 57.04 58.40 58.35 58.59 60.08 65.14 67.08 67.38 67.80 66.90 66.55 67.62 67.08 68.43 70.62 68.75 62.50 57.68 48.65 47.07 45.39 46.75 52.18 66.21 65.53 55.99 55.08 53.45 52.00 52.73
49.90 50.18 52.72 55.36 56.70 57.17 56.95 57.88 59.57 65.52 67.31 66.91 65.95 64.96 66.12 66.50 64.68 69.02 67.37 64.04 63.03 60.46 54.32 47.11 44.03 43.48 49.10 52.73 53.27 46.20 45.29 45.29 46.56

GFSFLT1_sfc_wetblb_057.txt.gz
Wetbulb
68.12 68.28 68.80 68.87 69.46 70.15 70.63 71.19 71.93 72.02 72.04 72.29 72.99 73.42 73.95 74.99 75.34 73.10 73.09 74.48 73.30 72.92 72.93 74.03 76.67 77.12 77.54 77.79 77.96 77.79 77.62 76.59 76.37
66.85 68.02 68.66 68.95 69.75 70.01 70.78 71.25 71.98 72.14 72.43 72.58 72.83 72.33 73.89 74.39 74.77 74.73 73.84 75.17 74.78 73.63 75.11 73.62 75.34 76.44 76.84 77.34 77.54 77.90 77.82 76.49 76.39
66.19 68.23 69.02 69.55 69.77 70.41 71.07 71.29 72.12 72.63 73.02 72.67 73.24 73.19 73.52 73.96 74.32 74.78 75.00 74.86 74.67 75.20 74.40 74.48 74.63 75.72 76.41 76.92 77.26 77.79 77.65 76.75 77.34
64.46 66.98 68.55 69.46 70.16 71.10 71.46 71.41 72.06 72.40 72.28 73.02 72.97 73.27 73.49 73.71 73.90 73.93 74.28 74.17 74.50 75.38 74.93 74.97 75.09 75.67 75.95 76.31 76.48 77.06 77.20 76.96 77.09
64.39 66.69 68.63 69.73 70.31 70.93 71.07 71.74 72.10 71.79 72.09 71.94 72.58 73.52 73.68 73.48 73.90 74.34 73.63 74.16 74.34 75.55 75.52 74.84 75.06 75.62 75.92 76.18 76.06 76.56 76.45 76.13 75.81
64.47 66.82 68.35 69.62 70.04 70.60 71.03 71.90 72.27 72.15 72.13 71.91 72.42 73.38 72.65 73.04 73.13 73.38 74.14 74.43 74.62 75.07 75.21 75.21 74.47 74.87 75.39 75.51 75.75 76.17 76.39 76.35 76.28
60.68 64.32 67.19 68.75 69.18 70.35 71.42 72.01 72.25 72.62 72.37 72.39 72.52 72.62 72.43 73.24 73.71 74.01 74.04 75.16 75.23 74.67 75.39 75.09 74.94 75.03 75.31 75.37 75.69 75.97 76.00 76.18 76.36
59.81 60.13 62.72 67.45 68.66 70.00 70.94 71.63 72.30 72.98 72.86 73.12 73.03 72.96 73.06 73.20 74.23 74.62 75.01 75.06 75.34 75.15 75.50 75.57 75.91 75.27 75.04 75.31 74.87 74.72 75.84 75.75 76.15
62.16 63.50 64.20 63.96 68.52 69.79 70.56 71.62 71.18 72.05 72.58 72.58 73.54 73.18 73.14 74.12 74.48 74.76 74.78 75.17 75.25 75.63 75.25 75.34 75.60 74.79 74.99 74.92 74.33 68.18 67.19 73.47 75.66
59.44 61.69 63.81 65.61 65.25 68.96 70.81 71.41 71.68 71.27 72.10 73.16 72.86 72.99 73.74 74.33 74.61 74.53 74.70 75.33 75.43 75.61 75.74 75.04 74.67 74.56 74.94 75.31 76.24 65.42 65.05 67.55 75.11
57.51 59.68 61.59 64.30 66.94 66.77 71.79 71.29 71.36 72.38 72.34 72.88 72.67 72.95 73.39 74.27 74.60 74.37 74.86 75.05 74.87 75.22 75.42 75.98 75.70 75.47 75.92 75.58 76.00 65.10 63.44 65.47 73.95
56.84 59.44 62.61 65.54 67.72 68.66 67.79 72.13 72.77 72.49 72.61 72.98 72.97 72.88 73.18 73.79 74.44 74.53 74.90 74.69 74.97 75.34 74.69 74.64 74.82 75.14 75.44 75.53 76.20 63.33 62.57 65.61 74.07
57.47 61.73 64.41 66.59 70.42 69.64 68.10 72.47 72.87 72.29 71.83 72.74 72.53 73.30 73.73 74.49 74.61 74.62 74.59 75.18 75.63 76.17 75.82 74.87 74.78 74.53 75.57 71.84 76.20 65.27 60.61 64.36 73.70
59.61 61.93 64.10 70.14 69.93 70.55 72.37 73.03 72.10 71.85 72.43 72.20 73.53 74.11 73.94 74.96 75.35 75.44 75.74 76.04 76.42 75.85 75.58 75.97 75.84 75.44 76.21 76.00 74.44 74.88 60.15 58.75 73.63
56.39 58.04 61.17 66.44 70.13 69.59 71.65 72.71 72.37 72.09 72.48 74.22 75.28 75.29 74.56 75.33 75.82 74.81 74.89 76.37 75.88 76.33 76.26 75.94 76.01 76.03 75.82 76.56 77.05 66.72 62.42 58.22 59.98
54.57 55.12 55.47 60.20 66.32 67.72 70.85 72.23 72.65 71.95 73.28 74.38 75.03 75.31 75.61 75.46 76.15 75.80 77.01 76.29 75.83 74.90 75.86 75.03 74.90 74.93 75.04 75.54 77.00 77.48 61.32 57.96 57.21
53.02 55.00 55.00 55.67 56.99 59.56 64.51 69.58 71.44 72.77 74.24 74.01 74.22 74.35 75.13 75.36 75.16 74.91 76.33 75.76 75.64 75.25 75.14 74.72 74.86 75.08 75.19 75.76 76.66 77.34 78.09 74.53 69.45
53.17 54.38 55.69 55.51 54.62 55.45 56.88 62.63 67.40 70.43 71.66 74.78 73.82 73.66 73.57 73.72 73.90 74.26 75.23 75.92 74.67 75.51 77.03 73.02 75.61 75.80 76.31 75.89 75.95 76.50 71.27 72.38 77.24
53.47 53.88 55.13 56.39 55.85 55.27 56.11 59.31 61.87 64.76 68.03 71.79 71.91 72.08 73.25 71.48 75.09 72.97 74.18 74.15 69.47 49.29 50.65 48.89 49.08 50.34 63.64 76.07 62.61 56.61 54.15 52.52 52.88
53.12 54.51 54.94 56.47 56.62 57.01 57.80 59.24 59.86 61.93 64.13 67.46 69.40 70.84 70.77 68.79 68.35 74.25 72.40 72.29 72.63 71.91 60.99 46.86 45.45 44.72 47.62 49.44 53.96 53.79 49.62 48.17 47.62

GFSFLT1_sfc_wetblb_060.txt.gz
Wetbulb
70.25 70.68 71.22 71.26 71.00 71.11 71.30 72.40 73.00 73.65 74.72 75.97 76.36 75.87 76.92 77.48 77.84 74.85 75.25 76.16 75.29 74.84 74.32 74.88 77.20 78.29 78.68 78.81 78.99 79.11 78.88 77.47 77.01
67.71 69.52 70.83 71.51 72.32 72.73 72.32 72.22 73.71 74.46 75.35 75.40 75.94 75.23 77.25 77.59 77.48 77.01 75.88 78.21 76.61 75.37 77.64 75.44 76.47 77.14 77.94 78.20 78.52 78.82 78.85 77.43 77.95
66.32 68.77 70.62 71.51 72.19 72.90 73.43 73.18 73.38 73.92 74.42 75.22 75.61 75.62 76.11 76.02 76.21 77.09 77.42 77.11 77.23 77.20 76.47 77.01 76.47 76.40 76.88 76.98 77.56 78.57 78.96 77.94 78.56
64.82 68.32 70.44 71.35 72.32 73.07 73.81 73.80 73.51 73.66 73.96 74.33 74.74 75.56 76.44 76.41 75.91 76.10 76.51 76.06 76.58 76.90 77.01 77.27 77.12 76.63 76.32 76.31 77.30 78.19 78.42 78.32 77.72
64.90 66.65 69.41 71.38 72.04 72.96 73.29 73.66 73.43 73.24 73.99 74.02 74.51 76.20 77.19 76.34 76.67 76.76 75.55 76.11 76.66 77.32 77.11 77.42 77.45 77.44 76.68 76.13 76.62 77.75 77.84 77.33 76.85
64.92 66.21 67.72 70.14 71.51 72.38 72.98 73.42 73.57 73.24 73.80 73.98 74.51 75.63 74.92 75.27 75.42 75.43 76.26 76.68 76.78 77.57 77.04 77.44 77.21 77.24 76.99 76.49 76.31 77.08 77.86 77.74 77.39
63.15 65.67 68.25 69.62 71.02 71.86 73.25 74.00 75.28 75.20 73.76 74.21 74.48 74.65 74.51 75.56 75.78 76.05 75.84 77.52 77.72 76.87 78.11 77.37 77.32 77.50 77.16 76.98 76.63 76.28 76.68 77.11 77.35
62.13 61.85 64.91 68.33 70.44 71.97 74.00 74.63 75.70 75.66 74.43 75.13 75.35 76.29 74.47 75.67 77.30 77.43 77.34 77.80 78.09 77.84 77.99 77.31 77.60 77.46 77.41 77.27 76.56 75.30 76.37 76.43 76.31
63.50 64.24 65.16 65.66 69.53 71.33 72.60 73.67 74.99 75.92 76.24 75.71 76.16 76.99 75.96 77.10 77.78 77.91 77.99 78.36 78.40 78.74 78.48 77.99 77.86 77.22 77.26 76.77 76.14 68.66 66.81 72.91 75.38
62.39 63.55 65.60 67.42 68.92 69.43 71.51 72.92 74.33 74.92 76.54 76.60 76.64 76.94 76.98 77.53 78.03 77.92 78.04 78.41 78.63 78.57 78.35 78.17 77.82 77.28 77.30 77.60 78.13 65.98 64.84 67.24 74.94
62.56 63.97 65.29 66.71 68.02 69.66 70.94 72.30 73.06 74.99 75.33 76.99 76.89 77.16 77.25 77.76 78.11 77.75 78.29 78.41 78.57 78.84 78.12 78.04 77.82 77.33 78.34 78.30 78.05 65.21 63.67 65.64 75.35
62.92 64.86 66.57 68.00 69.64 70.45 71.64 71.87 73.11 74.26 74.23 75.45 75.62 76.78 77.05 77.71 78.11 77.61 77.67 77.59 78.06 78.26 77.42 77.70 77.72 77.35 77.87 78.24 78.23 63.72 62.83 66.33 75.43
62.68 65.72 67.34 68.80 70.58 72.19 72.60 72.92 72.35 73.11 73.64 74.16 75.49 76.32 76.89 78.03 78.44 78.19 77.79 77.98 78.21 78.52 77.38 76.93 76.98 77.10 78.24 73.73 78.39 65.75 61.04 66.10 75.31
59.75 62.00 65.78 69.34 72.55 73.23 73.42 74.16 72.06 74.65 74.35 74.15 75.89 75.81 76.01 77.53 77.93 78.48 78.57 79.07 78.74 78.24 77.54 77.77 77.96 77.30 78.41 78.84 76.83 76.87 59.92 59.09 75.66
56.73 57.82 61.00 66.31 72.28 73.02 73.59 73.13 72.69 76.19 75.23 76.43 76.86 77.02 76.35 77.80 78.33 76.70 76.73 79.12 78.48 78.18 78.21 77.89 78.30 77.60 77.23 77.22 78.14 66.83 61.13 58.11 60.94
54.58 56.30 57.26 57.81 66.08 70.95 74.30 74.28 74.62 73.99 77.38 77.43 77.26 77.14 77.39 77.32 77.21 76.88 78.46 77.26 77.40 76.50 77.65 76.61 76.21 76.09 76.03 76.59 77.94 78.61 61.93 57.61 57.61
52.23 53.48 55.53 56.44 58.14 61.28 67.52 72.99 74.80 75.31 76.02 76.79 76.62 76.66 76.98 76.84 76.44 76.33 77.04 77.11 77.24 76.61 76.21 75.97 76.03 76.13 76.21 76.78 77.68 78.40 79.49 75.94 69.28
52.22 53.54 54.71 57.61 56.75 57.74 60.83 66.43 68.67 72.26 75.45 76.21 75.48 76.05 76.27 76.56 76.63 76.37 76.92 77.76 76.55 77.11 78.67 73.82 76.83 76.90 77.45 77.08 77.12 77.72 72.25 73.65 79.26
53.66 53.72 56.15 57.62 57.48 57.83 58.98 60.50 62.98 65.85 69.40 75.72 75.37 74.81 75.15 75.19 75.78 76.45 76.69 76.69 75.53 50.64 53.25 50.94 52.03 52.58 63.78 77.72 65.17 60.33 56.81 56.93 56.20
54.17 55.93 56.39 57.26 57.56 57.91 59.28 60.12 60.62 62.58 66.08 71.07 73.81 73.21 74.98 75.30 74.73 75.49 75.77 75.87 75.78 74.07 64.06 49.11 47.32 49.31 49.49 51.13 53.73 52.39 50.94 47.50 48.04

GFSFLT1_sfc_wetblb_063.txt.gz
Wetbulb
69.87 70.28 70.98 71.45 71.82 71.78 73.07 74.02 74.80 75.26 76.46 77.45 78.09 77.59 77.53 77.03 78.22 74.66 74.60 77.30 75.16 74.21 73.92 74.93 80.69 78.85 78.35 78.79 79.00 78.24 79.45 77.23 76.75
67.22 70.02 70.80 71.24 72.11 72.54 73.36 74.11 75.30 75.37 76.55 77.75 78.01 76.73 78.16 78.40 77.66 76.47 74.71 77.89 78.72 76.41 78.10 75.72 76.54 77.71 78.24 78.22 78.06 79.40 80.38 76.84 78.72
66.84 69.61 70.95 71.75 72.25 72.27 72.91 73.61 74.37 75.76 76.84 77.64 77.56 77.56 78.13 77.96 77.62 77.83 77.98 78.84 79.47 77.99 78.74 79.45 77.87 78.09 77.47 77.95 79.04 79.01 80.80 78.95 79.68
66.37 69.37 70.18 71.23 72.38 73.43 73.25 73.59 73.93 74.34 75.48 76.72 76.78 77.48 77.97 77.36 77.37 76.97 77.87 78.46 79.10 79.21 79.24 80.17 79.36 79.11 78.18 77.57 77.70 78.79 80.06 79.98 78.85
64.98 67.10 69.47 70.88 71.81 73.21 73.84 74.06 73.97 74.12 74.43 74.55 76.06 77.17 77.98 77.56 78.30 77.45 76.97 77.66 78.36 79.94 79.62 79.57 80.00 79.26 79.02 77.76 77.34 78.98 79.49 77.68 77.90
64.68 66.27 68.63 70.51 71.47 72.44 73.19 74.15 75.03 74.07 74.16 74.16 75.05 76.76 76.30 77.38 77.44 77.77 77.13 78.14 78.49 79.35 79.71 79.87 78.02 79.12 79.43 78.57 77.77 78.59 79.63 79.83 78.71
63.51 66.51 68.36 68.58 70.24 72.03 73.21 74.95 76.43 76.25 74.63 74.71 74.76 75.20 75.20 76.22 77.12 77.55 77.31 78.40 78.88 79.03 79.74 79.76 79.40 79.95 79.78 79.08 78.37 78.15 77.92 78.66 78.85
63.39 64.25 65.85 67.40 68.20 71.89 75.97 76.26 77.19 77.03 75.40 76.30 75.69 76.25 75.65 76.34 77.92 78.11 78.34 77.82 78.97 79.16 79.64 79.70 80.16 80.05 79.84 79.82 78.16 76.61 77.96 78.47 78.63
64.14 65.34 64.81 66.17 69.45 71.56 72.80 74.57 77.24 77.31 77.02 76.87 76.56 76.87 75.74 76.79 78.02 78.18 78.02 78.23 78.49 79.38 79.49 79.83 79.92 79.81 79.74 79.25 76.75 69.60 67.48 74.64 77.22
63.70 65.11 66.40 67.69 68.70 70.28 72.23 73.84 76.01 76.62 77.54 77.57 77.26 77.74 77.22 77.43 78.01 77.89 78.02 78.26 78.76 79.04 79.36 80.15 79.97 79.79 79.81 79.55 79.79 66.38 65.15 67.35 76.13
64.47 65.68 66.54 67.71 68.51 69.68 71.46 72.78 74.33 75.90 76.78 77.87 77.90 77.19 78.77 77.97 78.56 78.34 78.77 78.90 78.64 79.19 79.57 79.55 79.52 79.69 80.00 80.07 79.60 66.54 63.13 65.64 76.68
64.57 66.48 68.20 69.22 70.23 70.69 71.76 71.83 73.15 75.40 75.86 77.87 77.80 78.31 77.72 78.81 78.75 78.69 78.83 78.62 78.96 79.48 79.63 79.52 79.39 79.93 80.11 80.17 79.79 64.79 62.85 66.09 76.35
64.03 65.57 67.20 68.82 70.66 71.95 72.37 73.07 73.28 72.81 74.29 75.95 77.15 78.31 78.43 79.36 79.43 79.47 79.16 79.46 79.66 80.03 80.21 79.70 78.44 79.21 80.32 75.87 80.39 66.34 61.39 66.15 75.88
62.61 64.00 65.01 65.09 68.94 73.34 74.46 74.95 74.05 73.74 74.54 75.58 77.69 78.49 79.27 79.88 79.85 79.87 80.23 80.45 80.45 80.28 79.89 78.68 79.52 79.43 79.94 80.27 78.54 78.96 60.71 59.38 76.74
58.96 61.25 62.94 63.30 64.89 69.34 76.25 76.16 75.45 76.14 74.95 77.69 79.07 78.99 78.84 79.39 80.08 79.04 79.23 80.17 80.34 80.31 80.08 79.24 79.91 79.28 79.37 78.62 80.82 68.68 61.18 58.51 61.86
56.76 58.35 60.95 60.73 60.66 63.98 66.16 73.23 76.14 76.62 77.05 80.04 79.34 79.13 78.80 79.22 79.79 79.77 79.91 79.52 79.64 78.38 79.35 77.18 76.79 76.62 75.93 76.10 77.19 78.66 61.92 57.90 58.40
55.49 57.38 58.88 59.21 58.89 59.96 60.29 63.52 68.85 71.99 78.41 79.96 79.83 78.82 79.19 79.19 78.87 78.53 79.28 78.37 78.20 77.10 76.58 76.56 76.48 76.33 76.22 75.78 76.02 76.07 77.92 73.57 67.04
55.98 57.23 58.40 57.66 57.20 57.64 58.94 60.02 62.00 64.46 69.29 75.12 76.91 78.13 77.86 78.29 77.19 77.18 78.04 78.21 77.79 77.14 78.15 74.11 76.23 75.24 75.31 74.87 75.98 76.38 72.24 73.37 77.70
55.55 56.85 57.06 57.54 57.25 57.39 58.30 58.65 59.62 60.82 62.87 65.46 74.45 75.21 76.14 75.99 76.43 76.50 76.54 76.94 75.27 52.87 58.14 51.91 52.63 51.54 65.25 74.91 58.35 55.81 52.38 52.45 54.81
55.47 56.20 56.24 56.25 57.03 57.88 58.17 58.12 58.30 59.07 61.28 63.18 69.58 75.05 75.55 76.66 74.09 76.72 77.04 76.81 76.16 75.07 63.33 51.72 50.09 52.09 51.72 52.27 50.61 52.45 51.18 52.09 50.82

GFSFLT1_sfc_wetblb_069.txt.gz
Wetbulb
65.08 65.18 65.37 66.80 67.97 68.13 68.32 68.75 69.94 70.23 70.33 70.72 71.40 70.41 70.10 71.09 72.10 70.60 71.21 72.23 71.76 73.33 73.63 73.05 73.40 74.87 73.50 73.99 74.27 74.54 73.73 72.86 73.28
64.48 65.44 65.32 65.22 67.94 68.57 68.68 69.13 69.29 70.52 70.35 70.41 71.59 71.36 69.77 70.75 72.79 70.27 70.63 71.34 72.83 72.40 71.74 73.48 73.65 75.54 74.27 74.92 74.51 74.46 74.00 72.64 72.39
61.19 63.35 65.01 66.35 67.32 68.09 68.97 69.44 70.00 70.53 71.41 70.77 71.72 72.04 71.24 70.13 71.55 72.75 71.07 71.00 71.94 72.44 71.05 72.80 74.07 75.26 75.12 75.62 74.24 73.74 74.07 71.93 73.11
60.43 62.49 64.37 66.61 66.85 66.78 66.84 67.54 69.97 70.26 71.49 71.32 71.66 71.61 72.53 70.86 69.98 72.50 71.96 70.82 70.31 72.38 72.27 73.45 75.20 75.22 74.84 74.61 75.16 74.67 74.13 72.31 73.42
62.59 64.60 65.72 65.43 67.12 67.34 64.36 65.34 70.20 70.14 70.96 71.65 72.32 72.48 72.57 72.63 70.83 71.21 72.21 70.94 70.09 71.93 71.41 72.31 74.64 75.50 75.33 74.56 73.77 74.19 74.23 72.57 73.00
62.92 63.41 65.34 63.37 63.27 61.62 62.56 65.27 68.35 70.81 70.94 72.18 72.78 73.30 72.30 72.85 72.54 70.28 71.14 71.00 70.93 70.64 73.98 72.04 73.16 74.34 74.14 73.86 74.27 73.82 73.96 74.37 73.41
61.99 63.54 64.16 63.50 62.71 63.44 64.23 66.71 67.66 71.33 71.19 72.50 73.46 73.47 73.32 72.48 72.72 72.87 70.70 71.18 70.17 72.73 73.38 74.05 74.00 74.42 74.17 74.54 73.84 73.52 73.65 73.99 74.11
61.68 62.91 63.65 63.76 64.26 64.81 67.35 68.20 69.28 69.15 71.91 72.07 73.56 73.74 73.67 73.38 73.48 73.57 73.71 72.20 71.30 70.00 73.70 73.11 73.44 73.77 74.34 74.64 74.88 74.86 73.27 73.65 74.42
59.54 61.76 64.42 66.13 66.02 67.19 68.25 69.72 67.48 69.00 70.66 72.18 72.50 73.51 73.69 74.18 73.84 73.75 73.58 73.33 72.93 70.49 71.04 74.07 73.42 73.23 74.17 74.52 75.61 70.70 69.26 72.46 73.13
59.39 60.40 61.42 62.31 64.10 66.18 67.17 67.61 68.24 66.63 67.72 72.42 72.55 72.40 73.59 73.79 73.82 73.69 73.50 73.78 72.96 72.65 70.71 71.60 73.03 74.16 74.54 74.25 75.09 67.83 67.23 69.41 73.33
58.45 58.94 60.50 61.81 62.39 63.15 66.06 67.93 67.69 67.84 69.24 69.41 70.43 71.60 72.36 73.37 73.46 73.44 73.66 73.54 73.29 73.14 73.35 72.59 72.68 73.28 74.46 74.77 74.97 67.37 65.38 67.23 72.39
58.08 57.47 59.28 60.84 62.67 62.74 64.72 68.25 69.11 68.65 69.31 68.01 67.03 70.57 72.05 72.79 73.35 73.30 73.51 72.93 73.31 73.29 73.60 73.67 73.19 74.30 74.45 74.53 75.05 66.08 65.01 64.69 68.14
56.64 57.43 58.12 59.59 61.36 61.77 62.63 65.26 66.68 67.91 64.06 63.63 64.38 69.93 72.75 73.19 73.31 73.60 73.00 73.57 73.35 73.98 73.41 73.27 74.30 73.75 74.63 72.26 75.00 66.21 63.76 64.77 72.38
54.94 56.37 57.44 59.65 59.02 58.92 60.35 61.75 62.87 64.54 65.92 68.83 70.85 72.81 73.37 73.80 73.45 73.49 73.69 73.74 74.21 73.74 73.87 73.46 73.10 73.89 74.44 74.99 74.36 74.49 62.48 60.41 73.80
53.44 54.45 57.00 57.07 56.23 57.56 58.60 60.10 59.46 60.84 62.33 64.33 67.11 69.20 73.10 73.56 74.24 73.75 74.51 73.87 74.00 73.95 73.67 73.27 72.96 73.05 73.78 74.85 75.50 67.37 63.57 59.87 61.23
53.43 54.34 55.77 55.86 54.90 55.63 57.32 58.11 58.31 57.79 59.17 61.96 63.84 66.19 71.07 72.74 74.57 74.05 74.20 74.05 73.76 73.72 73.95 73.48 73.16 73.35 73.31 74.01 75.33 75.90 63.08 59.34 58.61
52.82 54.69 54.87 56.37 55.44 54.43 54.96 56.46 57.29 57.97 59.29 60.88 62.22 64.45 69.96 74.23 74.58 74.42 74.35 75.48 74.98 74.68 74.29 73.85 73.71 73.55 73.55 74.32 74.67 75.38 76.25 68.87 64.11
51.30 53.07 54.11 54.34 54.66 53.65 54.15 55.44 55.89 57.56 58.17 59.03 60.20 62.10 68.20 74.44 74.53 73.34 74.85 75.43 75.10 75.28 75.90 74.23 74.63 74.60 74.76 73.95 74.18 74.65 71.14 71.65 72.64
52.29 53.51 54.80 54.19 54.22 52.96 52.30 53.16 54.11 56.47 57.51 57.94 59.05 60.33 67.19 72.55 74.67 74.66 75.18 74.58 69.67 52.46 54.83 56.33 57.44 61.50 70.68 69.85 59.74 61.43 60.21 56.27 58.06
51.42 53.97 53.24 53.29 52.61 52.09 51.31 51.71 53.66 55.63 56.71 58.06 58.07 58.92 62.21 66.43 70.43 73.76 74.47 74.46 74.11 69.79 60.68 51.38 48.15 49.98 58.11 58.06 59.73 48.90 49.08 49.57 51.09

GFSFLT1_sfc_wetblb_072.txt.gz
Wetbulb
64.89 64.19 64.28 65.79 66.70 65.94 66.85 67.00 68.05 68.55 69.73 69.34 69.71 70.06 70.11 70.40 68.94 69.08 69.44 70.72 71.34 71.89 72.55 73.29 73.51 74.61 73.07 73.05 72.68 72.78 72.56 71.56 71.82
63.24 64.73 65.37 66.27 66.87 66.64 66.96 67.55 67.50 68.71 69.27 69.37 69.57 69.61 69.50 69.93 71.07 69.34 69.01 70.46 71.33 72.11 72.40 72.45 72.58 74.13 72.87 73.01 72.95 72.58 72.21 71.20 71.01
62.05 64.95 65.18 66.06 67.14 67.84 67.81 67.76 68.38 68.71 69.47 69.55 70.08 69.89 69.48 69.24 69.77 71.32 68.90 70.03 70.00 71.60 71.33 71.65 72.01 74.15 72.96 72.58 73.36 72.88 72.35 71.36 71.38
61.45 64.45 65.32 66.47 67.16 67.87 68.02 67.45 68.32 68.92 69.06 69.25 70.12 70.69 70.01 68.97 69.12 70.02 70.20 69.43 69.81 70.56 70.29 71.42 72.02 73.73 73.31 73.06 73.18 72.44 72.28 71.24 71.08
62.13 64.54 66.03 66.14 67.22 67.88 67.37 66.65 66.72 68.72 69.79 69.50 69.71 71.11 70.72 69.59 68.76 69.62 70.70 70.22 69.21 70.15 70.63 71.54 73.25 73.81 73.76 73.68 73.88 72.52 72.15 71.12 71.84
62.07 62.94 63.71 64.62 65.30 65.58 66.87 67.46 66.16 67.42 69.44 70.17 70.28 70.86 70.79 70.76 69.10 68.43 69.59 71.13 70.66 68.51 70.61 70.51 73.20 73.53 73.71 73.71 73.70 73.72 73.41 72.62 71.50
61.23 62.24 63.87 63.86 63.54 64.76 64.49 64.65 65.85 65.87 69.05 70.83 71.02 70.91 70.68 70.70 70.88 69.43 68.52 70.45 70.56 70.15 69.13 70.42 70.95 73.41 73.58 73.63 73.50 73.13 73.48 73.49 72.57
60.81 62.73 63.86 64.37 64.36 64.73 64.91 66.26 66.34 68.82 69.04 70.06 71.51 71.12 70.97 70.52 71.92 71.95 70.30 68.76 70.39 69.78 70.55 70.63 72.02 71.92 73.21 73.41 73.47 73.62 72.71 72.86 72.59
59.70 61.18 61.75 62.20 64.70 66.80 66.61 66.70 67.76 68.69 68.39 69.17 71.82 71.33 71.29 71.71 71.26 72.22 71.95 70.23 69.14 69.46 69.16 71.23 71.31 72.76 72.76 72.93 73.87 69.08 68.45 71.52 72.41
58.20 60.16 61.03 61.38 62.54 63.48 65.95 67.68 68.10 67.29 67.34 68.59 69.07 71.06 72.20 72.26 72.32 71.78 72.00 72.38 70.76 69.92 68.99 68.77 71.37 71.17 72.55 72.86 73.81 66.71 66.52 68.77 72.47
55.05 57.65 59.27 61.06 62.31 63.58 66.27 66.91 67.12 67.83 68.25 69.44 69.06 69.70 71.57 73.11 73.05 72.72 72.51 72.38 72.27 71.66 71.12 68.89 69.20 72.29 71.57 71.76 73.09 65.95 64.85 67.14 72.34
53.50 54.91 57.80 60.26 61.37 62.05 63.86 63.11 63.73 66.31 68.62 68.62 67.83 67.33 67.35 70.18 73.43 73.14 72.88 72.24 72.27 72.55 72.11 71.14 69.76 70.30 72.79 73.14 72.91 64.28 63.95 65.49 71.70
53.46 54.54 57.80 58.33 59.77 59.74 60.17 60.06 61.51 63.69 65.43 66.51 66.36 67.34 67.23 69.56 71.06 72.90 72.84 73.11 72.88 73.13 72.92 72.40 72.41 71.41 71.39 69.44 72.82 65.27 62.61 64.12 72.46
53.57 55.56 56.92 57.38 57.86 57.48 58.50 59.44 59.75 60.10 61.41 62.53 63.25 65.12 65.62 66.95 69.05 72.59 73.50 73.61 73.32 73.38 73.17 72.75 72.58 72.36 72.59 73.02 72.49 72.77 61.52 60.58 72.89
52.69 53.67 55.76 56.26 55.89 56.99 57.87 58.22 57.75 57.31 57.81 60.07 62.42 63.60 64.25 65.49 68.09 73.01 73.46 73.25 73.35 73.08 72.92 72.42 71.81 71.95 72.56 73.17 73.67 66.40 62.93 59.99 61.73
50.57 53.43 54.46 55.61 55.19 55.44 55.69 56.57 56.01 55.50 57.25 58.97 59.90 61.52 63.35 64.51 66.85 71.67 73.09 72.76 72.53 72.38 72.56 72.24 71.84 71.33 71.13 72.26 73.63 74.08 62.25 59.76 59.23
48.76 51.16 53.01 54.55 54.36 53.85 53.77 54.28 55.16 55.03 56.40 57.61 58.33 59.92 61.43 63.67 66.48 70.56 72.67 73.37 72.96 72.62 72.30 71.87 71.76 71.68 71.50 71.90 72.72 73.80 74.60 69.39 64.97
48.22 49.44 52.02 54.14 52.22 51.90 51.89 52.72 53.21 54.22 55.95 56.90 57.32 58.58 60.25 62.18 66.91 70.09 73.25 72.72 72.45 72.88 73.46 72.03 72.51 72.51 72.72 72.32 72.21 72.98 69.35 70.36 72.65
48.12 48.72 52.66 53.83 53.00 51.82 50.36 50.74 51.71 53.50 54.52 55.94 56.34 56.96 58.46 60.33 62.62 65.60 73.19 72.85 67.38 52.87 55.46 56.58 57.24 58.51 68.49 73.27 65.38 60.47 58.38 56.44 55.95
49.17 51.59 51.18 48.60 50.57 48.93 48.81 49.40 49.30 52.16 52.79 54.42 53.83 54.96 57.14 58.86 60.50 64.58 71.42 73.40 70.97 70.16 61.21 52.25 51.06 52.69 55.91 57.14 63.33 52.69 51.78 52.87 52.33

GFSFLT1_sfc_wetblb_075.txt.gz
Wetbulb
65.08 65.26 65.79 65.85 66.11 64.94 65.73 66.59 66.52 68.48 68.25 67.96 68.94 69.38 68.73 67.61 67.56 68.37 68.19 69.22 69.47 70.41 71.04 71.80 72.23 72.86 72.60 71.88 71.42 71.78 71.11 70.81 70.84
63.74 65.17 65.21 66.03 66.62 65.25 65.55 66.42 66.51 67.92 68.59 68.34 68.87 69.18 69.27 68.86 67.86 67.56 67.93 69.49 69.83 70.54 70.85 72.51 72.31 73.48 72.71 72.21 72.03 71.72 71.22 70.76 70.46
61.87 64.52 64.34 64.97 66.57 65.31 65.88 66.44 67.21 67.39 69.00 68.63 68.95 69.35 69.58 69.53 69.59 69.29 68.03 68.41 70.02 70.46 70.64 70.78 71.59 73.05 72.15 71.57 72.03 71.80 71.27 70.49 70.32
59.67 63.30 64.05 64.90 66.22 66.05 66.35 66.90 67.00 67.38 67.69 68.44 68.56 69.04 69.36 69.15 68.90 69.26 69.05 68.30 68.84 69.71 70.79 70.72 70.75 72.38 72.41 70.84 71.83 71.91 71.10 70.62 70.50
60.52 63.45 64.26 65.29 66.48 66.71 65.83 66.67 66.92 66.90 67.85 68.14 68.79 69.24 69.08 68.49 68.53 68.62 69.26 69.03 68.55 68.90 69.32 69.87 71.21 71.42 72.34 71.94 71.89 71.96 71.37 70.98 71.54
61.07 62.69 64.05 64.95 65.64 65.39 65.33 64.92 65.57 67.14 67.60 68.25 68.96 69.42 69.01 68.48 68.11 67.92 68.19 69.28 69.60 68.29 68.97 69.46 70.76 71.95 72.19 72.10 72.33 72.16 71.65 71.30 70.75
61.13 62.37 62.72 63.32 62.77 63.68 65.51 65.06 65.19 65.77 67.37 68.63 68.98 69.35 69.46 68.84 68.36 67.84 68.31 68.62 69.13 69.77 68.45 69.18 69.92 72.06 72.51 72.76 72.83 72.96 72.70 71.95 71.35
59.75 60.01 60.53 62.25 63.38 64.31 65.84 65.75 64.71 65.53 67.79 68.16 69.64 68.68 69.22 69.44 69.60 69.08 68.26 67.96 68.53 68.90 69.51 69.18 69.38 70.49 72.19 72.43 72.95 73.12 72.64 72.96 72.60
56.39 58.67 60.62 61.22 62.17 64.82 66.70 66.98 66.36 66.95 67.79 68.68 69.81 69.47 69.08 69.86 70.03 70.14 68.93 67.88 67.57 68.44 68.60 69.33 68.35 69.31 70.28 71.72 73.17 68.50 67.68 71.32 72.24
51.76 53.96 58.50 59.57 60.78 61.75 64.77 65.18 65.62 65.99 66.61 67.69 68.17 70.00 70.00 70.07 69.49 69.59 70.32 69.64 67.69 67.22 68.12 68.23 68.45 69.12 70.43 70.23 71.88 66.07 65.87 68.10 72.38
50.54 52.44 56.46 57.94 59.23 59.35 61.60 62.38 62.77 64.12 68.02 67.37 68.09 68.33 69.61 70.69 70.82 69.64 70.45 71.01 69.86 68.37 68.06 68.04 67.67 67.99 69.35 71.01 71.44 65.41 64.10 66.32 71.54
51.28 53.04 55.41 56.59 57.96 58.87 59.47 59.51 60.09 62.50 66.54 67.42 67.39 67.33 67.46 69.06 71.54 71.33 70.66 70.58 70.99 70.99 69.78 68.85 68.75 68.31 67.97 69.14 70.01 63.94 63.41 64.60 70.30
51.35 54.05 55.66 55.85 57.04 57.41 57.50 58.15 58.92 60.49 60.90 62.98 62.38 64.79 67.22 68.65 69.98 71.97 72.48 72.15 71.31 71.85 71.97 71.07 70.89 69.66 69.05 67.62 70.61 62.37 61.60 64.05 72.13
51.33 52.87 55.16 56.08 56.38 56.29 56.08 56.85 56.69 57.05 58.90 58.23 60.76 62.68 64.08 65.45 66.76 68.72 69.51 71.80 73.02 72.45 71.84 72.17 71.42 71.09 70.64 69.65 69.94 71.17 60.16 59.84 71.07
49.64 50.55 53.60 55.21 54.99 55.45 56.55 56.02 55.00 54.41 55.36 57.90 59.25 60.29 62.53 63.67 65.22 67.35 69.96 71.08 72.35 72.85 72.27 71.41 71.13 71.13 71.14 71.67 71.08 63.45 60.81 59.20 61.39
48.34 49.67 51.36 53.84 53.73 54.68 54.81 54.88 52.94 52.05 53.57 56.35 57.85 58.55 58.94 61.10 63.32 65.31 67.46 70.78 71.32 71.96 72.18 71.83 71.40 71.02 70.87 71.39 72.36 72.32 60.72 58.30 58.56
46.27 47.81 49.26 51.72 53.05 53.39 51.70 52.80 52.62 52.87 53.14 54.92 55.60 57.21 57.49 58.89 61.17 62.66 66.70 70.12 72.14 71.89 71.67 71.46 71.48 71.27 70.77 71.16 71.98 72.45 73.01 68.07 63.78
45.88 46.64 48.24 50.25 52.35 50.88 51.22 51.30 51.40 52.39 52.79 53.98 53.55 54.59 55.04 57.67 60.44 61.31 63.35 66.30 72.04 71.96 72.58 71.22 71.73 71.67 71.95 71.11 70.55 71.30 68.28 69.36 71.42
45.31 45.83 47.42 49.13 52.10 51.24 49.83 50.22 50.16 51.22 52.40 52.46 52.66 51.28 53.37 55.75 57.35 59.35 61.87 65.09 70.39 54.17 56.43 56.17 55.08 55.81 66.18 71.71 63.80 57.80 54.46 53.63 53.45
46.69 45.86 47.10 50.51 50.91 50.21 48.45 47.70 48.78 50.36 50.56 52.03 51.15 50.93 51.84 54.49 56.05 59.16 60.77 62.60 66.16 71.53 63.56 50.55 49.28 50.19 52.91 54.54 63.35 52.00 51.27 51.27 50.91

GFSFLT1_sfc_wetblb_078.txt.gz
Wetbulb
64.45 66.20 66.14 66.28 65.11 64.89 65.67 66.04 66.10 66.86 67.42 67.84 68.59 68.97 68.34 68.54 68.87 69.09 69.31 70.00 70.24 70.65 71.23 72.25 73.53 73.65 73.52 73.09 73.30 73.02 72.50 72.31 72.20
61.60 65.35 66.44 65.56 66.57 64.87 65.90 66.10 66.37 66.86 67.11 67.59 68.27 69.04 68.91 67.99 68.17 68.58 68.89 69.84 70.90 71.20 72.12 72.96 73.35 74.02 73.82 72.95 72.31 73.13 73.17 72.41 71.94
59.36 61.46 65.25 65.82 66.34 65.03 65.71 66.64 66.84 67.47 67.89 67.70 68.15 69.03 69.27 68.95 68.20 68.52 68.96 69.74 70.38 71.05 72.14 72.44 73.56 73.90 74.32 73.48 72.96 72.56 72.77 72.66 72.77
60.29 60.79 64.38 65.35 66.17 65.79 65.58 66.65 66.94 66.80 68.04 68.10 68.15 68.84 69.46 69.30 69.04 68.79 68.25 68.90 70.22 71.34 72.22 72.16 72.40 73.39 74.12 73.75 72.63 72.72 72.49 72.52 72.93
60.93 62.37 63.41 64.76 65.59 65.68 65.63 65.33 66.49 66.52 67.25 68.35 68.69 68.90 69.27 69.34 69.49 69.78 69.10 68.56 69.25 70.20 71.27 72.06 72.50 72.75 73.44 73.75 73.22 73.16 73.19 72.13 73.28
59.75 61.92 62.72 63.47 65.28 65.44 65.88 66.46 66.49 66.47 66.94 67.60 68.79 68.98 69.09 69.22 68.98 68.70 69.64 69.72 69.57 69.81 70.29 70.82 71.66 72.55 72.54 73.07 73.33 73.32 73.47 72.93 73.10
59.37 60.18 61.05 63.56 64.67 64.37 65.33 65.89 66.72 67.10 67.47 68.21 68.47 68.59 68.62 68.42 68.52 68.47 68.88 69.78 70.03 69.68 70.09 70.26 70.73 71.85 72.61 73.26 73.54 73.67 73.59 73.29 72.93
54.40 58.12 58.44 59.55 60.83 65.25 66.01 67.04 66.88 66.98 67.61 68.09 68.62 68.54 68.80 68.54 69.03 69.05 69.05 69.03 69.27 70.35 69.93 70.13 70.67 70.99 72.39 73.28 73.70 73.43 73.71 73.67 73.22
51.66 54.82 56.53 57.53 58.75 58.98 61.85 61.95 63.47 65.68 67.51 68.26 69.00 68.47 68.53 69.58 69.73 69.53 68.73 68.65 68.77 69.11 69.98 69.92 69.72 70.24 71.27 72.39 73.31 68.55 67.77 72.01 73.58
49.99 52.60 55.29 55.71 57.35 57.89 59.33 60.22 60.99 62.20 64.30 68.14 68.16 69.19 69.19 69.42 70.12 69.87 69.84 68.94 68.57 68.15 68.63 69.77 69.30 69.61 70.12 70.88 72.24 65.88 65.97 67.80 73.73
48.65 50.65 53.84 55.35 56.32 57.90 58.27 59.67 58.96 61.18 64.22 67.63 67.96 68.43 69.71 69.68 69.72 69.71 70.34 70.40 68.71 68.21 68.34 68.55 68.96 69.38 69.92 70.05 70.77 64.22 64.35 66.44 72.74
48.49 50.07 52.96 55.37 56.21 57.44 58.31 58.40 57.88 59.65 62.13 61.99 63.02 65.03 67.58 69.63 71.20 70.11 70.18 70.21 70.73 69.98 68.84 68.11 68.46 68.98 69.06 69.87 70.34 62.34 62.42 65.01 72.04
47.94 50.58 52.21 54.46 55.84 56.55 57.18 57.55 57.21 57.42 59.33 59.08 59.30 60.61 62.17 64.25 66.35 69.06 70.80 70.34 70.70 71.39 71.26 69.80 69.36 69.12 69.22 66.53 69.48 62.19 60.63 63.28 70.92
46.45 48.64 50.31 53.15 54.32 55.00 55.91 57.18 55.83 55.26 56.13 56.47 58.28 59.98 61.13 63.35 64.80 66.11 68.43 70.18 72.58 71.84 71.93 71.54 71.08 70.25 70.57 69.83 68.25 69.02 58.86 59.37 71.00
44.53 45.73 48.07 50.33 50.90 52.85 55.35 56.54 54.23 53.20 53.75 55.77 57.82 58.93 60.51 61.84 63.16 64.69 66.66 67.63 69.43 71.72 72.59 71.63 71.59 71.35 71.31 71.50 70.89 62.76 60.09 57.68 60.59
43.68 45.34 47.16 49.32 49.17 50.38 53.80 55.15 54.37 51.85 53.24 55.18 56.31 57.11 58.52 59.61 61.84 63.45 65.67 66.34 67.26 68.75 71.82 72.16 71.24 71.31 71.28 71.58 72.42 71.73 59.77 57.65 57.45
42.80 44.52 45.93 47.87 48.26 48.49 50.58 53.94 53.65 52.95 53.79 54.16 54.31 54.52 56.17 57.03 59.10 60.18 62.11 65.33 67.01 67.20 70.78 71.86 71.38 71.38 71.33 71.85 72.27 72.59 72.88 66.95 63.21
43.03 44.39 45.94 46.69 47.21 47.79 48.86 52.62 52.45 52.58 52.91 53.57 52.38 53.35 53.34 54.84 57.13 57.99 59.64 61.94 64.19 65.66 68.41 70.65 71.89 72.57 72.69 72.07 71.41 72.14 68.25 68.76 70.74
43.92 44.44 45.68 45.86 46.46 47.22 48.54 51.72 50.69 50.92 52.28 51.69 51.30 50.64 51.54 53.25 54.69 57.21 58.21 59.70 61.33 58.00 55.00 54.30 53.75 54.84 65.86 72.66 64.13 59.25 53.75 54.11 52.48
45.56 46.11 46.07 45.88 45.42 46.63 48.58 51.56 49.25 49.20 49.97 49.55 48.88 49.60 50.31 51.42 52.71 55.85 57.47 58.57 59.50 61.75 63.35 53.57 50.85 49.58 50.49 52.30 63.09 50.13 50.49 49.95 50.49

GFSFLT1_sfc_wetblb_081.txt.gz
Wetbulb
64.86 66.61 68.81 69.66 69.03 69.35 69.98 70.07 70.64 71.07 71.64 72.95 73.02 73.34 74.32 74.77 74.85 74.18 74.38 75.38 74.55 74.57 74.93 75.59 77.12 77.78 77.56 77.52 77.21 76.88 76.77 75.89 75.85
63.37 64.35 68.32 69.46 69.86 69.32 70.07 70.29 70.34 71.19 71.99 72.62 72.64 73.01 74.02 74.11 74.26 74.35 74.49 75.44 75.97 75.15 76.45 75.76 76.87 77.32 77.39 77.72 77.24 77.29 77.01 75.41 75.78
62.66 65.47 65.17 69.11 70.51 69.45 69.95 70.68 70.84 71.17 71.71 72.16 73.29 73.07 73.43 73.48 73.28 74.11 74.69 74.83 75.22 75.86 76.31 76.72 76.44 76.94 77.17 77.33 77.38 77.14 77.03 76.03 76.53
61.64 65.78 65.39 67.71 70.17 70.97 69.83 70.70 70.66 70.63 70.99 71.29 71.93 72.61 73.78 73.70 73.45 73.12 73.73 73.45 74.42 75.55 76.21 76.81 76.83 77.19 77.11 77.36 77.03 77.43 77.18 76.89 76.36
60.99 63.86 66.52 68.26 69.07 70.24 69.63 69.88 70.47 70.27 70.78 71.00 71.41 72.41 72.74 73.05 73.61 73.45 72.84 73.15 73.73 75.11 75.63 76.44 76.78 77.22 76.99 77.19 77.17 77.35 76.71 76.38 76.11
59.46 60.10 60.42 61.11 66.99 68.62 69.03 69.18 70.02 70.34 70.54 71.25 71.72 71.92 70.85 71.31 71.63 72.51 72.90 73.34 73.65 74.20 74.47 75.42 75.66 76.55 76.68 76.91 77.00 77.16 77.18 77.20 76.59
58.38 58.50 57.94 58.54 58.96 61.68 63.34 68.31 69.92 69.64 70.31 71.07 71.50 72.00 71.82 71.73 71.65 71.63 72.08 74.39 74.25 73.90 74.24 74.63 74.56 75.55 75.86 76.52 77.41 77.20 77.08 77.00 76.96
56.98 57.31 57.47 57.09 57.93 58.32 60.55 61.12 63.10 66.82 69.72 70.38 71.25 71.33 71.55 71.65 73.51 73.70 72.45 71.63 74.16 74.30 74.35 74.11 74.72 74.83 75.08 75.68 75.75 75.86 76.89 77.00 76.78
54.49 55.69 56.84 57.46 57.99 58.01 58.33 59.06 59.61 62.78 65.55 68.42 71.25 70.77 70.88 72.90 72.93 73.74 73.52 73.46 73.04 74.69 74.23 73.95 74.12 73.97 74.36 74.75 74.18 68.11 67.75 74.11 76.55
52.02 53.58 55.39 57.09 57.57 58.23 59.14 58.82 58.62 59.80 62.89 66.63 69.84 69.93 71.37 72.41 72.87 72.72 73.20 73.38 73.46 73.87 73.79 74.27 73.69 73.80 74.16 74.81 75.83 65.49 65.63 68.24 75.69
50.79 52.64 54.20 55.68 57.27 57.70 59.18 60.08 59.24 59.73 61.85 62.63 64.59 69.58 70.43 72.22 72.41 72.42 73.29 73.19 72.74 73.35 73.02 73.15 73.55 73.28 74.28 74.57 74.61 64.59 63.73 66.19 75.11
49.22 50.19 53.06 54.65 56.22 57.15 58.44 59.41 60.05 59.09 59.59 59.84 60.31 61.27 64.70 65.65 66.88 71.26 72.63 72.69 72.85 72.99 72.71 72.56 72.46 72.94 73.50 73.88 74.39 62.86 62.20 65.66 73.92
48.39 49.53 50.85 51.77 53.74 55.78 56.80 58.05 59.53 58.62 56.28 58.16 56.95 58.01 60.13 63.67 66.03 67.18 67.60 72.47 73.63 74.06 74.05 73.03 72.96 72.60 73.69 69.97 74.25 64.77 60.19 63.65 72.20
48.54 49.18 49.72 51.30 52.37 52.98 54.65 56.83 58.21 57.92 56.95 54.78 57.43 58.75 59.06 61.24 63.44 64.89 66.91 68.39 69.92 73.05 74.02 74.42 74.15 73.19 73.89 74.10 72.94 72.98 59.80 58.45 72.28
47.12 47.51 48.59 49.99 50.70 51.95 53.39 54.70 56.52 56.79 57.14 56.26 56.46 57.96 58.05 59.58 61.84 63.10 65.12 66.21 68.02 68.77 69.79 72.29 74.00 73.63 73.25 74.00 74.52 65.21 62.15 57.54 59.19
46.67 47.47 48.02 49.22 49.44 50.63 52.31 53.59 54.99 55.59 57.09 58.07 55.50 55.47 57.19 58.43 59.88 61.03 63.65 64.04 65.42 67.73 69.07 69.77 71.44 72.49 71.96 71.89 74.72 75.17 60.02 57.16 56.92
46.21 46.73 47.48 48.65 48.92 49.33 50.28 52.34 53.44 54.60 56.90 57.96 56.82 54.53 54.99 56.88 57.46 58.41 61.03 64.70 65.17 66.08 68.25 68.64 69.81 71.98 71.28 71.92 72.77 74.97 75.64 71.84 66.72
46.23 45.82 47.53 48.60 48.28 48.57 49.43 51.24 52.17 53.50 55.88 56.65 55.60 55.63 55.07 54.96 55.63 57.35 58.40 61.08 62.48 64.81 66.79 66.10 67.60 69.20 72.08 71.79 72.31 74.20 69.34 70.44 74.14
45.84 44.56 46.54 48.42 49.61 49.54 49.88 50.45 51.20 52.68 55.84 56.11 53.58 52.95 53.80 54.76 54.75 55.32 55.82 58.11 59.44 55.27 53.75 53.18 50.30 49.40 55.16 68.07 63.96 58.96 54.09 54.47 53.39
45.11 44.87 46.47 45.94 46.80 50.16 51.58 51.79 51.27 52.58 55.27 55.05 53.25 51.41 50.90 52.96 52.32 53.95 55.21 56.83 58.52 58.41 58.85 53.35 51.03 49.40 48.85 47.58 56.13 53.02 49.58 49.76 49.94

GFSFLT1_sfc_wetblb_084.txt.gz
Wetbulb
67.18 68.60 71.08 70.37 70.50 72.32 72.40 72.77 73.27 74.01 74.30 75.02 75.92 75.97 76.31 77.06 77.37 76.06 75.92 76.14 74.66 75.00 75.44 76.02 77.59 78.80 77.91 77.47 77.75 78.13 78.04 76.15 75.67
66.61 67.67 69.46 70.52 71.62 72.34 72.48 73.04 73.76 74.30 74.76 75.24 75.77 75.79 76.23 76.70 77.11 76.76 75.86 76.44 76.71 75.69 76.87 76.44 77.79 78.38 76.93 77.47 77.96 78.52 78.61 76.06 77.10
63.98 68.69 68.35 69.96 72.27 72.90 73.00 73.53 74.06 74.76 75.25 75.22 75.78 75.91 75.94 76.14 76.51 77.09 76.93 76.64 76.32 76.77 76.12 77.49 77.55 78.27 78.26 77.31 78.21 78.47 78.42 77.04 77.70
61.72 63.72 68.37 70.03 72.21 71.99 73.37 73.68 73.98 74.04 74.65 75.17 75.55 75.75 75.77 75.94 75.93 76.20 76.58 76.09 76.22 76.31 77.02 77.66 78.30 78.49 78.45 77.41 77.76 78.47 78.45 77.65 77.30
59.81 61.78 65.30 63.74 65.38 69.31 71.86 72.38 73.21 73.57 74.02 74.11 75.06 75.99 75.84 75.78 76.22 76.38 75.67 75.74 75.98 76.35 76.60 77.05 77.97 78.57 78.51 78.10 77.44 78.33 78.27 76.95 76.27
58.13 58.72 60.38 60.47 63.43 64.03 65.40 67.87 70.65 72.84 73.68 73.85 74.52 75.08 74.37 74.96 74.96 75.53 74.74 75.38 76.10 76.35 76.36 76.78 76.85 77.50 77.87 77.90 77.31 77.86 78.90 78.12 77.55
59.17 57.89 58.28 59.34 59.30 60.06 60.45 64.73 67.80 68.19 71.05 73.50 74.18 74.49 74.43 74.02 73.95 73.75 74.20 74.63 75.91 76.07 76.52 76.30 76.16 76.67 77.15 77.53 77.75 77.13 77.82 78.32 78.10
60.16 60.25 58.99 57.97 58.24 59.38 60.61 61.16 61.51 65.08 68.35 70.45 72.57 73.11 73.87 74.42 75.37 75.29 74.42 75.10 74.80 75.69 76.22 76.46 76.44 76.06 76.17 76.64 76.86 76.70 77.02 77.43 78.01
57.55 58.53 59.28 60.54 60.36 59.62 59.64 59.78 59.94 60.99 63.41 65.16 69.38 72.10 72.95 74.33 75.15 75.49 75.61 75.80 75.37 75.08 75.95 76.40 76.62 76.19 75.87 75.31 74.33 68.65 67.31 74.14 78.05
55.97 56.98 58.21 58.81 60.07 60.67 61.46 62.17 61.59 60.31 61.48 62.81 63.93 65.67 71.95 72.65 74.11 74.22 74.83 75.42 75.67 75.63 75.18 75.59 76.65 76.06 76.17 76.40 76.53 65.73 64.59 68.19 75.89
53.42 53.93 55.00 57.11 58.48 59.45 60.88 61.96 62.71 63.28 61.92 60.77 60.34 60.53 61.69 64.67 69.85 72.01 74.52 74.89 75.09 75.49 75.59 75.49 75.54 75.74 76.54 76.55 76.56 65.00 63.86 65.76 75.29
53.24 53.73 54.51 55.18 56.22 57.10 59.41 60.30 61.52 62.49 62.78 61.80 60.74 59.36 59.33 60.34 62.29 65.89 69.28 72.94 74.49 75.38 74.61 75.37 75.34 75.61 75.98 76.44 76.32 63.51 62.74 66.36 74.57
52.96 53.79 54.29 54.47 55.22 56.26 57.11 58.22 59.24 60.23 61.31 61.68 61.00 60.01 60.93 60.48 61.62 63.47 64.23 69.16 72.95 75.35 77.22 75.02 74.85 75.11 76.09 72.16 76.21 65.80 60.60 64.84 73.87
53.05 53.22 53.63 54.07 54.86 55.15 56.54 57.64 57.69 57.97 59.66 59.89 61.24 61.71 62.00 62.07 61.15 61.45 62.84 64.12 68.47 72.90 75.43 76.06 76.22 75.80 76.02 76.81 75.07 75.19 60.06 58.80 74.06
52.03 52.18 53.02 53.69 53.58 54.13 55.85 56.84 56.96 56.74 57.89 60.44 61.27 61.75 61.55 61.45 62.14 62.92 62.74 64.03 65.51 67.29 71.16 73.00 74.01 74.66 75.40 76.20 77.07 67.00 63.82 57.96 59.36
51.15 51.93 52.31 52.65 52.99 53.54 54.69 55.97 56.63 55.81 57.56 58.91 60.17 60.66 60.89 61.39 60.70 61.12 62.65 62.94 64.58 65.25 68.27 70.02 71.54 69.83 70.61 74.13 75.73 76.08 61.62 58.80 57.36
50.55 51.34 51.39 51.72 52.07 52.34 53.07 54.92 55.41 55.93 56.96 57.94 58.78 59.23 59.82 60.29 60.31 56.92 60.37 62.23 63.21 64.04 66.63 67.37 68.95 70.18 69.78 72.67 75.89 75.41 76.80 75.49 70.10
49.46 49.36 50.28 50.22 49.95 51.01 52.07 54.29 55.03 55.54 56.17 56.83 56.43 58.07 58.47 58.53 59.16 60.30 56.75 59.55 61.45 62.13 63.97 63.41 64.14 68.02 69.80 70.15 71.05 74.47 63.89 64.58 75.24
48.56 48.48 48.37 48.78 47.47 48.81 50.94 51.75 53.27 55.90 56.68 56.32 54.59 56.21 56.79 56.86 57.05 57.91 58.59 56.41 58.89 54.73 51.91 50.18 48.77 48.12 54.13 65.03 58.62 55.01 54.47 53.92 53.02
47.90 47.93 48.31 47.00 46.70 48.73 49.59 50.82 50.98 54.24 55.28 56.19 54.57 53.69 56.50 56.20 54.75 56.69 57.43 57.93 58.53 58.11 57.96 52.28 50.05 47.58 47.94 47.94 50.80 50.30 49.39 47.22 47.40

GFSFLT1_sfc_wetblb_087.txt.gz
Wetbulb
67.97 69.18 71.03 69.86 71.22 71.25 71.81 72.43 72.50 73.51 75.15 76.23 76.58 76.52 77.71 78.44 78.00 76.19 75.38 76.20 76.86 74.23 77.33 75.93 80.02 78.56 77.95 77.89 77.67 77.51 78.03 76.79 75.68
68.87 68.52 70.62 71.48 72.55 69.63 71.19 72.63 73.45 74.08 75.67 75.99 76.77 76.72 77.36 78.31 78.23 78.05 77.02 79.18 77.44 75.70 77.46 74.94 77.14 77.74 77.48 77.76 77.94 78.18 78.40 76.36 76.94
66.45 69.64 69.72 71.43 71.06 70.65 69.68 71.97 72.89 74.16 75.00 75.70 76.84 77.30 77.09 76.90 77.28 77.81 77.85 77.24 77.42 77.62 78.03 77.15 73.67 77.60 77.84 77.73 77.79 77.67 78.28 78.26 78.88
61.90 66.27 68.68 71.06 70.49 69.28 72.21 73.29 72.74 73.78 74.78 75.48 76.31 77.03 77.37 77.34 77.03 77.43 77.66 77.03 76.94 77.19 77.11 77.55 77.63 78.85 77.70 78.05 77.83 78.11 78.81 79.20 77.76
61.84 63.75 65.38 65.87 67.44 68.10 68.81 70.17 70.27 70.16 72.95 74.39 75.82 76.86 77.35 76.98 77.02 77.35 76.74 77.25 77.22 78.02 78.04 77.44 77.54 77.64 78.04 77.53 77.88 79.11 78.45 76.83 76.43
59.74 62.06 63.98 62.86 64.03 64.60 64.75 67.45 70.28 69.14 70.36 70.22 74.27 76.13 76.34 76.75 76.61 76.52 76.54 77.10 77.38 78.31 77.81 77.68 76.66 77.47 78.84 77.09 77.57 78.40 78.57 78.02 77.82
59.24 59.42 61.70 62.73 62.58 61.86 63.47 63.52 64.72 67.42 67.44 69.81 71.67 71.99 74.68 75.92 76.15 76.72 76.74 77.81 77.86 77.02 78.45 78.07 77.80 78.05 78.79 78.30 77.83 77.56 77.47 77.92 78.19
59.79 59.79 59.88 60.00 60.26 61.37 61.81 62.29 62.77 64.16 65.54 68.12 69.76 71.94 73.11 72.02 76.31 76.73 76.65 76.91 76.96 76.71 78.43 78.10 78.15 78.29 78.05 78.44 77.07 76.54 78.40 78.33 77.82
58.06 58.96 60.05 61.35 61.67 61.89 61.73 61.92 61.23 61.50 62.64 64.03 66.85 68.41 68.48 71.50 73.49 74.45 76.39 76.99 76.39 76.64 76.16 78.04 79.21 78.22 78.00 77.61 75.13 68.77 67.60 74.63 77.61
57.92 58.61 59.29 60.24 60.86 61.75 62.55 63.15 63.74 61.94 61.10 61.63 62.02 62.78 62.56 66.27 68.85 69.38 70.39 74.52 76.34 76.88 77.21 77.05 78.42 78.69 78.32 78.39 78.60 66.86 64.69 67.84 75.93
56.06 56.43 57.16 58.00 58.36 59.33 61.25 62.30 62.69 64.46 65.01 61.91 61.43 60.83 61.34 62.52 64.47 66.61 67.91 70.10 74.20 76.17 76.17 75.79 77.32 77.16 78.69 78.80 78.50 66.29 63.71 65.44 76.11
56.01 56.45 57.26 57.90 58.27 58.92 60.00 60.44 60.84 61.87 63.36 64.37 64.33 62.71 62.91 62.11 61.82 62.35 64.60 67.32 68.17 72.79 75.60 76.99 75.87 76.61 77.19 78.17 78.64 65.28 62.72 65.79 75.13
55.13 55.81 56.71 56.89 57.45 58.25 58.65 59.62 60.03 59.78 60.62 61.81 62.48 63.12 63.62 64.64 64.70 63.11 61.61 62.71 64.93 67.65 71.77 74.88 76.90 76.10 77.15 73.13 77.89 67.55 61.82 64.66 74.85
55.14 55.20 55.50 56.33 57.13 56.85 57.95 58.98 59.18 58.96 59.46 59.78 61.60 62.47 63.13 64.04 64.52 64.68 64.36 63.51 64.56 65.20 66.88 70.05 73.54 75.52 77.26 77.25 75.86 76.94 60.63 59.47 75.71
53.75 54.09 54.77 55.36 55.47 55.98 57.25 57.99 57.94 57.98 58.59 60.23 61.11 61.42 62.09 63.01 63.78 63.73 63.63 64.88 66.17 65.55 66.26 67.13 70.30 73.87 74.66 75.72 78.38 68.72 64.98 58.47 60.18
53.19 53.66 54.58 55.16 54.46 55.10 56.41 57.50 57.62 56.71 58.21 59.43 59.64 59.97 60.48 61.88 62.75 63.05 63.98 63.07 64.51 63.95 67.03 67.22 67.63 69.41 70.72 72.70 75.50 76.89 64.51 58.87 57.99
52.52 52.75 52.46 53.56 53.08 53.27 54.18 55.42 55.97 57.14 58.41 58.72 58.33 58.48 58.96 60.00 60.95 60.75 62.01 62.75 62.28 62.46 62.91 64.53 65.11 65.27 67.08 65.96 67.14 74.41 77.68 75.27 70.54
51.25 51.71 52.17 52.61 52.19 51.54 51.84 53.32 54.04 55.95 57.15 57.94 57.56 57.40 57.54 58.18 59.45 60.08 61.62 62.41 61.91 61.52 62.74 60.29 61.32 62.18 63.04 62.93 64.02 67.14 57.26 56.72 63.01
51.45 51.16 51.68 51.47 51.56 51.40 51.09 50.31 51.71 53.80 54.74 55.87 56.81 56.37 56.72 56.76 57.77 58.46 58.61 58.73 59.22 52.48 51.69 49.97 49.78 47.82 53.42 60.86 55.42 51.97 49.71 48.28 48.46
50.64 51.87 51.15 50.91 50.40 50.77 51.15 51.06 50.16 51.01 52.30 52.75 53.02 54.54 55.18 56.03 55.52 57.59 57.77 58.12 57.95 57.45 57.40 49.42 48.44 46.73 46.65 44.98 48.95 45.90 45.20 44.29 45.02

GFSFLT1_sfc_wetblb_093.txt.gz
Wetbulb
65.10 65.27 64.70 65.69 67.29 67.73 68.14 67.43 69.54 70.88 71.45 71.46 71.85 72.41 72.53 72.60 71.96 71.32 70.34 71.55 71.09 71.78 71.47 71.89 74.33 74.02 74.24 73.95 73.83 73.43 73.59 72.02 72.53
63.51 65.56 68.19 67.28 66.89 67.94 68.86 67.70 69.44 70.93 71.68 71.98 72.31 73.27 72.98 73.82 72.66 72.05 72.52 72.26 73.92 72.12 72.44 74.54 75.30 74.30 74.45 74.48 74.13 73.31 73.65 72.50 72.72
62.58 64.97 67.72 67.67 68.70 69.11 68.50 69.72 69.79 71.57 70.93 71.80 73.01 72.98 73.99 74.00 73.29 73.10 73.31 73.44 73.06 71.92 71.96 72.19 72.40 72.45 73.18 73.64 74.22 73.50 73.24 72.46 72.53
60.92 62.64 64.27 66.88 66.70 66.99 68.03 69.55 69.55 68.65 68.83 69.55 70.03 72.76 73.83 73.36 73.84 74.07 73.97 73.47 73.95 73.27 71.02 72.02 70.79 69.78 69.92 70.49 72.66 73.74 73.12 72.58 72.13
60.95 62.12 62.95 64.22 65.69 66.48 66.56 67.19 69.27 68.81 69.66 69.51 70.34 70.01 70.86 74.26 74.41 73.90 73.04 73.90 74.40 73.36 72.04 71.80 70.64 67.07 65.65 67.56 72.21 74.05 73.47 72.70 73.14
59.60 60.46 61.46 61.86 62.26 62.94 64.02 64.98 66.34 68.05 68.32 69.11 69.97 69.51 69.76 71.24 73.38 74.42 72.81 73.75 74.38 74.72 74.20 72.89 72.05 71.40 69.62 72.18 73.27 73.95 73.31 73.08 72.66
59.24 59.51 60.03 60.03 59.38 59.51 61.49 63.14 62.95 64.36 65.86 68.21 68.84 68.52 69.11 69.31 69.54 70.59 72.38 74.54 74.62 75.06 75.07 74.57 73.83 73.75 73.47 74.49 74.13 73.90 74.39 73.27 72.77
58.43 59.09 59.37 59.58 59.75 60.14 60.35 61.15 61.96 62.33 63.72 66.19 66.05 66.72 67.85 68.23 69.54 70.24 69.62 70.28 73.22 74.31 73.87 75.14 74.45 73.63 73.90 74.82 74.30 74.73 73.97 73.95 73.61
57.56 57.96 58.63 59.54 60.38 60.60 60.19 60.39 60.98 61.85 62.68 64.24 64.27 64.37 65.86 67.73 67.78 68.21 68.48 69.43 69.99 72.92 72.70 73.12 73.77 74.11 74.19 73.75 75.28 70.71 69.17 72.59 73.21
55.40 54.95 55.51 55.53 56.05 55.43 55.47 59.18 61.12 60.45 60.60 62.47 62.94 63.50 64.03 64.98 65.80 65.58 65.87 67.71 68.12 68.30 68.73 72.02 72.34 72.73 72.21 73.30 74.29 68.59 66.72 66.67 70.42
53.92 54.03 53.88 53.92 54.83 55.31 55.78 56.72 57.46 61.14 61.89 62.09 62.20 62.04 62.65 63.43 64.29 64.38 64.58 64.96 65.51 65.91 66.99 67.91 69.20 71.21 73.23 73.11 73.74 68.03 64.31 66.37 68.50
53.42 52.90 52.60 52.68 54.50 55.51 55.19 55.45 56.08 57.76 58.79 58.97 58.37 58.68 60.05 61.89 62.94 62.77 63.71 63.57 64.43 64.78 65.75 66.59 67.74 69.36 70.37 72.33 72.14 65.68 63.69 65.09 69.88
52.35 52.54 52.24 52.40 53.56 54.19 53.86 53.37 55.00 55.13 55.89 55.79 56.01 56.97 57.63 59.86 60.42 60.13 60.90 62.22 62.47 63.64 64.21 64.86 67.26 67.11 69.10 68.41 72.01 66.39 62.64 63.44 69.67
52.27 52.11 51.97 52.65 53.05 52.51 52.91 53.92 54.05 53.68 54.29 53.96 55.62 56.66 57.08 58.15 58.69 59.61 58.77 60.40 60.45 60.67 61.46 63.74 64.59 65.99 67.29 69.69 70.05 68.79 58.82 59.12 67.42
50.94 50.80 51.79 52.17 51.26 51.80 53.03 52.75 52.43 51.64 51.27 53.24 54.89 55.71 55.56 56.01 56.62 57.84 58.80 59.00 59.99 60.51 59.75 60.37 63.05 64.89 66.21 67.80 66.77 59.91 57.90 56.83 57.19
50.04 49.94 50.06 50.06 49.31 49.95 50.38 51.22 50.74 49.67 51.52 52.27 52.62 53.85 54.51 55.39 55.57 56.23 57.22 57.45 56.77 56.50 58.25 57.19 60.17 62.57 62.06 62.75 64.30 65.36 57.19 56.83 58.39
47.74 48.29 48.08 49.16 48.61 48.08 48.41 49.52 49.71 49.26 49.61 50.20 49.66 49.29 50.40 52.03 53.36 53.67 53.94 55.37 56.64 56.20 55.41 55.81 56.31 55.67 56.44 56.83 57.65 59.16 64.67 60.54 61.09
47.08 47.37 48.00 48.16 47.11 47.00 47.27 48.27 48.42 48.26 48.46 48.84 47.27 47.31 48.15 49.15 50.26 50.26 51.57 53.49 53.76 54.82 55.12 52.79 51.18 53.09 55.69 54.93 54.73 56.17 54.12 51.63 55.20
46.87 46.78 47.46 47.16 46.78 47.01 47.29 47.04 46.03 47.21 47.55 47.81 47.13 46.38 46.99 47.45 47.43 48.49 49.72 50.92 51.60 51.88 49.88 48.72 46.64 45.44 47.39 54.78 52.81 49.33 47.36 46.23 43.62
48.73 47.69 46.69 46.40 45.84 46.38 46.29 45.98 47.49 46.84 47.34 46.94 46.78 45.23 46.03 45.58 46.47 47.11 47.43 48.11 48.97 49.02 51.19 49.78 47.88 46.57 46.06 44.05 45.31 44.81 44.59 44.80 41.96

GFSFLT1_sfc_wetblb_096.txt.gz
Wetbulb
64.98 64.94 65.61 66.15 66.31 66.56 67.55 68.76 69.79 71.46 70.19 68.88 70.08 70.38 70.75 70.48 70.78 70.49 70.05 69.76 69.35 70.23 70.85 71.40 71.84 72.80 72.82 72.73 72.43 72.18 72.05 70.90 71.47
63.17 65.28 65.89 65.92 66.33 66.90 67.31 68.06 69.81 70.37 70.90 70.65 70.17 71.05 70.83 70.83 71.24 70.59 69.47 69.99 70.69 69.53 71.06 72.41 73.47 73.23 73.34 72.99 73.16 72.29 72.49 71.72 71.82
63.05 65.31 67.58 67.77 67.97 68.24 68.70 69.13 69.37 70.19 71.13 70.08 70.05 71.46 71.26 72.26 71.70 71.00 71.11 71.16 71.20 72.15 71.55 72.64 72.82 73.08 73.42 73.36 73.22 72.82 72.37 71.58 71.23
62.01 63.06 65.28 65.90 67.13 68.19 68.48 68.97 68.52 68.91 68.80 69.36 69.43 70.07 69.90 70.09 72.24 72.12 71.29 71.99 72.09 71.22 71.28 71.21 71.43 71.60 71.99 72.06 72.67 72.78 71.47 71.13 71.54
61.33 62.28 63.60 65.09 66.10 67.11 67.52 68.03 69.00 68.82 68.76 68.84 69.32 69.59 70.04 70.62 71.61 71.41 72.00 72.40 72.54 72.06 70.69 70.79 70.15 69.79 69.43 69.68 70.52 71.75 72.39 71.46 72.12
60.59 60.84 60.85 61.61 62.65 63.66 65.19 66.55 68.35 68.53 68.76 68.96 69.14 69.07 69.23 69.25 69.46 71.54 71.76 72.10 72.70 72.44 70.39 70.27 69.89 67.89 65.67 64.81 68.08 71.16 72.57 72.66 72.29
59.17 58.96 58.68 59.42 59.87 61.02 62.01 63.19 64.49 65.66 67.67 69.36 69.27 69.00 68.12 67.94 69.09 69.41 69.05 70.20 71.73 71.93 72.35 71.31 70.77 70.67 69.76 69.29 71.02 72.02 72.99 72.58 71.36
57.78 58.22 58.16 57.35 57.65 58.65 59.49 59.95 62.22 64.03 65.65 65.87 67.70 67.99 67.74 67.74 68.17 69.14 67.65 68.37 69.12 70.40 72.29 72.67 72.93 72.41 72.51 72.58 73.38 73.96 72.52 73.09 72.45
57.48 58.01 58.91 59.22 58.71 58.54 58.93 59.12 60.24 62.31 63.42 63.66 64.86 65.60 66.20 67.49 66.93 66.95 67.36 68.03 68.37 68.69 68.89 71.61 72.38 72.99 71.99 71.84 73.77 69.93 68.01 71.28 72.30
55.06 55.12 55.16 55.31 56.49 57.43 59.44 60.03 60.59 60.64 61.85 62.62 62.43 62.67 63.84 64.75 64.69 64.53 64.92 65.26 65.61 66.30 66.77 67.97 68.39 70.51 71.70 71.50 72.41 66.87 65.22 67.13 69.78
53.65 53.68 53.31 53.17 53.46 54.34 55.04 55.78 59.59 60.65 61.03 60.79 61.32 62.25 63.17 64.15 64.55 64.40 63.83 64.29 64.06 64.35 65.83 66.54 67.24 67.90 69.07 69.86 72.29 66.01 64.23 65.43 68.53
51.14 50.56 50.90 52.43 52.78 52.43 52.80 54.15 55.48 56.36 55.83 56.06 56.15 56.32 58.39 60.56 61.68 61.72 63.67 63.29 63.73 64.28 64.20 64.61 65.44 67.07 67.56 68.37 69.41 63.50 61.68 64.03 69.78
51.32 51.41 51.45 51.76 51.84 52.17 52.33 52.39 54.68 53.69 53.18 53.53 53.49 54.05 55.65 56.76 57.83 58.41 59.57 60.09 61.12 62.94 63.48 64.55 65.42 65.76 66.55 65.49 68.44 60.03 58.76 62.23 68.87
50.83 51.05 51.38 51.95 51.85 50.85 50.26 51.16 51.77 50.48 50.92 50.78 52.58 54.29 54.91 55.02 54.80 55.71 56.33 56.83 58.07 59.77 59.27 59.50 61.14 63.92 65.68 67.34 65.65 62.79 56.59 57.86 66.38
49.26 49.55 50.60 50.64 49.33 48.70 48.88 49.64 50.16 48.36 47.93 50.05 50.87 51.62 51.61 52.13 53.72 54.76 55.69 54.82 55.49 55.29 55.49 56.64 57.75 61.33 62.86 65.39 65.06 58.80 56.31 55.86 57.68
47.89 48.05 48.01 48.65 47.94 47.34 47.72 48.38 48.56 46.52 46.88 48.42 47.86 48.01 48.14 49.21 49.86 50.80 51.84 52.01 53.01 54.28 54.49 54.34 54.39 54.12 55.50 56.11 57.46 61.92 55.70 56.17 56.75
46.40 47.20 46.96 46.85 46.70 45.87 45.45 46.42 46.63 46.40 47.09 47.03 46.21 45.41 45.78 46.75 47.05 47.26 48.11 50.61 51.50 51.36 51.05 50.69 50.73 50.76 51.18 52.96 54.26 55.08 56.70 59.22 55.83
45.44 45.29 45.67 45.67 45.36 44.82 45.02 45.16 45.11 45.31 45.92 46.22 45.35 45.21 45.23 44.65 44.89 44.91 46.57 48.28 48.78 49.93 49.66 47.31 47.84 48.76 48.53 49.17 50.77 53.20 50.18 49.63 53.14
45.89 45.35 45.02 44.75 44.92 44.81 44.22 43.76 44.65 44.99 45.34 45.25 43.66 43.47 44.29 44.26 43.70 44.21 44.80 44.91 46.24 47.79 46.96 46.52 44.73 43.73 44.97 49.33 47.65 45.22 43.87 42.62 42.42
47.25 45.12 44.80 44.13 44.18 44.26 43.99 43.84 43.75 44.05 45.26 44.44 43.76 42.30 43.28 42.48 42.76 42.32 42.35 43.18 43.32 43.40 46.13 46.52 45.14 44.29 44.53 44.36 43.42 43.21 42.56 42.11 41.66

GFSFLT1_sfc_wetblb_102.txt.gz
Wetbulb
61.91 62.72 64.69 65.54 66.21 66.23 66.41 67.81 68.08 68.24 68.14 67.90 68.98 69.38 69.04 69.12 68.45 69.47 69.09 70.50 70.41 70.90 71.17 72.17 73.34 72.95 73.27 72.71 72.36 71.40 71.43 72.62 72.90
62.56 62.39 63.71 64.18 65.88 66.68 66.65 67.24 68.97 68.29 68.49 68.05 68.85 69.62 69.69 69.74 69.70 69.66 69.50 70.42 70.93 71.44 71.95 72.46 72.95 72.93 73.22 73.05 73.12 72.39 73.47 72.60 72.60
62.96 65.01 65.09 65.56 65.10 66.60 67.47 67.72 68.57 70.32 69.27 68.00 68.86 69.06 69.97 70.08 70.12 70.77 71.01 70.90 70.67 70.47 71.30 71.85 72.48 71.68 72.74 72.56 73.48 73.50 73.19 73.25 73.09
62.51 63.93 65.46 66.28 66.84 66.82 67.26 69.02 69.08 70.14 69.66 69.43 69.73 69.92 69.79 70.37 70.43 70.99 71.39 71.10 71.08 71.62 72.78 72.26 72.17 72.45 72.82 73.28 73.16 73.54 73.17 72.56 73.04
62.99 64.32 65.62 67.06 67.51 66.91 66.98 68.23 69.02 68.73 68.93 69.75 69.81 70.07 70.67 70.86 71.43 71.85 70.97 71.30 71.49 72.52 72.70 72.57 72.05 72.51 73.06 73.30 72.97 73.84 73.24 72.77 72.39
61.56 62.38 63.33 64.03 65.70 66.48 67.04 67.49 67.71 68.14 68.19 68.35 68.91 68.98 68.73 69.04 67.99 68.66 68.96 70.24 71.31 72.18 72.44 72.41 71.30 71.49 71.95 72.02 72.14 72.35 72.35 72.83 73.18
60.17 61.05 61.82 62.23 62.47 64.07 67.06 67.31 66.88 67.22 68.12 68.62 68.71 68.41 67.94 68.08 66.97 67.69 68.30 68.77 69.07 69.58 71.54 72.50 71.44 71.37 70.71 70.24 70.31 70.34 71.00 72.16 72.84
58.33 58.90 59.56 60.38 60.32 61.39 63.47 65.21 65.73 66.59 67.40 68.68 68.75 68.41 68.14 67.40 68.17 68.19 67.96 67.65 67.85 68.21 69.00 69.72 71.85 71.71 71.52 71.35 70.17 69.86 70.41 70.97 72.16
56.75 57.06 57.75 58.72 59.37 60.90 61.58 61.97 62.51 63.37 64.51 65.70 67.69 68.17 67.67 67.60 67.12 67.06 66.10 66.30 66.40 66.75 67.27 67.87 68.70 69.67 71.25 71.63 72.51 66.97 65.53 68.63 72.69
56.01 56.39 57.31 57.94 58.83 59.52 60.53 60.71 61.10 60.46 62.08 63.18 63.06 63.36 64.24 64.78 64.97 64.50 63.86 64.62 64.49 64.98 65.47 66.73 66.73 67.54 68.63 69.11 70.89 62.21 62.53 65.57 70.01
54.86 55.14 56.11 57.38 58.16 57.26 57.08 56.96 57.00 57.04 56.97 56.92 57.12 57.26 58.29 61.53 63.39 61.94 62.11 62.28 62.94 63.07 63.67 65.13 65.67 66.44 67.36 68.12 69.04 60.53 59.95 62.94 70.06
53.70 53.58 53.99 55.64 55.65 55.25 55.00 54.98 55.45 55.03 55.07 55.27 55.01 54.86 55.05 56.62 58.82 58.85 58.90 58.51 59.98 61.72 61.08 60.97 63.62 65.39 66.46 68.08 62.82 57.76 59.29 65.39 69.54
52.23 53.16 54.43 53.99 53.48 52.76 52.34 51.89 52.85 52.27 51.58 52.04 51.77 52.42 52.80 54.71 55.53 55.75 57.12 58.12 58.92 60.19 60.02 60.05 62.79 65.99 65.68 62.26 63.71 55.06 55.97 60.97 63.09
51.36 52.56 52.37 52.06 51.62 50.50 49.87 50.04 50.29 48.78 48.96 48.68 50.34 51.56 51.09 51.18 52.10 52.74 53.36 54.46 55.30 56.07 57.24 57.30 56.79 56.79 57.31 57.47 55.39 53.59 52.57 53.70 58.83
49.97 49.60 50.26 50.43 48.96 48.14 47.84 48.46 48.08 46.66 46.47 48.09 49.29 49.44 49.35 49.86 50.28 51.29 51.49 52.01 52.41 52.37 52.82 52.67 52.86 52.77 53.27 54.53 55.94 51.82 50.83 50.68 51.94
49.33 48.32 47.88 48.31 47.15 46.54 46.89 47.34 47.36 45.89 46.37 47.69 47.53 46.89 46.75 47.30 48.27 48.61 50.21 49.97 49.37 48.81 49.87 50.29 50.57 50.61 50.08 50.44 52.10 50.90 49.80 49.61 50.35
47.72 48.08 47.21 46.88 46.45 45.75 45.02 46.21 46.36 46.17 46.72 46.84 46.17 45.36 45.36 45.32 45.75 45.49 46.69 48.12 48.24 47.69 47.46 47.66 47.80 47.75 47.58 48.59 49.73 48.91 47.92 47.81 48.25
47.27 46.70 46.42 46.62 45.82 44.65 44.51 45.36 45.48 45.85 45.87 46.01 44.88 44.58 43.95 43.27 43.34 43.61 44.08 44.97 45.36 46.27 46.65 46.35 46.50 45.71 45.97 45.85 46.10 45.89 44.15 43.04 45.31
47.36 46.37 46.58 46.21 45.13 44.50 44.20 44.46 44.60 44.76 45.17 45.07 44.00 42.75 42.76 42.48 42.40 42.85 43.00 43.04 43.15 44.04 44.30 43.30 41.96 41.58 42.92 45.14 43.30 41.67 40.61 39.64 40.59
47.31 46.14 45.87 45.49 44.96 44.96 44.78 44.54 44.45 44.54 44.78 43.81 42.77 41.62 41.67 41.85 41.94 41.53 41.14 41.17 40.89 39.73 41.65 42.99 40.94 40.27 40.69 40.53 39.90 39.45 38.86 38.83 39.67

GFSFLT1_sfc_wetblb_105.txt.gz
Wetbulb
65.59 65.74 66.78 68.15 69.12 69.62 69.52 70.34 70.94 71.48 72.15 72.81 73.72 73.88 74.26 74.58 74.71 74.04 73.68 74.20 73.96 74.44 75.29 76.64 76.87 77.42 77.32 76.20 76.01 75.71 75.83 75.96 76.34
63.79 63.95 66.43 67.71 69.13 69.67 69.59 68.67 70.96 71.43 71.48 72.38 73.26 73.08 73.99 74.26 74.25 74.17 74.32 74.88 75.17 74.95 75.93 75.41 76.54 76.90 76.85 76.85 76.67 76.00 75.90 75.65 76.11
64.24 65.53 66.33 66.79 67.14 69.35 70.15 69.73 70.94 71.25 72.20 71.70 72.15 73.41 74.04 74.23 74.64 74.65 74.92 75.03 74.92 75.08 75.59 76.32 75.97 76.27 76.64 76.69 76.89 76.97 76.72 77.02 77.07
64.80 64.80 66.12 67.06 68.29 69.73 69.59 70.20 71.25 72.03 72.69 72.63 70.43 72.86 74.16 74.55 74.56 74.86 75.28 75.05 75.23 75.38 75.65 75.72 75.53 75.79 75.64 76.05 76.42 76.88 76.91 76.69 76.81
66.29 66.84 67.18 68.49 68.65 68.73 69.33 68.65 69.77 71.17 71.76 71.82 72.80 72.67 73.63 73.58 74.37 74.66 74.44 74.62 75.29 75.57 75.32 76.17 76.08 76.19 76.34 76.62 76.43 76.75 76.84 76.02 75.98
63.81 65.32 66.54 67.11 68.55 68.47 68.55 68.56 68.46 70.26 70.36 70.70 72.32 72.50 72.29 73.43 74.20 74.33 74.73 74.74 75.05 76.06 75.82 76.26 76.06 75.21 75.74 76.21 76.43 76.41 76.65 76.77 76.40
62.89 63.57 64.11 64.73 66.96 67.54 67.45 67.63 67.70 68.33 69.22 69.40 70.14 69.85 69.93 70.27 72.28 72.62 72.50 73.22 73.44 74.39 75.87 76.17 75.91 75.55 75.28 75.41 75.30 74.70 74.95 74.95 75.18
60.80 61.43 62.42 62.23 63.09 67.11 68.11 68.23 66.51 65.72 68.17 68.91 68.82 68.62 68.28 67.65 68.73 70.71 71.21 71.58 71.78 72.65 73.79 74.30 75.58 75.65 75.53 75.32 73.95 73.69 74.40 74.71 74.79
59.65 60.00 60.42 60.75 61.94 63.07 64.64 66.67 66.61 66.92 67.79 68.92 68.89 68.40 67.92 68.84 68.82 70.36 69.33 70.19 70.19 70.69 71.51 72.30 73.53 74.22 74.73 74.28 73.68 63.35 65.00 70.69 75.73
59.11 59.47 59.65 59.68 60.52 60.44 60.82 62.08 63.23 63.15 64.39 65.21 64.80 65.42 66.59 67.27 65.73 65.65 66.53 67.87 68.43 68.84 69.52 70.52 70.52 71.54 72.64 72.29 69.87 60.71 61.78 65.69 75.32
58.04 58.65 58.90 58.38 57.40 57.63 58.21 58.22 57.93 58.02 58.46 58.79 59.55 60.20 61.91 63.06 63.51 63.77 65.17 64.77 63.80 64.73 66.72 67.74 69.26 70.77 71.40 67.11 62.77 58.02 60.01 63.99 74.41
60.74 60.47 57.30 55.55 55.57 56.09 56.37 56.04 57.12 57.14 56.68 58.10 57.73 56.78 57.29 58.61 60.89 61.56 62.86 61.57 61.53 62.90 63.90 65.52 68.47 69.14 66.27 62.81 59.48 54.49 56.43 64.55 67.68
58.31 57.37 55.59 54.79 54.37 54.23 54.01 54.55 55.20 54.09 54.33 54.02 52.92 53.69 54.82 56.78 58.97 60.98 61.15 62.16 62.53 62.23 63.30 61.77 59.85 59.78 59.39 55.56 55.87 51.92 52.85 59.42 63.81
56.92 55.39 53.97 54.15 53.51 52.64 52.48 54.39 54.26 53.57 53.92 52.69 53.37 53.95 53.61 54.62 56.64 56.35 57.28 57.95 59.03 59.72 59.31 57.71 57.77 57.10 56.87 54.49 53.50 50.49 50.77 51.64 58.26
56.05 55.45 53.66 53.33 54.04 54.48 54.69 55.24 55.04 53.83 53.52 54.55 54.46 55.15 55.53 56.04 56.79 56.44 56.58 55.95 55.59 57.11 58.66 57.72 57.30 56.73 56.02 54.47 54.91 50.05 49.67 49.99 50.75
55.90 56.17 55.41 55.34 54.13 53.17 53.42 54.09 54.29 52.63 52.60 53.56 53.72 53.74 53.38 53.44 54.35 54.80 55.03 55.03 54.83 54.43 56.07 53.98 53.61 54.98 54.09 53.39 53.24 52.67 49.23 48.69 49.35
53.35 54.10 53.65 53.67 53.25 51.93 51.33 52.20 52.49 52.14 52.27 52.62 52.49 51.46 51.22 51.65 51.67 51.63 52.81 52.87 52.81 52.36 52.19 51.88 51.52 51.05 49.23 50.52 50.30 48.08 48.05 48.18 49.84
49.12 50.29 52.46 53.23 52.54 51.71 50.92 51.65 51.41 51.60 51.81 52.15 50.29 49.61 49.36 49.52 49.55 49.76 49.12 49.30 50.12 49.32 47.31 47.47 48.47 48.53 49.03 48.12 45.11 42.89 42.10 41.93 45.16
49.07 49.03 49.85 50.60 51.73 51.58 50.60 50.88 50.60 51.04 51.92 51.57 49.84 48.61 48.37 48.14 48.32 48.38 48.17 47.46 46.44 43.48 42.44 41.44 40.65 40.52 43.39 46.09 41.00 40.25 39.44 38.62 39.24
50.07 49.72 50.35 49.93 48.95 50.93 50.74 50.40 49.81 50.54 50.87 50.34 49.52 48.12 47.96 46.70 46.77 46.84 46.60 46.65 46.11 44.21 42.96 41.42 40.01 39.56 39.45 39.31 38.46 38.65 38.05 38.06 38.94

GFSFLT1_sfc_wetblb_108.txt.gz
Wetbulb
67.12 68.23 68.75 69.11 70.99 71.97 71.49 73.27 73.97 74.29 74.88 75.37 75.98 76.05 76.06 76.70 76.76 74.66 76.91 75.94 75.63 74.84 77.18 75.29 77.28 77.00 76.71 77.08 78.05 77.66 77.92 76.69 76.41
66.96 67.50 68.49 68.95 70.81 72.05 72.75 73.20 74.11 74.35 74.77 75.40 75.48 75.44 76.25 76.27 76.36 75.52 77.47 75.72 78.18 76.10 77.13 76.70 77.06 77.03 76.94 77.32 77.03 77.76 77.95 76.02 76.39
67.43 67.04 67.75 69.12 70.39 71.98 73.06 73.62 73.83 74.48 75.07 75.10 75.35 75.25 75.67 75.13 75.54 76.39 76.30 76.29 75.48 76.80 77.81 77.97 77.11 76.71 76.87 77.40 77.94 78.12 77.63 76.55 76.90
67.89 68.10 67.52 67.96 70.41 72.10 72.78 73.26 71.64 72.07 74.78 74.97 74.49 75.27 75.50 75.38 75.37 75.07 76.53 76.42 75.83 76.67 77.14 78.27 76.79 77.00 76.97 76.51 76.82 77.70 77.93 77.20 76.40
68.85 69.01 68.83 69.22 68.19 69.37 70.05 72.06 72.99 71.69 72.89 73.44 74.91 75.03 75.01 75.67 75.38 75.26 74.67 75.40 75.50 76.38 75.93 77.63 77.23 77.01 77.39 76.74 76.80 77.54 76.93 76.41 76.40
68.25 68.61 68.99 69.63 68.43 68.79 71.21 70.53 70.31 71.89 72.65 73.27 74.79 75.04 74.84 75.13 75.24 74.53 74.81 75.22 75.97 76.21 76.48 76.19 76.52 77.17 76.35 75.82 76.40 76.37 76.56 76.69 76.59
67.06 67.81 67.94 69.56 70.52 69.09 68.64 70.78 69.39 69.68 69.99 70.69 73.12 73.93 74.13 74.75 74.81 74.59 75.23 75.73 76.30 75.81 76.10 76.42 76.01 76.07 76.64 76.47 76.71 76.30 76.52 76.40 76.00
64.75 65.40 65.40 66.50 68.80 69.53 69.40 69.91 68.98 68.77 69.36 70.13 70.20 70.11 72.58 73.37 74.90 75.49 75.43 75.54 75.68 75.93 76.43 76.50 76.85 76.26 76.35 76.93 76.94 75.59 76.88 76.94 76.73
63.02 63.63 64.12 63.99 65.12 69.53 69.56 69.36 69.11 68.98 68.54 69.22 69.94 69.18 68.70 68.37 69.98 70.37 72.45 73.99 74.20 74.42 74.81 76.28 76.40 76.14 76.07 76.05 74.87 62.59 64.42 70.67 76.92
61.94 62.62 63.39 62.58 61.40 64.12 68.18 68.73 68.89 67.82 69.56 70.69 69.64 69.39 68.73 67.99 68.19 67.26 68.10 69.07 71.19 72.67 73.11 73.81 73.92 74.87 74.41 71.58 70.66 59.45 61.98 65.06 76.08
61.79 61.93 60.59 59.78 59.68 58.64 63.37 65.54 67.83 67.07 67.50 66.38 65.72 65.20 66.30 67.11 67.02 66.87 66.09 66.73 67.20 68.82 71.53 72.43 73.23 70.15 70.14 68.04 63.27 56.85 59.50 65.32 75.23
63.04 60.97 60.36 58.19 57.28 57.78 58.36 58.99 59.76 60.19 59.50 60.22 60.47 61.23 62.05 63.45 63.79 65.13 66.49 66.23 66.92 67.31 66.20 69.89 67.17 67.83 67.06 63.33 59.38 53.39 54.74 65.62 72.03
60.99 59.79 56.21 55.25 56.05 56.00 55.53 56.66 57.66 56.65 56.52 57.42 56.38 57.66 60.60 62.60 63.16 64.08 64.45 65.04 66.66 68.36 65.40 62.69 62.01 61.79 60.66 56.62 58.11 50.85 51.55 58.84 68.73
60.55 57.55 56.16 55.53 54.15 53.35 54.41 55.53 55.38 54.52 54.80 54.20 54.82 55.49 58.06 59.77 62.57 63.25 64.75 65.03 67.15 65.69 61.50 60.41 59.33 58.34 57.84 56.20 57.05 53.31 49.72 50.25 59.94
59.02 57.83 57.35 56.37 53.77 53.58 55.18 56.09 56.64 55.02 54.45 56.21 57.84 57.40 57.06 58.19 60.05 61.12 61.36 62.89 63.61 62.68 61.07 60.17 60.42 59.94 59.79 58.63 56.43 49.76 49.17 49.40 50.38
55.97 54.99 55.41 56.15 54.30 54.07 55.88 57.47 57.68 56.15 56.41 58.77 59.54 59.00 59.11 59.83 60.13 60.52 61.25 61.01 61.47 60.42 61.44 59.91 58.78 58.70 57.99 57.80 57.85 56.44 49.23 49.34 50.00
55.82 55.16 53.70 54.63 55.12 54.57 54.41 56.69 58.09 57.97 57.97 58.46 57.89 57.44 57.32 57.94 58.25 57.91 58.16 58.26 58.33 58.58 58.78 58.13 57.25 56.44 55.76 53.70 51.77 47.68 48.31 51.22 52.48
57.62 56.79 56.94 56.05 55.86 54.81 55.67 56.42 56.10 56.41 56.69 56.78 55.91 56.10 55.75 55.15 55.45 55.78 54.83 51.87 53.28 51.85 48.24 49.07 54.88 54.26 53.08 52.72 49.97 45.48 41.96 41.61 46.54
53.44 55.63 56.48 55.88 55.91 55.89 55.60 55.55 55.08 55.76 56.23 55.79 54.74 53.70 53.64 53.52 53.49 53.35 52.51 50.37 46.60 42.22 42.27 40.85 39.65 39.38 44.66 45.67 41.22 40.06 39.43 38.57 39.26
52.26 52.47 54.43 55.25 54.69 54.21 54.43 53.66 54.23 54.88 55.20 55.25 54.37 53.28 53.11 51.88 51.71 51.95 51.41 50.82 48.99 45.23 42.46 41.17 39.70 38.97 39.21 39.02 38.40 38.98 38.15 38.09 38.73

GFSFLT1_sfc_wetblb_111.txt.gz
Wetbulb
66.45 68.01 68.63 68.42 68.81 69.27 72.07 72.43 72.91 73.04 74.81 75.51 75.79 75.56 76.02 76.39 76.37 74.89 75.20 75.55 73.36 74.67 76.31 74.85 78.19 77.23 77.61 77.36 77.68 77.77 78.13 76.79 76.55
65.33 68.15 68.27 69.41 70.66 71.94 72.17 72.60 73.32 73.83 75.05 75.62 75.56 75.47 76.06 76.39 76.40 75.87 75.91 75.98 76.85 76.14 77.64 76.44 77.13 76.94 76.84 77.16 77.59 77.78 78.37 76.11 76.75
66.12 67.66 67.98 68.98 69.77 70.75 72.17 72.94 73.41 74.34 75.24 75.46 75.62 75.40 75.59 75.49 75.61 76.22 76.10 76.57 75.96 76.60 72.59 77.74 77.89 76.90 76.70 76.79 77.21 77.94 78.29 78.16 77.65
66.40 67.68 68.89 70.19 70.03 70.91 73.10 73.09 73.46 74.20 74.72 75.69 75.59 75.55 75.95 75.66 75.11 75.20 75.96 75.87 76.13 76.79 76.98 77.03 77.23 77.47 77.08 76.92 77.01 77.37 77.28 78.32 77.85
68.90 68.66 69.24 70.14 70.66 72.55 73.86 74.01 74.62 74.58 74.93 75.01 75.90 76.56 77.14 75.80 76.11 75.64 74.58 75.08 75.73 76.94 76.80 77.06 77.20 77.60 77.16 76.85 76.82 78.10 77.14 76.32 76.57
69.10 68.84 69.65 68.71 68.35 71.87 73.05 73.22 73.62 73.87 74.38 75.02 75.94 76.20 75.68 75.48 76.64 75.03 74.96 74.91 75.32 76.32 77.11 77.21 76.77 76.88 77.23 77.55 77.07 77.70 77.59 77.17 76.86
69.31 70.04 70.19 69.47 69.39 69.15 70.72 71.66 72.62 73.22 72.92 74.60 74.56 73.95 73.64 76.35 76.42 75.84 75.20 76.01 75.66 75.66 76.54 76.64 76.88 77.20 76.85 76.89 77.08 77.27 76.79 76.60 76.60
68.47 68.81 69.69 69.88 69.76 70.38 71.33 71.25 70.56 69.73 69.94 69.90 71.02 70.98 72.49 72.74 76.40 77.25 76.97 76.52 76.47 75.84 76.00 76.38 76.45 76.64 76.67 76.70 76.15 74.50 74.93 76.79 76.69
65.93 66.15 66.81 69.72 70.34 70.79 70.38 71.41 70.06 69.58 69.48 71.84 71.40 71.03 71.16 72.69 74.71 73.09 75.75 75.77 74.34 76.46 75.98 76.12 76.23 76.00 76.16 76.41 71.11 62.64 63.27 69.46 75.99
64.08 65.72 64.84 65.35 67.48 68.97 71.52 70.94 70.82 70.48 71.17 72.22 71.55 71.27 70.99 69.66 71.14 68.80 69.70 70.63 73.44 74.56 74.04 75.26 75.11 75.15 73.39 71.55 67.67 57.78 60.00 65.25 74.24
64.84 64.71 63.75 63.83 61.39 65.02 68.17 69.92 70.38 69.82 70.38 70.09 71.14 70.14 69.63 69.12 68.23 67.07 67.07 67.25 67.36 68.22 70.67 73.21 73.64 71.50 70.16 68.07 62.15 55.41 57.22 61.55 75.83
65.19 64.40 62.66 61.54 60.46 59.47 61.54 64.84 67.42 68.10 69.18 67.65 65.82 64.22 65.29 67.47 68.11 68.17 67.92 66.13 65.67 67.18 69.07 67.97 68.49 68.46 65.20 63.05 58.44 52.86 55.05 65.25 74.08
63.49 64.24 61.14 57.80 57.77 57.59 57.55 58.95 62.99 61.70 60.30 60.93 59.97 61.94 63.08 64.64 65.73 65.82 67.45 69.06 69.26 69.99 67.72 65.60 63.96 60.42 60.88 57.80 58.13 50.88 51.76 59.16 70.14
61.50 58.91 56.65 57.31 56.61 54.80 55.32 56.39 57.22 55.40 55.04 54.62 56.55 57.94 61.32 63.95 65.89 66.43 66.66 67.50 67.97 65.48 62.42 62.10 61.24 57.97 57.21 55.93 56.41 52.54 50.38 50.90 60.37
57.79 56.02 55.33 54.59 54.16 55.49 56.12 56.47 55.64 55.16 54.98 57.13 57.49 58.43 58.88 60.42 63.39 63.86 65.14 66.52 65.79 63.71 61.19 59.89 59.20 59.40 61.13 60.54 58.58 50.78 50.01 49.73 50.82
56.96 56.83 56.09 56.10 54.78 54.41 56.66 57.96 56.80 54.89 57.44 60.05 59.73 58.74 58.72 59.98 60.89 62.45 64.34 64.03 63.89 62.00 63.15 63.22 63.39 62.68 61.32 59.80 58.48 55.41 50.62 49.50 49.97
58.65 59.12 58.56 57.63 56.91 55.76 54.91 58.19 56.95 57.40 57.77 59.98 60.35 59.39 59.72 60.43 60.45 60.71 61.92 62.18 62.54 61.65 61.50 61.38 60.35 59.86 59.16 58.46 55.95 52.20 51.48 51.58 53.30
55.91 54.92 54.80 56.75 56.53 56.82 55.56 57.44 56.62 57.51 58.75 59.52 58.94 58.90 58.78 59.17 57.92 59.19 54.36 49.88 51.28 54.18 47.10 45.05 58.32 55.76 55.29 52.58 52.71 46.29 42.20 43.16 48.56
55.85 54.88 55.25 55.24 55.19 56.03 55.73 56.02 56.50 57.43 59.24 58.83 57.53 56.83 56.78 56.64 56.83 56.57 55.25 52.33 46.78 41.51 41.35 40.59 39.60 39.91 45.63 46.63 41.41 40.62 39.84 39.04 39.39
54.71 56.64 57.41 55.95 54.63 55.51 56.00 55.64 54.94 56.69 57.08 57.30 57.00 56.30 55.74 55.09 54.55 54.99 54.02 51.89 49.99 46.25 42.48 41.02 39.68 39.35 39.63 39.64 38.94 39.49 38.72 38.44 39.13

GFSFLT1_sfc_wetblb_114.txt.gz
Wetbulb
66.70 66.99 67.82 67.99 67.92 69.25 69.21 70.71 71.62 73.68 75.18 75.22 75.46 76.09 77.02 76.93 76.43 75.46 75.57 77.35 74.63 73.22 73.01 76.89 77.94 77.52 77.94 77.96 78.21 78.10 79.08 78.26 77.43
65.15 65.70 66.58 68.10 70.44 69.99 69.79 70.53 71.31 74.92 75.12 75.23 75.51 75.69 76.79 77.09 77.56 77.15 77.56 76.94 71.79 74.02 76.65 76.04 77.45 78.07 77.74 78.04 77.63 79.11 78.99 77.64 78.12
65.71 66.33 65.73 67.28 68.54 70.30 68.56 69.46 71.32 74.98 75.50 75.39 75.37 75.25 75.85 75.72 76.48 77.23 78.24 78.42 76.52 75.74 75.29 72.48 71.21 76.40 77.39 76.97 77.20 79.11 78.48 77.10 76.53
65.61 65.30 66.21 68.26 68.05 69.55 70.69 72.08 73.31 73.90 74.72 75.05 74.89 75.24 75.35 75.71 75.22 75.80 77.29 77.07 77.79 77.89 72.93 70.78 75.64 77.75 77.85 77.58 78.01 78.29 77.98 77.92 76.80
67.33 67.63 68.82 69.98 70.64 68.61 70.19 72.85 72.28 69.41 73.48 73.37 74.51 75.29 74.62 75.95 75.61 76.04 75.73 76.40 76.98 76.87 77.11 76.48 76.45 78.00 78.73 78.47 78.44 77.27 78.45 77.39 76.20
67.01 68.00 68.71 69.80 68.59 68.90 68.87 71.38 69.61 68.77 67.27 72.00 75.59 73.82 75.88 74.16 74.77 75.31 76.48 76.03 76.98 77.74 77.59 78.32 77.18 77.47 78.28 77.55 77.51 77.10 76.70 77.59 77.52
66.14 65.76 69.15 69.07 71.04 70.59 66.09 67.66 73.23 74.43 74.68 75.09 76.36 75.39 75.00 75.41 75.34 73.64 73.68 75.70 77.04 76.79 78.20 77.19 77.02 76.91 77.07 77.97 76.67 76.73 76.52 76.51 75.98
66.34 67.74 67.53 67.23 68.98 70.80 71.94 71.64 71.24 71.27 71.58 70.00 70.02 70.82 70.50 73.78 73.50 73.05 73.97 73.39 75.07 77.71 76.57 77.51 77.12 76.29 76.44 76.81 72.95 68.12 68.52 71.17 73.40
67.71 67.40 66.55 68.87 70.78 70.42 70.97 71.62 71.23 69.84 69.67 70.21 69.80 69.28 70.98 72.67 73.95 73.79 71.71 72.02 72.68 75.69 77.28 76.60 76.93 76.25 75.39 71.58 65.95 61.49 63.03 67.91 72.96
66.29 66.54 67.73 67.91 68.32 70.70 71.20 70.65 71.33 70.16 70.51 71.48 71.27 71.32 72.20 72.46 71.89 70.93 70.73 70.17 71.16 69.99 74.04 75.17 73.95 73.13 71.16 65.75 61.70 56.79 58.82 64.66 74.06
65.31 65.66 65.26 64.68 65.21 66.50 70.80 71.01 70.78 71.26 71.81 71.14 71.85 71.27 70.68 70.51 69.55 68.29 67.71 67.53 67.76 68.73 69.92 70.96 69.17 68.95 66.97 63.71 57.47 54.86 57.04 62.68 74.89
64.34 64.27 63.51 61.73 60.59 62.75 62.76 66.30 68.51 70.23 68.31 69.28 68.73 68.45 69.32 69.45 69.50 68.33 67.05 65.79 66.46 67.73 67.05 65.09 63.94 63.18 60.55 60.42 53.55 52.74 54.70 64.07 74.74
63.11 62.57 61.18 59.52 58.11 58.00 59.52 61.52 62.59 62.87 61.49 60.74 61.13 63.13 65.39 66.48 66.97 68.10 68.81 68.31 67.62 67.51 65.46 61.90 60.06 58.61 57.96 55.73 51.71 51.25 52.29 59.59 67.90
60.24 59.56 57.23 56.88 56.84 56.13 56.27 57.77 57.88 56.67 58.30 57.29 58.60 60.49 61.37 64.79 64.84 65.19 66.02 66.14 66.81 65.19 63.83 61.42 60.96 58.32 56.51 53.66 53.24 49.69 50.39 50.89 57.03
56.68 54.95 56.16 56.04 55.12 54.90 55.57 56.44 56.05 54.92 55.62 57.75 58.57 58.87 59.54 60.72 62.24 64.57 64.98 63.62 63.16 63.03 62.20 60.73 59.83 58.51 58.77 56.40 53.47 50.89 50.31 50.16 51.19
56.14 54.94 54.17 54.95 55.46 56.04 56.58 56.25 56.08 55.80 57.89 59.16 58.91 58.97 59.70 59.53 60.79 62.46 63.87 63.32 63.69 60.90 60.98 58.63 58.60 58.70 59.78 58.43 56.85 54.95 50.62 50.38 50.49
55.55 55.94 55.31 55.67 54.66 54.87 55.49 56.74 57.38 56.94 57.57 59.42 58.60 58.10 58.75 58.95 59.00 53.34 50.90 53.68 60.80 55.63 54.64 60.84 63.46 61.81 60.64 58.77 55.26 50.32 49.48 51.02 53.91
57.19 56.71 56.36 57.14 56.74 55.91 55.96 56.73 56.79 57.95 58.76 58.74 57.63 58.05 58.85 57.55 57.72 54.75 49.15 43.10 44.05 47.64 42.46 42.60 55.15 53.81 50.95 52.52 50.97 44.00 42.12 41.79 45.51
54.82 55.50 56.50 55.75 56.65 56.88 56.14 56.36 56.04 57.02 58.94 60.72 58.89 57.78 57.13 57.34 58.49 57.48 55.38 51.02 44.57 41.57 41.38 40.80 40.09 40.56 45.91 43.17 41.93 40.87 40.17 39.24 39.50
54.51 54.82 54.85 54.73 54.38 55.54 55.26 55.76 56.57 57.69 58.20 58.04 58.59 56.13 59.47 56.07 56.26 54.89 53.78 51.81 48.48 43.99 42.27 41.58 40.14 39.85 40.31 39.99 39.60 39.63 39.03 38.93 39.45

GFSFLT1_sfc_wetblb_117.txt.gz
Wetbulb
64.28 64.55 65.70 65.86 64.85 67.82 68.07 69.74 70.22 71.77 71.19 70.99 70.52 72.21 72.14 71.93 70.54 69.68 71.44 71.69 70.84 70.08 71.08 71.76 72.82 73.26 73.31 73.44 73.89 73.13 73.44 72.52 72.60
62.92 64.56 64.78 66.43 67.30 67.20 68.64 68.31 68.52 71.67 71.62 71.79 70.77 71.89 72.46 72.00 72.57 72.15 71.32 72.15 70.00 70.73 73.17 74.35 72.11 72.16 73.24 73.09 73.74 73.48 73.59 72.38 72.16
63.25 64.13 64.91 65.72 67.29 67.88 68.18 69.26 68.25 72.15 72.43 71.91 71.61 72.02 72.69 72.11 72.22 72.54 72.66 72.50 69.22 71.88 71.57 69.43 67.48 66.48 70.08 72.95 73.56 74.29 73.26 72.12 70.90
62.89 64.53 64.11 65.32 67.07 68.07 68.58 68.95 68.64 72.38 72.26 71.74 71.75 72.24 72.13 71.61 72.16 72.67 72.55 72.88 72.65 72.74 70.62 67.45 66.54 67.68 71.22 72.63 72.64 73.04 72.80 72.31 71.95
63.41 65.20 64.87 64.87 66.43 67.05 66.79 66.42 68.56 71.61 72.52 72.08 71.63 71.63 72.12 72.05 72.03 71.64 72.59 71.96 72.55 72.34 68.24 68.62 72.26 72.80 73.08 72.92 73.37 73.68 73.08 72.87 72.48
64.03 63.94 65.11 65.54 66.02 67.14 68.85 67.44 69.33 68.97 70.19 69.84 70.60 71.81 71.81 71.67 71.44 71.65 71.66 72.08 71.85 72.58 72.21 72.39 73.36 73.06 73.44 73.43 73.31 72.94 72.64 72.71 72.61
64.57 64.16 64.40 66.07 66.42 66.73 68.06 68.69 68.77 67.51 67.66 68.97 67.86 67.67 69.19 69.99 70.02 70.04 70.87 71.65 71.90 72.25 73.09 72.88 72.99 73.09 73.07 72.94 71.87 71.28 72.20 72.35 72.74
63.67 64.66 64.58 65.98 66.18 66.08 66.60 66.66 67.44 69.73 70.02 68.89 69.93 69.81 69.88 69.26 70.42 70.94 70.90 72.12 71.55 71.92 72.71 72.63 72.23 72.05 71.17 68.43 66.54 65.35 67.41 71.98 70.66
63.02 64.75 66.15 67.50 65.93 66.03 65.44 66.08 66.34 69.73 68.97 69.20 69.69 69.55 68.43 70.00 69.47 69.52 69.28 69.55 70.18 71.43 71.46 71.09 70.92 70.01 66.70 64.09 62.10 62.10 61.77 66.63 69.53
64.68 63.81 65.40 66.61 68.17 67.89 65.74 66.85 68.63 68.29 68.58 69.15 68.16 68.30 69.65 69.87 67.95 67.00 66.82 68.41 68.74 69.83 70.89 70.80 68.68 65.48 61.00 56.56 55.63 57.46 58.77 64.30 68.90
63.75 63.71 62.93 62.72 63.41 65.74 69.06 69.93 69.15 69.15 69.70 69.07 68.90 69.31 68.07 67.69 67.08 66.49 66.33 66.28 68.13 69.40 68.90 67.23 64.88 62.87 58.09 53.01 52.41 55.20 57.70 63.70 69.42
61.85 60.96 60.06 60.39 60.63 62.62 64.93 68.83 68.94 68.47 67.03 68.11 68.00 67.19 66.90 66.69 66.15 65.16 65.64 66.46 66.55 64.74 62.75 60.91 60.53 57.97 54.34 50.98 49.70 53.63 57.94 66.60 65.98
59.26 59.44 59.58 58.55 58.43 60.66 60.92 62.20 63.59 62.59 61.36 61.70 62.50 64.81 65.87 66.88 66.61 65.84 65.36 64.82 65.87 64.30 61.91 59.60 58.41 55.82 52.51 52.02 49.03 52.04 55.17 60.77 65.59
57.45 56.35 56.67 57.09 56.33 56.15 57.53 58.73 59.87 58.45 58.73 57.97 59.34 61.86 64.39 64.25 64.90 64.86 65.09 65.33 64.34 62.33 59.07 56.88 55.07 53.30 51.82 51.16 50.71 50.01 51.54 54.20 56.99
55.26 55.81 55.79 55.87 54.78 55.51 57.33 57.36 57.47 56.95 56.45 58.48 59.47 60.33 60.94 62.15 64.05 65.08 63.44 62.30 62.18 61.50 59.03 56.72 54.66 54.19 52.57 51.49 49.41 50.85 50.57 51.35 52.54
54.53 54.86 55.08 56.07 55.87 55.19 56.09 57.32 57.14 56.19 57.35 59.05 59.10 59.61 59.68 59.81 55.02 54.55 60.12 61.68 61.04 60.15 59.14 58.44 57.74 57.34 54.17 52.57 50.73 48.17 50.08 50.76 51.89
53.55 53.96 54.49 55.97 55.65 54.92 55.00 56.28 56.71 57.00 58.46 58.44 57.89 57.69 58.01 53.80 49.92 47.48 47.68 50.67 48.05 47.90 47.48 52.30 59.01 57.51 53.88 49.91 44.30 42.99 43.02 44.79 45.70
55.18 55.10 55.63 55.57 54.52 53.94 53.92 55.06 55.85 57.41 58.04 58.51 57.49 57.86 56.98 55.40 50.12 45.79 41.69 40.89 44.79 44.72 41.16 41.61 49.58 46.61 45.67 46.70 41.84 38.56 40.27 39.52 39.38
54.53 54.90 55.88 55.31 53.99 53.67 53.41 53.66 53.50 54.96 57.06 57.64 56.42 56.36 56.03 56.45 54.51 51.68 48.88 45.60 42.16 42.81 42.28 42.24 41.19 41.88 41.41 39.62 40.83 40.81 39.88 39.02 39.40
53.90 53.71 53.58 53.18 53.49 53.76 53.84 53.72 53.94 53.17 55.26 54.93 55.87 56.28 56.16 56.52 55.51 53.20 48.11 46.09 44.01 41.72 42.17 42.36 40.82 40.01 40.09 41.05 40.11 39.95 39.21 38.78 39.71

GFSFLT1_sfc_wetblb_123.txt.gz
Wetbulb
63.44 63.80 65.04 64.15 64.50 66.34 67.35 68.04 68.58 69.12 68.81 68.29 67.94 68.87 69.14 68.79 68.92 68.43 68.77 69.76 69.15 69.37 69.47 69.59 70.55 71.63 70.96 70.62 70.92 71.19 71.10 70.79 70.77
62.30 63.66 63.97 64.21 65.08 66.14 67.16 68.09 68.50 68.81 69.04 68.32 68.60 68.75 68.98 69.36 68.55 67.31 68.31 69.78 69.78 69.19 70.03 70.88 70.87 71.97 71.55 71.18 71.93 71.16 70.72 70.34 69.75
61.88 63.47 64.43 64.49 65.36 66.41 67.21 68.15 68.83 69.37 69.18 69.22 69.34 69.40 69.38 69.42 68.84 68.08 68.54 70.22 69.90 69.13 69.36 71.05 71.87 71.30 70.86 71.23 70.94 71.38 70.75 70.31 70.10
61.93 62.90 63.87 64.26 64.82 67.23 67.48 67.76 68.68 69.32 69.25 69.13 68.83 69.25 69.74 69.28 69.36 69.55 70.44 70.26 69.53 68.55 70.07 69.58 69.72 69.62 69.19 70.41 70.88 71.26 71.28 70.58 70.06
62.91 63.79 64.05 64.33 65.15 65.75 66.59 67.69 68.53 69.46 69.37 69.30 69.81 69.42 69.93 69.37 69.31 69.98 70.53 70.14 70.30 68.21 70.11 68.88 68.02 66.86 67.19 70.37 70.85 70.99 70.83 70.69 71.32
61.48 62.73 63.32 64.14 64.53 64.80 65.95 67.39 68.21 69.14 69.69 69.67 69.78 69.46 70.36 69.46 68.73 69.23 69.64 69.74 70.86 70.24 70.24 69.26 68.74 67.66 68.20 70.68 71.20 71.32 71.52 71.42 71.45
60.25 60.87 62.25 63.99 64.55 64.66 65.66 66.27 66.55 69.23 69.74 70.40 69.91 69.90 69.87 69.45 68.96 69.03 69.28 69.56 69.64 70.04 69.39 68.24 67.38 68.44 70.48 71.53 71.70 71.44 71.44 71.57 70.81
62.16 61.04 62.91 63.04 63.87 64.61 65.13 66.04 66.44 69.08 68.52 68.92 69.54 69.52 69.47 69.32 69.19 69.23 69.34 69.57 70.01 70.26 70.24 70.38 70.35 70.47 69.51 68.83 68.42 67.01 67.95 69.35 70.88
61.52 61.54 62.74 63.03 64.12 65.54 65.38 66.05 67.16 68.46 67.95 67.62 68.24 68.47 68.02 67.73 68.20 68.22 67.68 67.73 68.43 68.49 68.72 69.26 68.61 67.75 66.27 65.57 65.07 61.36 62.46 64.52 68.86
61.15 62.36 63.77 63.86 64.22 65.85 66.70 67.17 68.08 67.91 67.84 68.34 67.42 67.59 68.13 68.54 68.29 67.64 67.43 68.18 67.82 67.55 68.47 67.07 64.51 62.92 62.32 61.51 59.99 58.71 58.42 62.29 67.39
60.61 60.85 60.88 61.89 63.02 64.65 64.86 67.12 68.38 68.47 68.58 68.29 66.99 66.58 67.82 67.95 67.25 67.14 67.12 67.21 66.69 67.55 68.38 63.79 61.47 60.76 61.74 60.93 59.85 59.57 58.66 63.26 66.78
58.72 59.12 59.39 59.35 60.35 62.30 66.48 66.87 68.13 68.02 68.07 68.04 67.57 67.15 67.21 66.55 66.53 66.39 66.35 64.36 62.43 60.96 61.66 59.83 57.46 56.09 56.06 58.24 59.60 57.90 61.30 63.17 61.48
57.47 57.79 57.50 57.30 58.40 59.41 60.65 65.38 67.30 66.95 66.75 66.71 66.87 67.59 67.25 66.30 66.55 65.92 64.36 62.89 60.01 57.96 55.62 53.78 53.83 53.12 54.68 54.65 56.40 57.00 59.12 59.47 57.36
56.19 56.30 56.36 57.29 57.24 57.10 58.81 62.02 66.26 63.88 64.04 63.51 65.46 66.80 66.60 66.28 66.08 65.71 64.36 62.66 60.30 57.84 56.09 55.44 55.29 54.41 52.95 52.56 53.16 56.80 55.80 55.96 57.15
55.20 55.14 55.66 56.08 56.62 57.26 58.18 60.89 61.55 60.35 59.29 61.89 63.79 64.63 64.88 65.22 65.80 65.94 64.88 61.51 59.01 56.52 53.82 50.49 48.05 48.36 48.19 48.80 49.54 51.84 53.34 55.86 55.28
54.49 55.22 55.40 55.92 55.63 56.53 58.00 58.94 60.35 59.21 59.55 61.04 60.37 59.81 58.20 56.78 56.26 57.87 61.88 60.19 58.08 55.18 51.91 49.53 48.43 47.25 47.12 45.30 46.91 47.76 50.26 50.89 52.04
54.09 54.88 54.86 55.44 55.10 54.35 55.47 57.80 58.30 59.10 59.47 57.49 55.76 53.94 52.57 51.95 51.30 51.46 51.22 51.21 52.71 57.52 55.48 54.14 52.44 49.68 47.25 44.89 44.22 45.78 47.07 47.53 48.78
53.65 53.96 54.49 54.47 52.93 53.48 53.78 54.84 55.88 57.40 57.49 55.79 53.30 51.75 50.04 48.25 47.27 46.18 44.42 45.94 46.68 46.07 44.00 46.96 54.35 51.05 46.87 42.64 41.58 42.36 42.49 43.77 45.37
50.68 53.64 54.08 52.77 52.73 51.93 52.35 53.80 53.86 54.50 55.62 55.88 53.22 51.57 50.49 49.16 47.90 46.77 45.56 44.52 43.59 43.76 43.07 42.20 41.58 43.96 45.28 41.75 42.07 41.09 39.82 39.10 39.79
53.02 51.28 53.50 50.52 51.33 51.55 52.34 52.27 51.36 52.71 53.99 54.21 53.89 53.82 52.98 51.69 49.40 47.19 46.13 46.44 46.75 44.86 43.60 42.41 40.51 40.52 40.82 40.98 41.19 39.62 39.10 39.45 41.09

GFSFLT1_sfc_wetblb_129.txt.gz
Wetbulb
64.69 65.96 66.75 67.56 68.60 69.38 69.89 70.36 71.08 71.18 71.40 71.87 72.64 73.24 73.74 74.66 74.83 73.99 73.91 74.68 74.06 74.00 74.32 74.65 76.59 76.61 76.78 76.56 75.95 76.43 77.32 76.83 76.42
63.58 64.82 66.32 67.23 68.67 69.66 70.19 70.63 71.13 71.23 71.49 71.88 72.87 73.25 73.69 74.02 74.39 74.45 74.26 75.04 75.38 74.88 75.82 75.40 76.23 76.50 76.59 76.73 76.43 76.21 77.04 76.09 76.57
63.32 64.37 66.32 67.48 68.34 69.35 70.24 71.04 71.70 72.03 72.23 71.88 72.72 73.24 73.69 73.66 74.10 74.49 74.84 75.14 75.07 75.46 76.23 75.99 75.92 76.00 76.34 76.78 76.45 76.21 76.60 76.37 76.98
63.50 63.61 65.61 65.99 68.24 69.61 70.59 71.30 71.44 71.53 72.02 72.12 72.12 72.72 73.47 73.69 74.04 74.26 74.45 74.07 75.00 75.65 75.91 75.82 75.63 76.14 75.90 76.04 76.26 76.66 76.83 76.66 76.45
64.41 65.58 65.86 65.94 67.03 68.62 70.16 70.65 71.36 71.41 72.12 72.07 72.45 72.79 73.23 73.24 74.02 74.37 73.82 73.98 74.46 75.25 75.67 75.98 75.83 75.78 75.79 76.15 75.74 76.34 75.97 75.59 75.41
64.42 65.04 66.59 66.68 65.33 66.97 68.18 70.32 71.00 71.59 72.27 72.26 72.88 73.13 73.08 73.27 73.30 73.26 73.51 74.23 74.84 75.30 75.52 75.04 75.24 75.01 74.94 75.03 75.16 75.70 76.16 76.21 76.17
64.66 65.59 66.17 65.36 64.86 66.27 66.45 69.26 71.07 71.70 72.28 73.02 73.33 73.11 72.92 73.10 73.42 73.59 73.74 74.63 74.69 75.39 75.91 75.00 74.74 75.21 75.00 74.54 74.59 75.18 75.75 76.00 76.12
64.24 64.81 63.92 64.62 64.30 65.01 66.20 67.41 70.49 71.48 70.54 72.81 73.20 72.95 72.98 73.61 74.50 74.46 74.74 75.13 75.17 75.20 75.12 74.93 75.51 75.25 74.87 74.87 74.40 74.09 75.35 76.20 75.76
62.86 64.73 63.40 64.06 64.59 64.84 65.20 65.79 66.89 69.79 70.25 72.14 71.20 72.32 72.71 73.95 74.48 74.72 74.53 74.80 75.01 75.22 75.12 75.15 75.15 74.75 74.80 74.71 73.37 65.43 66.01 71.67 74.78
61.15 63.21 64.30 64.47 65.35 65.20 65.68 66.19 67.48 69.16 69.63 70.51 70.34 71.22 72.87 73.76 73.78 72.31 74.26 74.67 74.63 74.41 74.56 74.93 74.61 74.61 74.85 74.68 74.58 61.60 62.63 64.88 72.81
58.11 59.41 60.80 62.47 63.64 65.66 66.28 67.83 68.76 69.26 69.91 70.06 69.76 70.07 71.79 72.38 72.56 72.65 73.69 73.50 73.96 74.23 73.81 72.66 72.77 72.34 72.42 71.44 70.74 60.88 60.83 62.21 72.35
57.57 58.11 58.49 59.59 60.85 62.67 62.73 64.38 68.96 69.00 69.85 70.54 69.98 69.71 70.34 70.55 70.41 68.71 68.35 68.82 69.75 69.86 69.93 68.66 69.06 69.05 68.45 68.58 67.69 60.49 59.91 62.12 69.90
57.77 58.27 58.39 58.41 59.24 60.55 62.01 63.29 68.19 69.38 68.75 68.24 67.61 67.54 69.61 69.65 70.14 67.72 69.13 66.04 64.77 62.42 62.16 62.60 61.81 61.21 60.04 57.69 64.07 59.29 57.86 61.41 67.26
58.95 58.76 58.30 58.97 59.23 59.34 60.36 62.43 66.26 66.75 67.45 67.31 69.10 69.15 68.46 69.91 68.53 67.54 65.01 62.94 60.09 58.66 57.76 57.72 58.17 56.11 55.22 57.13 56.97 59.35 56.67 56.05 60.45
58.35 58.58 58.97 58.84 58.30 58.49 59.59 61.77 66.15 65.95 66.82 66.84 67.84 69.26 69.14 68.06 65.45 63.78 62.22 59.97 58.26 58.10 58.48 56.43 54.11 52.85 52.54 54.68 56.63 55.02 55.14 56.57 56.25
58.04 58.31 58.30 58.71 57.94 57.69 58.05 59.68 61.17 62.82 61.74 64.16 64.04 60.36 59.69 62.79 64.74 62.91 61.25 58.96 57.70 56.17 55.17 55.29 56.94 56.13 55.59 56.87 55.57 55.78 52.69 53.03 54.21
58.80 58.44 58.42 59.10 58.10 57.72 57.05 57.25 57.27 57.09 58.10 60.22 58.85 58.78 57.58 56.91 56.01 55.15 54.20 57.15 58.80 56.63 54.28 51.99 53.34 53.55 53.01 53.34 55.77 56.47 56.67 55.89 55.16
58.01 58.10 58.60 58.21 56.54 56.75 56.47 56.77 56.59 56.81 56.27 55.87 53.97 53.29 53.50 52.96 53.52 51.49 48.67 45.60 49.11 50.68 48.69 52.56 54.34 51.60 50.12 50.65 52.47 50.48 46.26 51.36 53.67
57.44 57.17 58.01 57.93 57.86 56.39 56.48 56.33 56.15 56.82 56.77 56.37 54.10 52.63 51.09 50.59 50.68 50.79 50.08 48.71 46.63 44.26 44.64 44.41 42.59 42.14 45.14 44.16 43.56 41.51 41.04 42.14 43.76
55.26 56.67 56.86 57.10 57.08 57.70 58.63 57.66 57.41 58.86 58.46 57.03 55.19 53.20 51.67 51.67 51.30 51.33 50.80 50.51 49.42 46.76 44.75 42.55 40.72 40.85 42.21 41.30 40.48 40.48 39.61 40.43 42.28

GFSFLT1_sfc_wetblb_132.txt.gz
Wetbulb
66.49 67.96 68.85 68.71 70.14 71.08 72.38 72.82 73.24 73.54 73.58 74.07 74.76 74.96 75.39 76.48 76.71 77.18 73.94 75.18 74.52 74.50 74.25 74.93 76.81 77.53 77.24 77.65 77.87 76.70 78.17 77.28 76.60
65.36 66.83 68.66 68.66 70.29 71.48 72.48 72.86 73.31 73.65 73.54 74.01 74.29 74.24 75.10 75.94 76.35 75.52 75.56 76.80 76.40 75.10 76.69 75.92 77.09 77.26 77.17 77.37 77.94 77.46 77.82 76.19 77.05
65.67 66.69 66.14 69.41 70.22 71.42 72.50 73.18 73.73 74.24 74.13 73.95 74.20 74.18 74.73 75.05 75.92 76.09 76.72 76.40 76.02 76.06 76.51 76.81 76.86 77.09 77.15 77.17 77.67 77.82 77.68 76.72 77.65
65.05 66.00 66.32 69.57 70.49 71.83 72.67 73.42 73.68 73.93 74.07 74.04 73.85 74.43 74.86 75.05 75.22 75.57 76.33 77.02 76.96 77.25 77.33 77.14 76.63 76.84 76.55 76.87 77.07 77.84 77.66 77.25 76.83
66.74 65.27 66.47 68.96 70.32 71.47 72.53 73.01 73.48 73.98 74.03 74.11 74.35 74.55 74.96 74.99 75.27 75.68 75.28 75.90 76.48 77.25 77.57 76.32 76.88 76.75 76.35 76.50 76.74 77.25 77.10 76.41 76.35
65.57 66.96 65.63 67.28 68.22 68.43 70.57 72.62 73.40 74.03 74.44 74.62 74.89 74.89 74.39 74.55 74.74 75.18 75.27 75.52 76.29 76.86 77.27 77.14 77.12 77.19 77.30 77.01 77.19 76.93 77.27 76.78 76.55
66.52 66.11 67.92 66.11 67.15 66.55 70.33 70.49 73.59 74.02 74.20 75.26 75.50 74.98 74.68 74.73 74.88 75.06 75.37 75.78 76.21 76.25 77.34 77.00 77.09 77.37 77.34 77.34 77.04 77.47 77.41 77.15 76.91
65.84 65.49 66.21 66.65 68.43 68.05 68.52 68.90 70.60 72.31 73.91 75.01 75.53 75.37 75.16 75.30 76.04 76.41 76.35 76.07 76.19 76.72 76.70 77.04 77.49 77.15 76.97 77.14 76.75 75.98 76.82 77.13 76.95
65.54 66.53 67.15 66.59 65.73 67.09 67.37 68.16 66.90 69.49 72.37 72.83 74.33 74.84 74.85 75.85 76.26 76.66 76.83 77.05 76.43 76.88 76.69 76.60 76.88 76.18 76.06 76.48 75.44 67.67 68.67 72.71 76.10
58.87 61.20 66.14 66.89 66.36 66.10 66.86 66.86 66.82 66.50 70.52 72.15 72.80 73.73 72.31 73.25 74.54 74.17 75.71 76.66 76.93 76.66 76.32 76.60 76.38 76.24 76.02 75.62 76.34 64.43 64.80 66.59 74.61
57.76 58.39 59.25 61.28 65.96 67.48 68.16 68.40 67.56 67.87 68.35 70.68 72.23 71.88 73.84 71.67 74.12 73.55 74.80 75.52 76.03 72.66 77.17 76.95 76.01 75.60 76.16 75.95 75.29 62.17 61.05 61.82 72.79
59.19 58.83 59.09 59.97 62.23 63.88 65.83 66.37 66.33 68.12 68.43 69.54 71.35 70.04 73.39 73.31 73.63 72.60 73.70 72.61 74.77 74.33 75.04 73.94 75.05 74.41 74.70 74.18 74.22 61.53 60.21 63.29 72.12
61.26 61.55 60.90 60.60 62.92 62.99 63.70 64.04 66.30 68.66 68.21 68.68 68.37 71.82 71.88 70.99 71.34 70.35 70.17 71.88 72.48 68.66 67.37 65.44 65.20 68.21 70.66 61.70 71.03 58.32 57.74 61.08 71.05
61.99 62.45 63.37 63.64 62.67 60.58 61.62 62.73 65.41 66.70 68.16 68.41 69.50 70.03 71.46 71.30 72.21 70.77 71.39 71.15 69.56 68.12 64.84 61.78 62.26 62.40 60.23 60.49 62.33 63.41 55.25 56.95 66.84
61.81 60.89 61.65 62.75 62.05 60.84 61.36 62.49 65.60 66.35 66.82 68.50 69.57 70.64 70.68 70.16 67.49 65.87 63.27 60.99 59.57 59.87 60.55 58.28 55.99 56.47 56.11 56.77 58.22 55.48 54.98 55.41 56.25
61.92 61.69 61.14 62.09 61.25 60.90 60.11 60.59 62.64 61.63 62.65 66.42 64.98 65.08 64.76 64.77 65.04 64.18 65.77 62.84 59.16 58.20 57.42 56.01 55.63 56.43 56.35 56.75 57.58 56.31 55.06 55.08 55.93
60.84 61.95 61.44 61.54 60.77 60.03 58.41 58.91 58.60 59.44 60.98 62.89 64.08 62.68 62.92 62.04 60.77 59.35 60.16 59.14 60.40 57.50 56.21 56.49 56.19 56.17 57.23 58.54 59.92 60.62 59.56 56.18 54.72
61.15 60.67 60.75 59.91 58.67 59.01 57.62 57.49 58.49 58.37 58.29 59.68 57.05 57.79 58.95 57.57 57.03 54.55 52.38 48.93 49.49 52.89 50.43 52.24 54.69 54.16 55.17 57.56 58.56 53.76 47.47 56.25 58.89
62.18 61.34 61.21 60.96 59.12 58.59 58.73 57.22 58.21 58.87 58.25 57.45 55.45 54.87 54.31 53.47 52.55 51.75 51.87 49.96 48.35 44.37 44.49 43.36 41.93 41.76 46.78 46.19 43.48 41.73 42.40 44.69 44.37
57.84 60.79 61.03 61.26 61.41 61.27 59.01 60.43 59.65 59.26 60.36 59.05 57.91 56.89 56.24 55.41 54.28 53.94 52.46 52.25 51.66 47.84 44.68 42.49 41.06 40.78 41.94 42.15 41.35 40.80 42.06 41.89 42.65

GFSFLT1_sfc_wetblb_135.txt.gz
Wetbulb
67.69 67.35 67.46 67.66 69.08 71.85 71.79 72.48 73.02 73.45 74.11 74.53 74.83 75.12 76.35 77.63 76.54 74.84 74.84 75.56 74.62 73.89 76.46 75.00 78.14 77.65 77.22 77.16 78.09 77.36 78.03 77.23 76.32
66.52 68.85 68.72 67.56 69.77 70.76 72.10 72.09 73.14 73.90 74.35 74.52 74.36 74.44 75.35 76.99 76.77 75.79 75.56 77.37 76.71 75.49 78.64 74.68 77.34 77.16 77.05 77.31 77.62 77.81 78.06 76.18 77.34
67.20 68.65 68.58 66.56 69.80 70.55 71.93 72.66 73.59 74.23 74.71 74.43 74.39 74.58 74.94 75.17 75.90 76.42 76.57 76.81 76.74 76.95 76.79 77.24 75.93 76.38 77.59 77.42 77.49 78.00 78.57 77.58 78.32
67.46 67.83 67.90 68.01 69.49 70.64 72.23 73.38 73.62 73.90 74.43 74.58 74.30 74.33 75.18 75.41 75.09 75.79 76.62 76.00 76.03 76.66 77.05 77.17 77.01 77.39 77.36 76.86 77.05 77.91 77.97 78.62 77.18
67.86 68.28 66.74 67.94 65.71 71.08 71.22 71.83 73.43 74.12 74.28 74.26 74.59 74.73 75.44 74.55 75.26 75.64 75.32 76.13 76.00 77.94 76.47 77.02 77.21 77.47 77.48 77.06 76.76 77.33 77.13 76.33 76.20
67.80 67.52 66.45 66.58 67.10 68.81 71.41 71.73 73.19 74.99 74.85 74.74 74.85 74.94 74.58 74.49 74.51 74.69 75.04 76.34 76.45 77.68 77.76 77.68 76.06 76.88 76.86 76.73 76.80 77.27 77.18 77.18 76.50
67.68 68.00 66.80 65.79 65.79 69.69 71.67 72.79 71.37 75.75 74.91 75.45 76.10 75.17 74.19 75.15 74.89 75.03 74.86 76.34 77.05 76.72 78.24 77.43 77.25 77.01 77.85 77.77 77.16 77.00 76.91 77.46 77.46
67.44 66.12 66.44 65.13 65.32 67.70 69.97 71.60 72.85 74.71 74.44 76.48 76.22 75.83 75.94 76.72 77.68 77.54 77.55 78.09 78.19 77.46 77.70 77.60 77.63 77.34 78.40 78.11 77.10 76.39 77.82 77.54 77.10
63.83 66.98 66.91 65.39 67.76 68.60 68.29 69.58 69.28 72.17 74.12 73.94 75.48 75.28 75.34 76.61 76.58 77.35 77.63 77.97 78.28 78.36 77.60 77.77 77.55 76.76 76.92 76.63 75.91 68.97 71.67 73.61 76.69
60.73 61.38 65.01 65.76 67.23 68.17 68.29 68.42 69.45 68.38 68.24 72.13 73.17 73.91 74.52 75.38 75.85 76.30 76.36 77.12 77.67 77.55 76.85 77.95 77.50 76.63 76.43 76.63 77.13 66.73 67.62 68.76 74.77
61.88 61.27 60.10 63.17 63.58 66.93 67.76 69.14 68.67 69.25 69.84 68.11 69.29 72.88 73.38 72.20 74.85 74.99 75.67 75.81 75.74 77.15 77.90 77.68 73.64 76.85 76.75 77.22 75.87 64.40 64.30 64.04 73.83
62.97 63.29 62.56 61.56 62.50 64.16 66.01 67.05 68.87 67.80 67.37 67.95 67.80 69.03 72.71 70.90 74.53 72.37 73.45 74.67 75.59 74.68 77.00 76.62 75.29 74.23 74.40 75.74 74.90 61.64 61.01 64.54 72.87
63.59 64.33 64.49 63.55 64.51 64.85 65.33 66.33 67.34 67.55 66.18 69.56 67.33 68.44 71.39 72.52 71.65 72.93 72.56 71.81 72.51 74.22 75.67 74.92 74.38 73.08 74.17 63.98 68.84 58.34 58.06 62.68 70.62
64.60 64.40 63.99 65.01 65.06 64.77 64.52 65.21 66.12 66.63 69.77 67.53 68.18 68.95 69.15 69.98 71.75 70.33 71.19 71.79 71.95 72.01 71.14 70.99 70.65 68.54 67.17 64.85 60.98 60.39 56.67 56.61 68.67
63.99 63.20 63.21 63.99 63.30 63.10 63.69 63.80 64.57 65.89 65.65 68.76 69.30 67.73 68.34 68.43 68.68 69.06 67.66 65.24 61.82 60.90 59.14 57.90 58.78 58.90 59.36 59.90 60.72 56.27 55.10 56.01 58.88
63.39 62.93 62.65 63.59 63.50 62.82 60.56 60.72 61.34 63.32 64.79 67.60 67.71 66.99 66.13 66.04 65.70 66.34 65.59 63.72 63.01 61.27 60.23 58.30 57.74 57.45 56.55 56.77 56.93 56.53 53.89 54.45 55.34
63.19 63.64 62.67 63.17 62.63 60.24 58.12 59.00 58.99 60.04 62.07 65.34 65.86 65.10 64.86 66.23 65.21 63.71 62.30 62.06 61.23 59.68 59.64 58.47 58.34 59.14 59.12 59.16 58.12 57.25 56.67 55.95 55.20
62.94 62.40 61.78 62.99 62.23 59.02 56.88 58.18 58.43 58.61 59.39 60.83 61.42 62.15 62.74 63.20 62.53 61.85 56.11 50.56 51.78 55.26 49.84 55.66 57.71 57.48 58.02 57.04 59.15 51.98 48.32 55.47 56.54
62.88 61.21 62.26 62.21 62.18 61.75 60.22 58.64 59.47 58.92 58.65 58.43 58.56 57.67 57.20 55.87 54.81 54.10 55.05 54.00 50.32 44.33 44.24 43.02 41.93 41.89 49.37 48.45 44.90 44.50 44.69 43.79 44.51
59.83 62.39 62.41 61.16 61.18 62.54 60.99 60.84 60.08 60.79 60.10 60.44 61.02 59.00 57.67 56.13 56.30 55.88 55.13 54.42 54.19 52.60 47.29 42.74 41.04 40.98 41.96 43.08 43.33 42.90 41.76 42.28 43.14

GFSFLT1_sfc_wetblb_138.txt.gz
Wetbulb
65.18 66.38 67.18 66.59 67.78 69.79 71.22 71.05 71.52 73.13 74.47 74.01 74.52 75.20 75.97 77.09 77.13 75.79 72.15 76.35 77.93 74.52 73.82 72.89 76.94 77.47 78.74 78.65 79.13 78.65 78.75 78.52 77.70
65.31 66.33 67.35 68.33 69.33 70.80 71.10 71.12 72.49 73.57 74.56 74.74 74.75 74.39 75.55 76.04 76.77 76.49 75.82 75.92 79.68 76.05 78.11 76.70 77.87 77.75 77.53 78.49 78.23 76.86 78.68 76.97 77.54
66.05 68.25 67.03 68.59 68.39 69.01 71.23 70.56 70.75 74.52 74.70 74.52 74.68 74.76 74.50 74.39 75.39 76.81 78.35 79.03 76.11 75.52 77.01 76.83 74.14 76.28 74.86 79.30 78.49 77.26 78.16 77.11 77.31
66.99 67.13 67.79 69.51 67.74 68.44 67.67 72.51 72.51 73.81 73.54 74.41 74.38 74.36 74.76 74.73 75.44 75.75 76.43 76.38 73.50 73.36 78.06 77.99 77.74 75.32 73.33 77.01 77.02 78.19 77.80 77.73 77.56
67.40 68.39 69.80 70.54 69.63 68.28 68.38 72.39 73.10 72.64 74.02 74.42 74.14 74.25 75.37 74.80 75.47 75.42 75.31 75.79 76.76 77.71 77.77 77.71 78.49 77.16 76.07 76.47 77.43 77.57 77.81 76.38 75.72
68.07 67.91 68.11 68.71 69.63 68.14 68.77 71.37 71.76 73.96 73.74 73.53 73.70 74.82 74.58 74.43 74.38 75.70 75.46 75.13 75.55 76.25 76.76 77.74 77.14 77.77 78.07 77.54 77.64 77.52 78.11 77.49 76.55
67.33 68.02 67.53 67.71 67.21 67.51 67.92 66.87 67.29 72.92 73.68 75.18 74.51 73.01 74.07 73.66 75.10 74.51 75.11 76.37 75.69 75.17 76.31 75.97 76.39 77.95 77.86 77.85 77.48 77.48 77.04 76.75 76.43
66.73 67.40 66.73 66.82 65.33 65.41 66.08 66.46 66.10 69.34 70.76 72.17 74.28 73.59 74.18 75.31 75.61 76.69 77.64 78.06 78.13 77.58 76.66 76.64 77.07 76.56 76.43 77.27 76.43 75.40 76.16 75.97 76.92
65.59 66.19 66.91 66.46 66.85 67.05 66.46 66.86 67.06 68.29 70.89 68.66 72.11 73.04 74.99 76.68 75.78 77.50 77.91 78.50 78.80 78.43 78.11 77.86 78.22 77.01 76.87 75.85 75.25 69.83 71.43 74.86 75.23
62.54 62.71 66.04 66.63 67.62 68.21 67.60 67.81 68.81 69.01 70.71 71.74 71.75 72.83 72.86 75.93 76.18 76.48 76.72 76.89 76.71 76.52 76.52 77.11 76.73 76.15 74.91 75.50 76.71 67.79 70.09 70.90 74.83
63.35 63.41 63.93 63.91 64.86 66.20 67.58 68.86 68.32 69.43 70.38 70.55 71.16 72.13 73.15 74.09 75.06 75.70 75.99 75.24 74.83 74.93 75.18 75.84 74.44 74.56 75.09 74.86 75.16 65.22 67.51 68.26 74.77
63.93 64.53 65.03 65.05 64.64 64.86 66.29 66.67 68.71 68.93 68.29 68.89 68.78 69.22 70.08 72.54 74.19 73.82 74.81 74.44 75.09 76.27 75.52 75.51 75.56 74.94 74.36 73.71 70.86 63.07 61.61 64.67 74.49
64.12 65.02 65.27 65.17 65.53 65.50 65.80 67.14 67.55 67.62 67.92 68.25 67.57 68.77 69.76 69.04 70.57 70.67 72.19 73.08 72.83 73.97 73.80 74.38 74.79 74.61 74.15 66.31 64.41 59.36 59.78 63.42 69.96
64.64 64.73 65.13 65.30 65.05 64.28 64.11 65.13 65.31 65.90 66.98 69.09 70.70 68.89 68.63 68.72 69.20 69.18 69.49 66.85 66.05 66.03 66.46 67.78 65.59 67.26 66.41 64.03 61.21 60.49 57.49 56.92 66.95
63.77 63.70 63.24 63.68 63.25 62.50 62.71 61.84 62.53 64.80 65.30 67.60 70.44 69.82 67.74 66.90 67.64 67.58 65.45 63.05 61.87 61.36 61.06 60.17 59.15 59.27 58.87 59.19 59.17 55.37 55.78 56.00 58.07
63.67 63.29 62.65 62.91 62.57 62.14 60.16 59.96 60.57 60.64 62.20 66.86 66.20 68.81 66.31 65.11 65.25 64.66 63.96 62.92 62.52 61.43 60.94 59.96 59.47 59.33 58.47 57.00 57.00 56.44 53.74 53.78 54.78
63.31 62.83 62.90 62.42 62.04 60.57 58.59 59.64 58.65 59.05 60.48 64.52 66.37 64.18 64.36 64.15 63.27 61.02 61.28 61.56 61.84 61.84 60.94 60.32 60.52 60.14 59.36 58.63 57.79 56.94 56.94 55.70 54.21
62.99 62.25 62.02 62.52 61.24 60.90 59.16 59.58 58.43 58.55 59.77 61.50 61.91 63.31 63.03 63.13 62.11 56.95 51.13 48.01 49.73 54.66 49.95 48.77 59.54 58.02 58.60 58.24 54.65 52.36 50.38 53.93 55.16
62.80 62.32 62.65 62.93 62.01 61.65 61.24 60.64 59.74 58.90 58.77 59.72 58.99 58.46 58.21 58.26 57.37 57.53 55.58 52.63 48.86 44.44 44.10 43.44 42.24 42.83 50.01 49.44 46.46 45.44 44.09 43.95 44.95
61.41 63.18 63.36 62.66 62.71 62.41 62.49 62.50 61.72 61.05 61.50 59.57 58.10 57.00 56.92 56.70 56.00 56.22 55.39 55.51 53.94 50.58 46.34 42.84 41.44 41.51 42.49 42.56 42.50 42.42 41.98 42.23 43.69

GFSFLT1_sfc_wetblb_141.txt.gz
Wetbulb
63.71 62.90 64.79 66.48 66.13 65.90 65.73 69.63 71.29 71.68 70.24 69.97 71.47 71.09 71.41 71.88 71.56 71.24 70.51 70.34 71.39 70.63 71.53 70.43 71.76 73.45 73.57 73.77 74.12 73.57 72.38 73.19 73.06
64.07 63.51 63.91 65.68 65.59 66.29 66.55 68.16 70.96 71.54 70.07 70.12 71.28 71.27 71.80 71.70 72.42 71.22 69.12 68.09 72.26 71.82 72.11 72.53 75.42 74.92 73.83 73.70 73.46 74.10 72.80 71.92 72.03
61.30 63.04 63.89 65.57 65.72 66.80 68.36 69.01 71.36 72.05 71.46 70.78 71.07 71.35 72.88 72.01 72.09 72.06 72.15 72.14 71.15 71.64 72.41 73.42 73.04 71.61 72.14 73.53 73.65 73.87 73.55 72.24 72.33
61.03 63.23 64.24 65.15 66.56 67.36 68.59 69.43 69.73 71.80 71.83 71.21 70.84 70.94 71.81 70.71 71.18 72.23 72.83 72.27 71.32 69.95 71.16 72.58 72.09 71.75 70.98 72.22 72.87 72.68 73.19 71.64 72.99
64.70 66.48 66.08 66.26 66.91 66.98 67.14 68.22 68.97 70.47 71.67 71.81 72.00 71.78 71.55 70.59 71.35 72.24 72.18 71.80 72.06 71.67 70.35 72.83 73.06 72.56 70.26 70.98 72.64 72.43 72.23 72.37 72.38
60.46 66.90 65.91 66.75 67.19 67.01 65.89 67.06 69.35 68.99 70.60 71.19 71.77 71.11 71.86 71.45 71.52 72.40 72.07 72.00 73.00 72.77 73.12 72.81 73.30 72.64 72.38 72.27 72.77 72.80 72.99 73.41 73.24
64.11 64.85 65.36 65.58 64.93 64.66 64.56 64.67 65.89 66.88 69.06 68.94 69.24 70.47 71.10 71.05 71.62 71.89 72.34 72.86 72.65 73.14 73.09 73.02 73.21 73.20 73.16 73.57 73.20 73.43 73.36 73.73 73.28
64.59 64.67 63.64 64.41 63.76 63.88 65.71 65.91 65.97 67.21 67.15 67.80 66.97 67.42 67.79 70.01 71.39 71.11 71.62 72.68 72.39 72.92 73.01 72.90 73.12 72.94 72.88 73.54 74.37 74.50 72.63 73.64 73.32
62.47 62.87 64.22 64.50 64.77 64.89 64.90 65.77 66.02 67.37 67.24 68.02 67.05 65.34 65.79 69.67 71.29 71.70 71.43 72.38 72.36 71.81 71.71 72.65 72.61 72.84 72.71 72.20 73.87 71.20 70.26 70.45 71.79
61.95 61.67 63.07 63.62 64.84 66.25 65.60 66.06 66.83 66.22 67.64 69.13 66.13 65.43 67.66 66.90 71.73 71.46 70.48 70.75 70.95 71.54 71.56 72.04 72.20 72.48 72.64 72.81 72.95 67.38 68.63 70.49 71.65
61.41 62.04 61.91 62.00 62.66 64.28 65.05 66.45 65.94 66.81 67.80 68.11 68.09 67.68 67.50 67.06 70.19 69.63 71.28 70.29 70.53 70.03 71.08 71.02 71.28 72.09 71.41 71.05 70.31 65.93 66.34 67.97 69.23
61.85 62.33 62.56 61.96 62.41 62.75 64.41 66.05 65.45 66.19 66.57 66.48 66.97 66.85 67.84 69.42 70.86 70.38 69.44 68.65 69.20 69.93 68.63 69.30 69.75 70.41 69.84 70.13 67.01 62.68 63.22 65.18 68.72
61.83 62.05 62.29 62.26 63.35 63.11 63.34 64.61 65.09 63.95 64.88 65.74 65.42 66.12 67.24 67.66 68.18 68.29 68.11 68.77 68.77 68.57 68.79 68.79 68.41 65.81 65.13 63.77 62.41 58.74 58.76 60.23 66.84
61.73 61.94 61.98 63.21 63.09 61.35 61.81 62.13 62.70 63.35 65.43 65.11 67.37 67.78 67.15 67.51 68.09 67.48 65.92 64.61 63.84 63.66 63.20 63.14 63.56 61.83 61.29 60.76 59.04 58.95 56.38 56.79 61.96
60.77 60.07 60.42 62.83 61.30 60.60 59.91 59.99 61.02 63.32 63.14 65.74 67.48 66.52 66.31 66.80 66.42 66.24 64.59 63.25 61.87 61.16 61.38 60.40 60.04 59.84 58.50 58.13 57.57 54.90 54.55 54.37 56.81
60.23 59.83 59.68 61.66 61.25 59.42 59.11 59.16 59.40 60.08 60.45 64.52 65.81 65.68 64.97 64.59 64.04 63.54 63.06 62.48 61.27 60.17 59.62 59.18 58.54 58.29 57.45 56.54 56.71 56.16 53.43 53.27 54.72
59.34 59.57 59.38 60.87 59.99 58.77 57.93 58.69 58.63 59.02 60.45 64.01 64.35 64.25 63.25 62.01 59.62 56.99 55.86 58.07 59.24 59.60 59.31 59.59 59.33 58.29 57.41 57.03 56.50 56.18 56.36 54.90 54.51
58.96 58.40 59.66 60.39 59.51 58.82 58.04 58.87 57.95 58.71 60.26 61.97 62.21 61.96 61.34 59.30 56.20 52.93 49.66 46.31 45.94 50.79 44.30 46.03 57.15 56.89 56.55 56.91 53.51 52.61 50.76 52.78 54.25
59.09 58.16 60.49 59.80 59.88 59.68 59.06 59.06 58.47 58.31 59.27 59.77 59.07 58.01 57.05 57.31 56.39 54.38 52.40 49.17 45.61 45.14 44.48 43.66 43.13 43.89 48.92 48.63 46.08 44.92 44.28 44.14 45.22
59.27 59.34 59.83 59.11 59.72 59.02 58.78 58.28 58.60 60.04 59.08 58.99 57.67 56.69 56.59 55.40 55.06 54.92 53.81 52.83 49.59 46.54 45.82 43.46 42.51 42.74 43.08 44.13 44.04 42.84 42.70 43.05 44.68